[[{"header":{"parameterUnit":"m.s-1","parameterCategory":1,"la1":30.6,"la2":28.766,"lo1":-90.7593,"lo2":-88.6598,"dx":0.0162,"dy":0.0183,"nx":116,"ny":114,"refTime":"2023-01-16T06:00:00:Z","depth":0,"parameterNumber":2,"parameterNumberName":"U-component_of_WINDS"},"data":[0.0,0.0,0.0,0.0,0.0,0.0,0.0,0.0,0.0,0.0,0.0,0.0,0.0,0.0,0.0,0.0,0.0,0.0,0.0,0.0,0.0,0.0,0.0,0.0,0.0,0.0,0.0,0.0,0.0,0.0,0.0,0.0,0.0,0.0,0.0,0.0,0.0,0.0,0.0,0.0,0.0,0.0,0.0,0.0,0.0,0.0,0.0,0.0,0.0,0.0,0.0,0.0,0.0,0.0,0.0,0.0,0.0,0.0,0.0,0.0,0.0,0.0,0.0,0.0,0.0,0.0,0.0,0.0,0.0,0.0,0.0,0.0,0.0,0.0,0.0,0.0,0.0,0.0,0.0,0.0,0.0,0.0,0.0,0.0,0.0,0.0,0.0,0.0,0.0,0.0,0.0,0.0,0.0,0.0,0.0,0.0,0.0,0.0,0.0,0.0,0.0,0.0,0.0,0.0,0.0,0.0,0.0,0.0,0.0,0.0,0.0,0.0,0.0,0.0,0.0,0.0,0.0,0.0,0.0,0.0,0.0,0.0,0.0,0.0,0.0,0.0,0.0,0.0,0.0,0.0,0.0,0.0,0.0,0.0,0.0,0.0,0.0,0.0,0.0,0.0,0.0,0.0,0.0,0.0,0.0,0.0,0.0,0.0,0.0,0.0,0.0,0.0,0.0,0.0,0.0,0.0,0.0,0.0,0.0,0.0,0.0,0.0,0.0,0.0,0.0,0.0,0.0,0.0,0.0,0.0,0.0,0.0,0.0,0.0,0.0,0.0,0.0,0.0,0.0,0.0,0.0,0.0,0.0,0.0,0.0,0.0,0.0,0.0,0.0,0.0,0.0,0.0,0.0,0.0,0.0,0.0,0.0,0.0,0.0,0.0,0.0,0.0,0.0,0.0,0.0,0.0,0.0,0.0,0.0,0.0,0.0,0.0,0.0,0.0,0.0,0.0,0.0,0.0,0.0,0.0,0.0,0.0,0.0,0.0,0.0,0.0,0.0,0.0,0.0,0.0,0.0,0.0,0.0,0.0,0.0,0.0,0.0,0.0,0.0,0.0,0.0,0.0,0.0,0.0,0.0,0.0,0.0,0.0,0.0,0.0,0.0,0.0,0.0,0.0,0.0,0.0,0.0,0.0,0.0,0.0,0.0,0.0,0.0,0.0,0.0,0.0,0.0,0.0,0.0,0.0,0.0,0.0,0.0,0.0,0.0,0.0,0.0,0.0,0.0,0.0,0.0,0.0,0.0,0.0,0.0,0.0,0.0,0.0,0.0,0.0,0.0,0.0,0.0,0.0,0.0,0.0,0.0,0.0,0.0,0.0,0.0,0.0,0.0,0.0,0.0,0.0,0.0,0.0,0.0,0.0,0.0,0.0,0.0,0.0,0.0,0.0,0.0,0.0,0.0,0.0,0.0,0.0,0.0,0.0,0.0,0.0,0.0,0.0,0.0,0.0,0.0,0.0,0.0,0.0,0.0,0.0,0.0,0.0,0.0,0.0,0.0,0.0,0.0,0.0,0.0,0.0,0.0,0.0,0.0,0.0,0.0,0.0,0.0,0.0,0.0,0.0,0.0,0.0,0.0,0.0,0.0,0.0,0.0,0.0,0.0,0.0,0.0,0.0,0.0,0.0,0.0,0.0,0.0,0.0,0.0,0.0,0.0,0.0,0.0,0.0,0.0,0.0,0.0,0.0,0.0,0.0,0.0,0.0,0.0,0.0,0.0,0.0,0.0,0.0,0.0,0.0,0.0,0.0,0.0,0.0,0.0,0.0,0.0,0.0,0.0,0.0,0.0,0.0,0.0,0.0,0.0,0.0,0.0,0.0,0.0,0.0,0.0,0.0,0.0,0.0,0.0,0.0,0.0,0.0,0.0,0.0,0.0,0.0,0.0,0.0,0.0,0.0,0.0,0.0,0.0,0.0,0.0,0.0,0.0,0.0,0.0,0.0,0.0,0.0,0.0,0.0,0.0,0.0,0.0,0.0,0.0,0.0,0.0,0.0,0.0,0.0,0.0,0.0,0.0,0.0,0.0,0.0,0.0,0.0,0.0,0.0,0.0,0.0,0.0,0.0,0.0,0.0,0.0,0.0,0.0,0.0,0.0,0.0,0.0,0.0,0.0,0.0,0.0,0.0,0.0,0.0,0.0,0.0,0.0,0.0,0.0,0.0,0.0,0.0,0.0,0.0,0.0,0.0,0.0,0.0,0.0,0.0,0.0,0.0,0.0,0.0,0.0,0.0,0.0,0.0,0.0,0.0,0.0,0.0,0.0,0.0,0.0,0.0,0.0,0.0,0.0,0.0,0.0,0.0,0.0,0.0,0.0,0.0,0.0,0.0,0.0,0.0,0.0,0.0,0.0,0.0,0.0,0.0,0.0,0.0,0.0,0.0,0.0,0.0,0.0,0.0,0.0,0.0,0.0,0.0,0.0,0.0,0.0,0.0,0.0,0.0,0.0,0.0,0.0,0.0,0.0,0.0,0.0,0.0,0.0,0.0,0.0,0.0,0.0,0.0,0.0,0.0,0.0,0.0,0.0,0.0,0.0,0.0,0.0,0.0,0.0,0.0,0.0,0.0,0.0,0.0,0.0,0.0,0.0,0.0,0.0,0.0,0.0,0.0,0.0,0.0,0.0,0.0,0.0,0.0,0.0,0.0,0.0,0.0,0.0,0.0,0.0,0.0,0.0,0.0,0.0,0.0,0.0,0.0,0.0,0.0,0.0,0.0,0.0,0.0,0.0,0.0,0.0,0.0,0.0,0.0,0.0,0.0,0.0,0.0,0.0,0.0,0.0,0.0,0.0,0.0,0.0,0.0,0.0,0.0,0.0,0.0,0.0,0.0,0.0,0.0,0.0,0.0,0.0,0.0,0.0,0.0,0.0,0.0,0.0,0.0,0.0,0.0,0.0,0.0,0.0,0.0,0.0,0.0,0.0,0.0,0.0,0.0,0.0,0.0,0.0,0.0,0.0,0.0,0.0,0.0,0.0,0.0,0.0,0.0,0.0,0.0,0.0,0.0,0.0,0.0,0.0,0.0,0.0,0.0,0.0,0.0,0.0,0.0,0.0,0.0,0.0,0.0,0.0,0.0,0.0,0.0,0.0,0.0,0.0,0.0,0.0,0.0,0.0,0.0,0.0,0.0,0.0,0.0,0.0,0.0,0.0,0.0,0.0,0.0,0.0,0.0,0.0,0.0,0.0,0.0,0.0,0.0,0.0,0.0,0.0,0.0,0.0,0.0,0.0,0.0,0.0,0.0,0.0,0.0,0.0,0.0,0.0,0.0,0.0,0.0,0.0,0.0,0.0,0.0,0.0,0.0,0.0,0.0,0.0,0.0,0.0,0.0,0.0,0.0,0.0,0.0,0.0,0.0,0.0,0.0,0.0,0.0,0.0,0.0,0.0,0.0,0.0,0.0,0.0,0.0,0.0,0.0,0.0,0.0,0.0,0.0,0.0,0.0,0.0,0.0,0.0,0.0,0.0,0.0,0.0,0.0,0.0,0.0,0.0,0.0,0.0,0.0,0.0,0.0,0.0,0.0,0.0,0.0,0.0,0.0,0.0,0.0,0.0,0.0,0.0,0.0,0.0,0.0,0.0,0.0,0.0,0.0,0.0,0.0,0.0,0.0,0.0,0.0,0.0,0.0,0.0,0.0,0.0,0.0,0.0,0.0,0.0,0.0,0.0,0.0,0.0,0.0,0.0,0.0,0.0,0.0,0.0,0.0,0.0,0.0,0.0,0.0,0.0,0.0,0.0,0.0,0.0,0.0,0.0,0.0,0.0,0.0,0.0,0.0,0.0,0.0,0.0,0.0,0.0,0.0,0.0,0.0,0.0,0.0,0.0,0.0,0.0,0.0,0.0,0.0,0.0,0.0,0.0,0.0,0.0,0.0,0.0,0.0,0.0,0.0,0.0,0.0,0.0,0.0,0.0,0.0,0.0,0.0,0.0,0.0,0.0,0.0,0.0,0.0,0.0,0.0,0.0,0.0,0.0,0.0,0.0,0.0,0.0,0.0,0.0,0.0,0.0,0.0,0.0,0.0,0.0,0.0,0.0,0.0,0.0,0.0,0.0,0.0,0.0,0.0,0.0,0.0,0.0,0.0,0.0,0.0,0.0,0.0,0.0,0.0,0.0,0.0,0.0,0.0,0.0,0.0,0.0,0.0,0.0,0.0,0.0,0.0,0.0,0.0,0.0,0.0,0.0,0.0,0.0,0.0,0.0,0.0,0.0,0.0,0.0,0.0,0.0,0.0,0.0,0.0,0.0,0.0,0.0,0.0,0.0,0.0,0.0,0.0,0.0,0.0,0.0,0.0,0.0,0.0,0.0,0.0,0.0,0.0,0.0,0.0,0.0,0.0,0.0,0.0,0.0,0.0,0.0,0.0,0.0,0.0,0.0,0.0,0.0,0.0,0.0,0.0,0.0,0.0,0.0,0.0,0.0,0.0,0.0,0.0,0.0,0.0,0.0,0.0,0.0,0.0,0.0,0.0,0.0,0.0,0.0,0.0,0.0,0.0,0.0,0.0,0.0,0.0,0.0,0.0,0.0,0.0,0.0,0.0,0.0,0.0,0.0,0.0,0.0,0.0,0.0,0.0,0.0,0.0,0.0,0.0,0.0,0.0,0.0,0.0,0.0,0.0,0.0,0.0,0.0,0.0,0.0,0.0,0.0,0.0,0.0,0.0,0.0,0.0,0.0,0.0,0.0,0.0,0.0,0.0,0.0,0.0,0.0,0.0,0.0,0.0,0.0,0.0,0.0,0.0,0.0,0.0,0.0,0.0,0.0,0.0,0.0,0.0,0.0,0.0,0.0,0.0,0.0,0.0,0.0,0.0,0.0,0.0,0.0,0.0,0.0,0.0,0.0,0.0,0.0,0.0,0.0,0.0,0.0,0.0,0.0,0.0,0.0,0.0,0.0,0.0,0.0,0.0,0.0,0.0,0.0,0.0,0.0,0.0,0.0,0.0,0.0,0.0,0.0,0.0,0.0,0.0,0.0,0.0,0.0,0.0,0.0,0.0,0.0,0.0,0.0,0.0,0.0,0.0,0.0,0.0,0.0,0.0,0.0,0.0,0.0,0.0,0.0,0.0,0.0,0.0,0.0,0.0,0.0,0.0,0.0,0.0,0.0,0.0,0.0,0.0,0.0,0.0,0.0,0.0,0.0,0.0,0.0,0.0,0.0,0.0,0.0,0.0,0.0,0.0,0.0,0.0,0.0,0.0,0.0,0.0,0.0,0.0,0.0,0.0,0.0,0.0,0.0,0.0,0.0,0.0,0.0,0.0,0.0,0.0,0.0,0.0,0.0,0.0,0.0,0.0,0.0,0.0,0.0,0.0,0.0,0.0,0.0,0.0,0.0,0.0,0.0,0.0,0.0,0.0,0.0,0.0,0.0,0.0,0.0,0.0,0.0,0.0,0.0,0.0,0.0,0.0,0.0,0.0,0.0,0.0,0.0,0.0,0.0,0.0,0.0,0.0,0.0,0.0,0.0,0.0,0.0,0.0,0.0,0.0,0.0,0.0,0.0,0.0,0.0,0.0,0.0,0.0,0.0,0.0,0.0,0.0,0.0,0.0,0.0,0.0,0.0,0.0,0.0,0.0,0.0,0.0,0.0,0.0,0.0,0.0,0.0,0.0,0.0,0.0,0.0,0.0,0.0,0.0,0.0,0.0,0.0,0.0,0.0,0.0,0.0,0.0,0.0,0.0,0.0,0.0,0.0,0.0,0.0,0.0,0.0,0.0,0.0,0.0,0.0,0.0,0.0,0.0,0.0,0.0,0.0,0.0,0.0,0.0,0.0,0.0,0.0,0.0,0.0,0.0,0.0,0.0,0.0,0.0,0.0,0.0,0.0,0.0,0.0,0.0,0.0,0.0,0.0,0.0,0.0,0.0,0.0,0.0,0.0,0.0,0.0,0.0,0.0,0.0,0.0,0.0,0.0,0.0,0.0,0.0,0.0,0.0,0.0,0.0,0.0,0.0,0.0,0.0,0.0,0.0,0.0,0.0,0.0,0.0,0.0,0.0,0.0,0.0,0.0,0.0,0.0,0.0,0.0,0.0,0.0,0.0,0.0,0.0,0.0,0.0,2.3496,2.304,0.0,0.0,0.0,0.0,0.0,0.0,0.0,0.0,0.0,0.0,0.0,0.0,0.0,0.0,0.0,0.0,0.0,0.0,0.0,0.0,0.0,0.0,0.0,0.0,0.0,0.0,0.0,0.0,0.0,0.0,0.0,0.0,0.0,0.0,0.0,0.0,0.0,0.0,2.251,2.3304,2.4073,2.2678,2.1885,2.162,0.0,0.0,0.0,0.0,0.0,0.0,0.0,0.0,0.0,0.0,0.0,0.0,0.0,0.0,0.0,0.0,0.0,0.0,0.0,0.0,0.0,0.0,0.0,0.0,0.0,0.0,0.0,0.0,0.0,0.0,0.0,0.0,0.0,0.0,0.0,0.0,0.0,0.0,0.0,0.0,0.0,0.0,0.0,0.0,0.0,0.0,0.0,0.0,0.0,0.0,0.0,0.0,0.0,0.0,0.0,0.0,0.0,0.0,0.0,0.0,0.0,0.0,0.0,0.0,0.0,0.0,0.0,0.0,0.0,0.0,2.3438,2.2673,0.0,0.0,0.0,0.0,0.0,0.0,0.0,0.0,0.0,0.0,0.0,0.0,0.0,0.0,0.0,0.0,0.0,0.0,0.0,0.0,0.0,0.0,0.0,0.0,2.0687,2.1115,2.073,2.0639,0.0,0.0,0.0,0.0,0.0,0.0,0.0,2.2558,2.3063,2.4083,2.4747,2.5264,2.5733,2.5733,2.5457,2.5035,2.4362,0.0,0.0,0.0,0.0,0.0,0.0,0.0,0.0,0.0,0.0,0.0,0.0,0.0,0.0,0.0,0.0,0.0,0.0,0.0,0.0,0.0,0.0,0.0,0.0,0.0,0.0,0.0,0.0,0.0,0.0,0.0,0.0,0.0,0.0,0.0,0.0,0.0,0.0,0.0,0.0,0.0,0.0,0.0,0.0,0.0,0.0,0.0,0.0,0.0,0.0,0.0,0.0,0.0,0.0,0.0,0.0,0.0,0.0,0.0,0.0,0.0,0.0,0.0,2.5945,2.6025,2.5343,2.5993,2.5334,2.3735,2.3397,2.2341,2.09,2.2009,0.0,0.0,0.0,0.0,0.0,0.0,0.0,0.0,0.0,0.0,0.0,0.0,0.0,0.0,0.0,0.0,0.0,0.0,0.0,0.0,0.0,2.3312,2.3312,2.3384,2.3312,2.3119,0.0,0.0,0.0,0.0,0.0,0.0,2.3601,2.4001,2.4506,2.5107,2.6574,2.7282,2.7354,2.7354,2.7368,2.7186,2.5757,2.5035,2.4867,0.0,0.0,0.0,0.0,0.0,0.0,0.0,0.0,0.0,0.0,0.0,0.0,0.0,0.0,0.0,0.0,0.0,0.0,0.0,0.0,0.0,0.0,0.0,0.0,0.0,0.0,0.0,0.0,0.0,0.0,0.0,0.0,0.0,0.0,0.0,0.0,0.0,0.0,0.0,0.0,0.0,2.2052,2.1971,0.0,0.0,0.0,0.0,0.0,0.0,0.0,0.0,0.0,0.0,0.0,0.0,0.0,2.6179,2.6316,2.5638,2.5271,2.5176,2.4567,2.4271,2.4118,2.3933,2.369,2.3446,2.3077,0.0,2.1417,2.1616,0.0,0.0,0.0,0.0,0.0,0.0,0.0,0.0,0.0,0.0,0.0,0.0,0.0,0.0,0.0,0.0,0.0,0.0,0.0,0.0,0.0,2.3986,2.4035,2.4578,2.4362,2.4097,2.3857,2.4121,0.0,0.0,0.0,2.4771,2.5083,2.5612,2.6574,2.7993,2.8691,2.9196,2.9484,2.9196,2.9051,2.9027,2.8306,2.7152,2.5733,2.5516,0.0,0.0,0.0,0.0,0.0,0.0,0.0,0.0,0.0,0.0,0.0,0.0,0.0,0.0,0.0,0.0,0.0,0.0,0.0,0.0,0.0,0.0,0.0,0.0,0.0,0.0,0.0,0.0,0.0,0.0,0.0,0.0,0.0,0.0,0.0,0.0,0.0,0.0,0.0,2.2783,2.2768,2.3617,2.3973,2.4633,0.0,0.0,0.0,0.0,0.0,0.0,0.0,0.0,0.0,2.6536,2.6342,2.5931,2.5165,2.4704,2.4334,2.4144,2.3928,2.387,2.387,2.366,2.359,2.359,2.345,2.3142,2.2782,2.2644,2.2497,2.234,0.0,0.0,0.0,0.0,2.2272,2.2497,0.0,0.0,0.0,0.0,0.0,0.0,0.0,0.0,0.0,0.0,0.0,0.0,2.4867,2.4723,2.4939,2.5853,2.5529,2.5312,2.5312,2.5829,0.0,0.0,2.631,2.6526,2.6502,2.7176,2.8306,2.9893,3.0302,3.0615,3.0898,3.0657,3.0494,3.047,3.035,2.91,2.7103,2.6839,2.6262,2.5492,0.0,0.0,0.0,0.0,0.0,0.0,0.0,0.0,0.0,0.0,0.0,0.0,0.0,0.0,0.0,0.0,0.0,0.0,0.0,0.0,0.0,0.0,0.0,0.0,0.0,0.0,0.0,0.0,0.0,0.0,0.0,0.0,0.0,0.0,0.0,0.0,0.0,2.3624,2.3675,2.5282,2.513,2.5577,0.0,0.0,0.0,0.0,0.0,0.0,2.7546,2.7653,2.7178,2.5977,2.5907,2.532,2.4039,2.4063,2.3931,2.3661,2.3888,2.3995,2.3995,2.3995,2.3995,2.3995,2.3995,2.3995,2.3941,2.3633,2.327,2.2996,2.3264,2.3537,2.3635,2.2804,2.2762,2.3012,0.0,0.0,0.0,0.0,0.0,0.0,0.0,0.0,0.0,0.0,0.0,2.542,2.5973,2.6478,2.697,2.7522,2.7546,2.7522,2.7522,2.8065,2.8114,2.7594,2.9051,2.9148,2.7642,2.8643,2.9244,2.934,3.0898,3.138,3.0922,3.1404,3.1621,3.1597,3.1091,3.047,2.9821,2.8811,2.8354,2.8138,2.6093,0.0,0.0,0.0,0.0,0.0,0.0,0.0,0.0,0.0,0.0,0.0,0.0,0.0,0.0,0.0,0.0,0.0,0.0,0.0,0.0,0.0,0.0,0.0,0.0,0.0,0.0,0.0,0.0,0.0,0.0,0.0,0.0,0.0,0.0,0.0,0.0,0.0,0.0,2.6262,2.5065,0.0,0.0,0.0,0.0,2.7322,2.7507,2.7409,2.6858,2.6261,2.5648,2.5003,2.4542,2.4286,2.4201,2.4422,2.4569,2.4496,2.4583,2.4596,2.4596,2.4596,2.4596,2.4596,2.4596,2.4596,2.4543,2.3968,2.3927,2.4241,2.4241,2.4453,2.4679,2.4011,2.3653,2.3243,0.0,0.0,0.0,0.0,0.0,0.0,0.0,0.0,2.3737,2.44,2.5276,2.6166,2.7055,2.7633,2.8306,2.9172,2.9244,2.9244,2.9244,2.9412,2.9436,2.9244,2.9797,3.0134,3.0254,3.0639,3.1336,3.2301,3.2923,3.3092,3.2899,3.2779,3.2707,3.2707,3.2515,3.2322,3.2034,3.0278,2.9532,2.9388,2.7945,2.7079,0.0,0.0,0.0,0.0,0.0,0.0,0.0,0.0,0.0,0.0,0.0,0.0,0.0,0.0,0.0,0.0,0.0,0.0,0.0,0.0,0.0,0.0,0.0,0.0,0.0,0.0,0.0,0.0,0.0,0.0,0.0,0.0,0.0,0.0,0.0,0.0,0.0,2.5735,2.5208,0.0,2.6803,2.7173,2.7247,2.7068,2.6563,2.6214,2.621,2.578,2.5484,2.5464,2.5285,2.5135,2.4856,2.4951,2.4857,2.4636,2.4636,2.4636,2.4636,2.4636,2.4636,2.4636,2.4636,2.4743,2.4903,2.4703,2.4576,2.4448,2.4332,2.4444,2.4612,2.4066,2.386,2.39,0.0,0.0,0.0,0.0,0.0,0.0,0.0,0.0,2.4266,2.4963,2.5829,2.6719,2.7594,2.8354,2.9124,3.0013,3.0422,3.0543,3.0374,3.0386,3.0462,3.0639,3.0807,3.1384,3.2442,3.213,3.2563,3.3742,3.391,3.3982,3.3982,3.3885,3.3813,3.3789,3.3621,3.3549,3.3428,3.1841,3.0951,3.0518,2.946,2.8619,2.7921,0.0,0.0,0.0,0.0,0.0,0.0,0.0,0.0,0.0,0.0,0.0,0.0,0.0,0.0,0.0,0.0,0.0,0.0,0.0,0.0,0.0,0.0,0.0,0.0,0.0,0.0,0.0,0.0,0.0,0.0,0.0,0.0,0.0,0.0,2.5397,2.4911,2.5982,2.5274,2.5391,2.6984,2.6737,2.6398,2.6398,2.5736,2.5497,2.5853,2.5444,2.5377,2.5732,2.5681,2.5601,2.5317,2.5317,2.5154,2.493,2.493,2.493,2.493,2.493,2.493,2.493,2.4823,2.4903,2.5077,2.497,2.4877,2.4783,2.4676,2.4756,2.489,2.4502,2.4422,2.4389,0.0,0.0,0.0,0.0,0.0,0.0,0.0,2.4194,2.4891,2.5949,2.6574,2.7114,2.7705,2.8691,2.9532,3.0086,3.1115,3.15,3.0951,3.1013,3.1273,3.1745,3.2226,3.2996,3.3958,3.3068,3.2827,3.3356,3.3814,3.4054,3.4078,3.4583,3.4799,3.4775,3.4246,3.4006,3.3982,3.3549,3.2707,3.1693,3.0591,3.0158,3.0013,0.0,0.0,0.0,0.0,0.0,0.0,0.0,0.0,0.0,0.0,0.0,0.0,0.0,0.0,0.0,0.0,0.0,0.0,0.0,0.0,0.0,0.0,0.0,0.0,0.0,0.0,0.0,0.0,0.0,0.0,0.0,0.0,0.0,2.6805,2.5486,2.5137,2.7025,2.5329,2.4765,2.6679,2.5879,2.5324,2.5324,2.5281,2.5387,2.5814,2.5378,2.5316,2.5705,2.5599,2.5518,2.5531,2.5531,2.5531,2.5545,2.5545,2.5545,2.5545,2.5545,2.5545,2.5518,2.5237,2.513,2.5117,2.481,2.4863,2.5157,2.5411,2.5504,2.5518,2.5518,2.5331,2.475,0.0,0.0,0.0,0.0,0.0,0.0,0.0,2.4194,2.4891,2.5949,2.6574,2.7402,2.8715,2.946,3.023,3.1187,3.1548,3.1813,3.2034,3.2096,3.2313,3.2827,3.2635,3.2996,3.3958,3.4102,3.4438,3.4992,3.5497,3.5761,3.5737,3.5521,3.54,3.5376,3.4799,3.4558,3.4558,3.4463,3.4006,3.3308,3.225,3.1601,3.1211,0.0,0.0,0.0,0.0,0.0,0.0,0.0,0.0,0.0,0.0,0.0,0.0,0.0,0.0,0.0,0.0,0.0,0.0,0.0,0.0,0.0,0.0,0.0,0.0,0.0,0.0,0.0,0.0,0.0,0.0,0.0,2.6636,2.5789,2.5896,2.5491,2.5155,2.5236,2.4926,2.4853,2.5324,2.5314,2.5324,2.5324,2.5474,2.5642,2.5703,2.554,2.5474,2.555,2.5554,2.5611,2.5825,2.5838,2.5945,2.6146,2.6146,2.6146,2.6146,2.6146,2.6146,2.6146,2.6066,2.6146,2.6319,2.6026,2.6079,2.6266,2.5491,2.5331,2.5518,2.5518,2.4674,2.327,0.0,0.0,0.0,0.0,0.0,0.0,0.0,2.4386,2.5228,2.631,2.6681,2.7498,2.9124,2.9773,3.0422,3.1308,3.2006,3.2491,3.2803,3.3236,3.3433,3.3338,3.3648,3.4198,3.5016,3.5328,3.5641,3.5954,3.6266,3.6411,3.6386,3.6098,3.5833,3.5593,3.5304,3.504,3.4775,3.4775,3.4607,3.427,3.3717,3.302,3.2298,3.1769,3.0831,2.9821,2.9677,2.9292,2.8763,2.8234,0.0,0.0,0.0,0.0,0.0,0.0,0.0,0.0,0.0,0.0,0.0,0.0,0.0,0.0,0.0,0.0,0.0,0.0,0.0,0.0,0.0,0.0,0.0,0.0,2.6248,2.5187,2.5069,2.5141,2.5107,2.4879,2.4819,2.4861,2.4953,2.4988,2.508,2.5203,2.5323,2.5507,2.5642,2.5698,2.5758,2.5879,2.5999,2.6199,2.6507,2.6507,2.6587,2.676,2.676,2.676,2.676,2.676,2.676,2.6747,2.6627,2.6667,2.6814,2.664,2.6667,2.6747,0.0,0.0,0.0,0.0,2.4477,2.3182,0.0,0.0,0.0,0.0,0.0,0.0,0.0,2.465,2.5709,2.6753,2.6898,2.7522,2.922,2.9797,3.0326,3.0946,3.2394,3.3332,3.3452,3.4318,3.4481,3.3784,3.5049,3.6002,3.6483,3.6555,3.6555,3.6483,3.6555,3.6627,3.6675,3.6603,3.6362,3.5978,3.5857,3.5497,3.4992,3.4944,3.4847,3.4775,3.4775,3.4246,3.3332,3.2851,3.2322,3.1765,3.0783,3.011,2.9581,2.9124,0.0,0.0,0.0,0.0,0.0,0.0,0.0,0.0,0.0,0.0,0.0,0.0,0.0,0.0,0.0,0.0,0.0,0.0,0.0,0.0,0.0,0.0,0.0,0.0,2.5501,2.4378,2.4567,2.4815,2.5114,2.5328,2.4997,2.4866,2.5125,2.4811,2.4796,2.5064,2.5144,2.5291,2.5545,2.5838,0.0,0.0,0.0,2.6987,2.7308,2.7321,2.7335,2.7362,2.7362,2.7362,2.7362,2.7402,2.7415,2.7402,2.7175,2.7068,2.7068,2.7041,2.7001,2.6934,2.6613,2.664,2.6652,2.4833,2.4175,2.3679,0.0,0.0,0.0,0.0,0.0,0.0,0.0,2.465,2.5709,2.6753,2.6898,2.7666,2.9725,3.0037,3.047,3.1476,3.2611,3.3645,3.4487,3.4679,3.511,3.5798,3.6501,3.694,3.7036,3.7469,3.7469,3.7036,3.7469,3.7902,3.8334,3.7878,3.7853,3.8166,3.7276,3.6603,3.6074,3.5641,3.5208,3.4775,3.4775,3.4414,3.3838,3.3742,3.3428,3.2947,3.2755,3.2322,3.1865,3.1769,3.0855,2.9648,2.8869,2.8395,0.0,0.0,0.0,0.0,0.0,0.0,0.0,0.0,0.0,0.0,0.0,0.0,0.0,0.0,0.0,0.0,0.0,0.0,0.0,2.8104,2.6739,2.549,2.5158,2.562,2.5657,2.495,2.4952,2.5024,2.471,2.485,2.5024,2.5077,2.5518,2.5889,2.5865,2.6146,2.644,2.6734,2.6787,2.7081,2.7602,2.7615,2.7736,2.806,2.806,0.0,2.806,2.823,2.835,2.8364,2.8537,2.8604,2.8591,2.8364,2.811,2.7913,2.7308,2.7134,2.6848,2.3573,2.2433,2.1933,0.0,0.0,0.0,0.0,0.0,0.0,0.0,2.4795,2.5588,2.6406,2.6946,2.7786,2.9148,2.9569,3.0067,3.0798,3.2583,3.3852,3.4369,3.5413,3.6362,3.7156,3.7204,3.7445,3.7998,3.7998,3.7853,3.7589,3.7853,3.8118,3.8407,3.8407,3.8262,3.7998,3.7709,3.7156,3.6362,3.5833,3.5473,3.5208,3.4895,3.4631,3.439,3.439,3.4222,3.403,3.3765,3.3501,3.3143,3.2346,3.1526,3.0644,2.9624,2.8826,2.821,0.0,0.0,0.0,0.0,0.0,0.0,0.0,0.0,0.0,0.0,0.0,0.0,0.0,0.0,3.1914,3.2109,0.0,2.8949,2.9311,2.7416,2.5913,2.5803,2.5843,2.5778,2.5267,2.514,2.5141,2.5064,2.5077,2.5264,2.5705,2.5879,2.6224,2.6666,2.6613,2.68,2.7241,2.7255,2.7468,2.7923,2.7923,2.7989,2.8221,2.8221,2.8315,2.8377,2.8537,2.8684,2.8831,2.8978,2.9045,2.9032,2.8885,2.8818,2.8678,2.7277,2.6597,2.6146,2.3533,2.1943,2.0732,0.0,0.0,0.0,0.0,0.0,0.0,0.0,2.4963,2.554,2.6166,2.6856,2.7654,2.8555,2.8928,2.9443,3.0236,3.2492,3.3958,3.4124,3.5991,3.7276,3.7805,3.7733,3.7974,3.8647,3.8431,3.819,3.7974,3.7974,3.8046,3.8142,3.8599,3.8407,3.7685,3.7998,3.7541,3.6531,3.6002,3.5641,3.5449,3.5112,3.4992,3.4943,3.4842,3.4649,3.4434,3.4101,3.379,3.3335,3.2025,3.153,3.1269,3.0199,2.8993,2.8095,2.8564,2.7881,0.0,0.0,0.0,0.0,0.0,0.0,0.0,0.0,3.0449,3.0957,3.1836,3.2637,3.3164,3.3164,3.1418,3.0038,3.0173,2.794,2.6223,2.6051,2.602,2.5923,2.5793,2.5424,2.5277,2.5571,2.5438,2.5651,2.6413,2.6306,2.652,2.7228,2.7041,2.7148,2.7682,2.7696,2.7843,2.8221,2.8221,2.8221,2.8221,2.8221,2.831,2.8604,2.8671,2.8845,2.9125,2.9192,2.9205,2.9118,2.8767,2.8811,2.8817,2.6601,2.5313,2.4623,2.3211,2.174,2.0129,0.0,0.0,0.0,0.0,0.0,0.0,0.0,0.0,2.5685,2.6657,2.623,2.6706,2.897,2.8509,2.8995,3.1212,3.2619,3.374,3.4665,3.5849,3.6723,3.7252,3.8599,3.8936,3.8094,3.896,3.896,3.7974,3.7974,3.8238,3.8719,3.8791,3.9008,3.932,3.8912,3.8118,3.706,3.6531,3.5785,3.4895,3.5352,3.5521,3.542,3.4834,3.4083,3.3396,3.3862,3.3095,3.1832,3.1636,3.1278,3.0728,2.9674,2.8927,2.8296,2.7459,2.7102,2.7031,2.7129,2.7988,2.9023,2.9785,3.0293,3.0918,0.0,3.248,3.2754,3.3613,3.416,3.4492,3.4492,3.2652,3.0899,3.0194,2.8681,2.7149,2.5796,2.6307,2.6629,2.6047,2.5625,2.5585,2.5879,2.6106,2.6386,2.6747,2.6987,2.7161,2.7268,2.7228,2.7362,2.7682,2.7696,2.7843,2.8221,2.8221,2.8221,2.8221,2.8221,2.831,2.8617,2.8871,2.9152,2.9446,2.9713,2.982,2.9641,2.7988,2.7267,2.7111,2.5071,2.3135,2.151,2.0971,2.0577,2.0129,0.0,0.0,0.0,0.0,0.0,0.0,0.0,0.0,0.0,0.0,2.6453,2.7088,2.7795,2.8625,2.9411,3.0209,3.2385,3.3884,3.4314,3.5943,3.7108,3.7637,3.7998,3.8142,3.7974,3.8118,3.8142,3.7974,3.7974,3.8094,3.8334,3.8334,3.8286,3.8214,3.8286,3.7902,3.7156,3.6627,3.6314,3.617,3.5785,3.5809,3.597,3.5312,3.4094,3.2766,3.3205,3.2936,0.0,3.1305,3.0884,3.0464,2.912,2.8733,2.8675,2.8579,2.8672,2.8984,2.9492,3.0019,3.0586,3.1191,3.168,3.2207,3.2988,3.3359,3.3789,3.4668,3.498,3.491,3.4315,3.2577,3.1021,3.0192,2.819,2.6766,2.6697,2.6513,2.6394,2.6278,2.6253,2.6319,2.6453,2.6573,2.6827,2.7295,2.7295,2.7415,2.7846,2.7615,2.7655,2.7949,2.7963,2.81,2.8221,2.8221,2.7709,2.6755,2.7892,2.8042,2.741,2.8706,2.8827,2.8092,2.8115,2.7521,2.6525,2.6876,2.6332,2.515,2.4328,2.277,2.1093,2.0922,2.0125,1.9044,0.0,0.0,0.0,0.0,0.0,0.0,0.0,0.0,0.0,0.0,2.6685,2.7262,2.6971,2.8672,2.9647,2.931,3.1806,3.3406,3.3572,3.5588,3.694,3.73,3.7517,3.7613,3.7541,3.7613,3.7685,3.7757,3.7902,3.7974,3.7974,3.7974,3.7781,3.7421,3.7805,3.7685,3.7156,3.6795,3.6771,3.6916,3.629,3.6042,3.5872,3.5191,3.379,3.2177,3.2545,3.2276,3.1665,3.0792,3.0418,3.0133,2.9139,2.8945,2.918,2.9609,3.0137,3.0762,3.1621,3.1953,3.2148,3.2578,3.3008,3.3437,3.3867,3.4199,3.4648,3.541,3.523,3.4717,3.4061,3.2152,3.0535,2.9911,2.7889,2.653,2.7105,2.665,2.6279,2.648,2.676,2.6974,2.7054,2.7068,2.7281,2.7789,2.7629,2.7779,2.8207,2.7936,2.7923,2.8221,2.8221,2.7968,2.7448,2.7448,2.6774,2.5589,2.6548,2.6711,2.6351,2.7334,2.7241,2.6136,2.6053,2.5207,2.394,2.4845,2.4437,2.3044,2.2495,2.1525,2.0288,2.0288,1.9369,1.8176,0.0,0.0,0.0,0.0,0.0,0.0,0.0,0.0,0.0,0.0,0.0,0.0,0.0,2.8453,2.9289,2.9223,3.0789,3.1964,3.2397,3.4473,3.5665,3.5689,3.7661,3.8046,3.6483,3.7974,3.8262,3.7204,3.7733,3.7974,3.7974,3.7974,3.7974,3.795,3.7974,3.7685,3.7204,3.718,3.6892,3.6459,3.6964,3.6251,3.4762,3.4124,3.2856,3.1483,3.1885,3.0721,2.9117,2.9939,2.9939,2.9665,3.0019,2.9863,2.9629,3.0059,3.0801,3.166,3.2519,3.3066,3.3476,3.3906,3.4336,3.4766,3.5234,3.5351,3.5488,3.5918,3.4815,3.3941,3.4134,3.1464,2.9229,2.9382,2.8017,2.6847,2.6479,2.6627,2.68,2.6814,2.7068,2.7362,2.7642,2.7669,2.7802,2.8194,2.8207,2.8207,2.8221,2.8221,2.8221,2.8221,2.8221,2.7363,2.547,2.547,2.547,2.5397,2.3578,2.3885,2.5808,2.4382,2.374,2.3868,2.3718,2.3609,2.3354,2.1581,2.081,2.0718,1.8826,1.8207,1.8269,1.8269,1.8269,1.8176,0.0,0.0,0.0,0.0,0.0,0.0,0.0,0.0,0.0,0.0,0.0,0.0,0.0,0.0,0.0,0.0,3.1273,3.2306,3.2463,3.3744,3.4679,3.5039,3.6122,3.6603,3.6411,3.694,3.7204,3.7204,3.7012,3.694,3.6916,3.6579,3.6411,3.6411,3.6411,3.6314,3.6146,3.6146,3.6242,3.6386,3.6218,3.5608,3.471,3.394,3.2693,3.1402,0.0,3.0596,2.9805,3.0098,3.0098,3.0,3.0156,3.0312,3.0644,3.1621,3.2324,3.291,3.3476,3.375,3.4023,3.4766,3.5059,3.5273,3.5703,3.5801,3.5569,3.4727,3.4126,3.3173,3.1236,2.9729,2.8505,2.798,2.7037,2.6397,2.6627,2.66,2.66,2.68,2.7081,2.7308,2.7402,2.7762,2.8114,2.8221,2.8221,2.8221,2.8221,2.7949,2.7843,2.7843,2.6562,2.5545,2.495,2.394,2.2824,2.177,2.1467,2.2428,2.443,2.254,2.172,2.1789,2.171,2.0881,1.9599,2.0318,1.9825,1.8712,1.9436,1.8945,1.8001,1.9261,1.8906,1.7851,0.0,0.0,0.0,0.0,0.0,0.0,0.0,0.0,0.0,0.0,0.0,0.0,0.0,0.0,0.0,0.0,0.0,3.1529,3.1889,3.2899,3.3717,3.4246,3.4968,3.5497,3.5833,3.6026,3.6386,3.6916,3.6579,3.6507,3.6675,3.6146,3.5905,3.5905,3.5905,3.5905,3.5905,3.5905,3.6224,3.6685,3.5703,3.4895,3.4161,3.3009,3.1713,0.0,3.0441,3.0332,3.0234,3.0566,3.0664,3.0703,3.0859,3.1309,3.2012,3.3144,3.3789,3.4219,3.4648,3.4766,3.4902,3.5469,3.5605,3.5549,3.5256,3.5606,3.5451,3.3415,3.3105,3.2385,3.0018,2.8526,2.7671,2.7551,2.6553,2.605,2.6598,2.6439,2.6346,2.664,2.6841,2.7041,2.7241,2.7709,2.7989,2.7989,2.7989,2.7989,2.7989,2.7802,2.7363,2.6768,2.6191,2.5308,2.3958,2.3013,2.1358,1.9052,2.0107,2.0961,2.1618,2.027,1.9698,1.9698,1.9626,1.8772,1.7543,1.8777,1.8642,1.7641,1.8971,1.8656,1.773,1.9068,1.8716,1.7672,0.0,0.0,0.0,0.0,0.0,0.0,0.0,0.0,0.0,0.0,0.0,0.0,0.0,0.0,0.0,0.0,0.0,0.0,3.0778,3.1793,3.2635,3.3188,3.4174,3.4679,3.4751,3.528,3.5785,3.629,3.6266,3.6507,3.7012,3.6456,3.6189,3.6213,3.6162,3.6162,3.6162,3.6162,3.652,3.694,3.5276,3.3976,3.2897,3.1249,2.991,2.8906,2.9375,2.9805,3.0293,3.1152,3.1484,3.1601,3.2051,3.2793,3.3652,3.4453,3.5039,3.5508,3.5918,3.6016,3.6016,3.6016,3.5947,3.5519,3.4126,3.4834,3.4952,3.2,3.1657,3.151,3.0277,2.8,2.6692,2.8011,2.6716,2.5751,2.6434,2.6243,2.6052,2.636,2.6386,2.6613,2.7188,2.7522,2.7696,2.7503,2.7613,2.7722,2.7556,2.7543,2.6768,2.4903,2.6761,2.6029,2.2503,2.2587,2.0891,1.764,1.941,1.9427,1.79,1.7713,1.7624,1.7616,1.7461,1.7283,1.7112,1.7112,1.7218,1.7372,1.7372,1.7469,1.7616,1.7616,1.7616,1.7616,0.0,0.0,0.0,0.0,0.0,0.0,0.0,0.0,0.0,0.0,0.0,0.0,0.0,0.0,0.0,0.0,0.0,0.0,2.9677,3.0326,3.112,3.2078,3.2731,3.3452,3.4174,3.4318,3.4462,3.4583,3.427,3.4342,3.4799,3.385,3.3621,3.3993,3.3164,3.2808,3.2808,3.2808,3.2893,3.3033,3.2199,3.127,3.0243,2.9839,2.8946,2.8086,2.8828,2.9355,2.9805,3.0351,3.0976,3.1641,3.2402,3.3437,3.4414,3.4629,3.5254,3.5879,3.5996,3.6016,3.6016,3.6016,3.5177,3.4264,3.3918,3.3206,3.207,3.0162,2.9887,2.9561,2.8399,2.6936,2.6224,2.6988,2.6033,2.5367,2.5738,2.5702,2.5812,2.6333,2.6386,2.6533,2.6894,2.7402,2.7022,2.5455,2.7012,2.7428,2.6052,2.5769,2.4819,2.2954,2.2001,2.102,2.0099,1.9086,1.8211,1.764,1.7951,1.7984,1.7705,1.7534,1.7453,1.7445,1.7404,1.7283,1.7112,1.7112,1.7136,1.7177,1.7177,1.721,1.725,1.725,1.725,1.725,0.0,0.0,0.0,0.0,0.0,0.0,0.0,0.0,0.0,0.0,0.0,0.0,0.0,0.0,0.0,0.0,0.0,0.0,0.0,2.9581,3.011,3.097,3.1504,3.2178,3.2971,3.3236,3.3646,3.4342,3.3645,3.3669,3.4342,3.2996,3.2684,3.3165,3.1873,3.145,3.1649,3.1202,3.1178,0.0,0.0,2.9692,2.9338,2.8571,2.805,2.7787,2.8203,2.8769,2.9434,3.043,3.123,3.2012,3.3242,3.4121,3.4766,3.5156,3.5625,3.6016,3.6016,3.6016,3.6016,3.6016,3.4883,3.3623,3.2927,3.2141,3.0872,2.8676,2.8872,2.9091,2.791,2.6626,2.6112,2.7036,2.5917,2.5058,2.5505,2.5469,2.5491,2.5945,2.5361,2.5046,2.5455,2.5256,2.4674,2.3442,2.549,2.5977,2.409,2.3879,2.287,2.1003,2.0812,2.038,1.9711,1.89,1.8199,1.7762,1.7583,1.7551,1.764,1.7543,1.7461,1.7388,1.7388,1.7283,1.7112,1.7112,1.7112,1.7112,1.7112,1.7112,1.7112,1.7112,1.7112,1.7112,0.0,0.0,0.0,0.0,0.0,0.0,0.0,0.0,0.0,0.0,0.0,0.0,0.0,0.0,0.0,0.0,0.0,0.0,0.0,0.0,2.9436,2.9965,3.0422,3.0946,3.15,3.1937,3.2875,3.4294,3.3404,3.3501,3.4462,3.2806,3.2316,3.2817,3.1123,3.0685,3.1134,3.0241,3.0143,3.0512,2.8942,2.8681,2.8984,0.0,2.709,2.7493,2.765,2.8203,2.918,3.0937,3.1777,3.2363,3.4023,3.4609,3.4844,3.5625,3.5937,3.6016,3.6016,3.6016,3.6016,3.6016,3.4746,3.3206,3.207,3.1367,3.0233,2.7768,2.8431,2.9016,2.8043,2.6786,2.6214,2.7335,2.5957,2.4851,2.5439,2.5208,2.5055,2.5106,2.3843,2.3045,2.3389,2.2512,2.1817,2.1599,2.3241,2.3557,2.198,2.1895,2.1044,1.918,2.0892,2.1259,1.9965,1.9827,1.9133,1.7843,1.7681,1.7607,1.7607,1.7583,1.7494,1.7348,1.7348,1.7258,1.7112,1.7112,1.7112,1.7112,1.7112,1.7112,1.7112,1.7112,1.7112,1.7024,0.0,0.0,0.0,0.0,0.0,0.0,0.0,0.0,0.0,0.0,0.0,0.0,0.0,0.0,0.0,0.0,0.0,0.0,0.0,0.0,0.0,2.9412,2.9532,2.9821,3.035,3.0446,3.0855,3.1553,3.1384,3.1841,3.2853,3.0825,3.0127,3.0581,2.8569,2.7712,2.7804,2.7652,2.7629,2.7641,2.7041,2.6861,2.6875,2.6211,0.0,0.0,2.7285,2.8203,2.918,3.0937,3.1562,3.1875,3.3223,3.4121,3.4726,3.4883,3.5449,3.6016,3.6016,3.6016,3.6016,3.6016,3.39,3.2141,3.3206,3.0463,2.7985,2.8676,2.8088,2.7452,2.757,2.6878,2.6296,2.6157,2.5543,2.4937,2.4528,2.4556,2.4289,2.3353,2.3028,2.2494,2.1613,2.1676,2.1138,1.9755,2.0213,2.0495,2.0327,2.0337,1.9479,1.758,1.7868,1.7919,1.7634,1.7759,1.777,1.7478,1.7445,1.7429,1.7429,1.7274,1.7185,1.7161,1.7161,1.7136,1.7112,1.7112,1.7112,1.7112,1.7112,1.7112,1.7112,1.7112,1.7112,1.6841,0.0,0.0,0.0,0.0,0.0,0.0,0.0,0.0,0.0,0.0,0.0,0.0,0.0,0.0,0.0,0.0,0.0,0.0,0.0,0.0,0.0,0.0,0.0,0.0,2.9677,2.9941,3.035,3.0922,0.0,3.0879,3.1629,2.9757,2.9217,2.9637,2.7586,2.6725,2.6758,2.6241,2.5879,2.5644,2.5449,2.5371,2.5371,0.0,0.0,0.0,2.6953,2.7734,2.8555,3.0527,3.1328,3.1777,3.3281,3.4199,3.4746,3.498,3.5508,3.6016,3.6016,3.6016,3.6016,3.6016,3.4165,3.2382,3.2595,3.0173,2.7844,2.8012,2.7478,2.7086,2.7422,2.6779,2.6184,2.6055,2.5478,2.4847,2.4422,2.4556,2.4113,2.2919,2.2075,2.1044,1.9885,1.925,1.857,1.7759,1.7963,1.8208,1.8392,1.8313,1.7871,1.6836,1.6836,1.6885,1.6974,1.6974,1.7063,1.7242,1.7153,1.7161,1.7242,1.7153,1.7112,1.7112,1.7112,1.7112,1.7112,1.7112,1.6489,1.5601,1.5601,1.5066,1.4088,1.4088,1.4088,1.4,0.0,0.0,0.0,0.0,0.0,0.0,0.0,0.0,0.0,0.0,0.0,0.0,0.0,0.0,0.0,0.0,0.0,0.0,0.0,0.0,0.0,0.0,0.0,0.0,2.9124,0.0,0.0,3.0585,3.0134,0.0,0.0,0.0,0.0,0.0,2.7043,2.624,2.6069,2.5298,2.4727,0.0,0.0,2.4414,2.4473,0.0,0.0,0.0,0.0,2.7363,2.8125,3.0195,3.123,3.1934,3.3457,3.4297,3.4785,3.5254,3.5684,3.6016,3.6016,3.5957,3.5811,3.5539,3.3954,3.2284,3.1478,2.9579,2.7934,2.7353,2.6995,2.6866,2.7115,2.6518,2.5998,2.5971,2.5382,2.4779,2.4516,2.4301,2.3616,2.2466,2.079,1.9363,1.8181,1.6982,1.6276,1.6357,1.6633,1.6868,1.7047,1.6893,1.673,1.6584,1.6584,1.6633,1.6653,1.6633,1.6698,1.6933,1.6877,1.6838,1.7055,1.7096,1.6841,1.6489,1.6489,1.6217,1.5866,1.5866,1.4977,1.3647,1.3647,1.2756,1.1427,1.1427,1.1427,1.1339,0.0,0.0,0.0,0.0,0.0,0.0,0.0,0.0,0.0,0.0,0.0,0.0,0.0,0.0,0.0,0.0,0.0,0.0,0.0,0.0,0.0,0.0,0.0,0.0,0.0,0.0,0.0,2.9436,2.9388,0.0,0.0,0.0,0.0,0.0,0.0,2.5406,2.4611,2.4519,0.0,0.0,0.0,0.0,0.0,0.0,0.0,0.0,0.0,2.7539,2.8516,3.0293,3.1445,3.2266,3.3184,3.4043,3.4785,3.5254,3.5684,3.6016,3.6016,3.5742,3.5181,3.3842,3.2087,3.065,3.0599,2.8334,2.6623,2.788,2.7059,2.612,2.6149,2.5984,2.5698,2.5115,2.5074,2.4956,2.4348,2.3199,2.1869,2.0539,1.906,1.7634,1.6336,1.6139,1.6202,1.6527,1.6584,1.6682,1.6782,1.6706,1.66,1.6584,1.6584,1.6511,1.6357,1.6503,1.6511,1.6381,1.6698,1.6774,1.6798,1.7039,1.613,1.453,1.453,1.3552,1.1959,1.1959,1.1782,1.1693,1.1693,1.1605,1.1427,1.1427,1.1427,1.1067,0.0,0.0,0.0,0.0,0.0,0.0,0.0,0.0,0.0,0.0,0.0,0.0,0.0,0.0,0.0,0.0,0.0,0.0,0.0,0.0,0.0,0.0,0.0,0.0,0.0,0.0,2.8619,2.8835,2.8835,0.0,0.0,0.0,0.0,0.0,0.0,2.64,2.529,2.4982,0.0,0.0,0.0,0.0,0.0,0.0,0.0,0.0,0.0,0.0,2.8223,3.0215,3.1289,3.1973,3.3066,3.3828,3.4414,3.4844,3.5469,3.5898,3.5371,3.4566,3.3623,3.2781,3.1136,2.9696,2.9255,2.8043,2.6932,2.6937,2.6424,2.6018,2.6018,2.5838,2.5513,2.5213,2.5077,2.4888,2.4777,2.4302,2.3015,2.0648,1.9824,1.8521,1.6097,1.5886,1.6032,1.6389,1.6316,1.6389,1.6674,1.6511,1.6414,1.6414,1.6316,1.6324,1.647,1.643,1.6487,1.6548,1.5564,1.5199,1.53,1.4196,1.3374,1.2638,1.2638,1.2277,1.1554,1.1554,1.0831,0.983,0.977,0.8844,0.7581,0.7531,0.6614,0.5271,0.0,0.0,0.0,0.0,0.0,0.0,0.0,0.0,0.0,0.0,0.0,0.0,0.0,0.0,0.0,0.0,0.0,0.0,0.0,0.0,0.0,0.0,0.0,0.0,0.0,0.0,2.8739,2.8739,2.8907,2.9172,0.0,0.0,2.912,2.9139,0.0,0.0,0.0,0.0,0.0,0.0,0.0,0.0,0.0,0.0,0.0,0.0,0.0,0.0,0.0,0.0,0.0,3.1719,3.2871,3.3535,3.3984,3.4531,3.5059,3.5246,3.4208,3.3124,3.1964,3.0882,2.963,2.8411,2.7552,2.7097,2.6663,2.5889,2.5725,2.5725,2.5586,2.531,2.513,2.5013,2.4778,2.4734,2.4951,2.4635,2.3567,2.149,2.0943,1.9692,1.6961,1.6253,1.6016,1.6211,1.6162,1.6235,1.6487,1.643,1.6381,1.6381,1.6267,1.6324,1.6576,1.5855,1.5655,1.5902,1.4027,1.3299,1.3439,1.213,1.1219,1.0784,1.0784,1.0417,0.9867,0.977,0.8577,0.6822,0.6589,0.5113,0.3104,0.3081,0.1984,0.045,0.0,0.0,0.0,0.0,0.0,0.0,0.0,0.0,0.0,0.0,0.0,0.0,0.0,0.0,0.0,0.0,0.0,0.0,0.0,0.0,0.0,0.0,0.0,0.0,0.0,0.0,2.9292,2.9292,2.9821,3.0086,3.0086,3.0086,2.9598,2.8697,0.0,0.0,0.0,0.0,0.0,0.0,0.0,0.0,0.0,0.0,0.0,0.0,0.0,0.0,0.0,0.0,0.0,0.0,0.0,3.3086,3.3594,3.4453,3.4414,3.3824,3.2488,3.1552,3.032,2.7982,2.703,2.6477,2.5383,2.5134,2.5134,2.5134,2.5134,2.4999,2.4578,2.4493,2.4386,2.4282,2.4224,2.4302,2.4596,2.3517,2.2794,2.2882,2.2032,2.0729,1.9002,1.7285,1.6227,1.6064,1.6202,1.63,1.6308,1.6479,1.6576,1.6576,1.6576,1.6576,1.6584,1.4678,1.3732,1.3738,1.2068,1.1225,1.1339,1.1463,1.0493,0.886,0.886,0.776,0.5921,0.5459,0.4067,0.2123,0.1569,0.0184,-0.1659,-0.1659,-0.1649,-0.1636,0.0,0.0,0.0,0.0,0.0,0.0,0.0,0.0,0.0,0.0,0.0,0.0,0.0,0.0,0.0,0.0,0.0,0.0,0.0,0.0,0.0,0.0,0.0,0.0,0.0,0.0,0.0,0.0,0.0,3.047,3.1211,3.085,3.0678,3.0727,3.0371,2.9532,0.0,0.0,0.0,0.0,0.0,0.0,0.0,0.0,0.0,0.0,0.0,0.0,0.0,0.0,0.0,0.0,0.0,0.0,0.0,3.332,3.3264,3.2833,3.1801,3.003,2.8374,2.824,2.6708,2.524,2.5113,2.5119,2.4984,2.4781,2.4713,2.4578,2.4224,2.3899,2.3859,2.4255,2.4062,2.4142,2.4836,2.3719,2.2437,2.1423,1.9115,1.727,1.6653,1.6419,1.6276,1.6227,1.6389,1.6544,1.6674,1.5519,1.5376,1.6677,1.5343,1.4786,1.5002,1.2979,1.2022,1.2103,1.0293,0.9518,0.9589,0.8255,0.7425,0.6886,0.5089,0.4051,0.3301,0.1413,0.0188,-0.0376,-0.0561,-0.1305,-0.2142,-0.2127,-0.3864,-0.6138,0.0,0.0,0.0,0.0,0.0,0.0,0.0,0.0,0.0,0.0,0.0,0.0,0.0,0.0,0.0,0.0,0.0,0.0,0.0,0.0,0.0,0.0,0.0,0.0,0.0,0.0,0.0,0.0,0.0,0.0,0.0,0.0,3.2346,3.2295,3.1937,3.116,0.0,0.0,0.0,0.0,0.0,0.0,0.0,0.0,0.0,0.0,0.0,0.0,0.0,0.0,0.0,0.0,0.0,0.0,0.0,0.0,3.1477,3.1026,3.0524,2.8987,2.7507,2.7149,2.5859,2.4723,2.5046,2.5119,2.5052,2.4781,2.4631,2.4428,2.4034,2.3873,2.3843,2.4205,2.4165,2.411,2.422,2.355,2.2557,2.1166,1.8603,1.6923,1.6961,1.656,1.6332,1.6405,1.5887,1.5691,1.5711,1.4015,1.3517,1.4748,1.3513,1.2942,1.3198,1.118,1.0298,1.0362,0.8409,0.7606,0.7668,0.6288,0.5237,0.4569,0.2759,0.1614,0.0,-0.104,-0.255,-0.3772,-0.4029,-0.5155,-0.6579,-0.6631,-0.8177,-1.0354,0.0,0.0,0.0,0.0,0.0,0.0,0.0,0.0,0.0,0.0,0.0,0.0,0.0,0.0,0.0,0.0,0.0,0.0,0.0,0.0,0.0,0.0,0.0,0.0,0.0,0.0,0.0,0.0,3.3526,3.4006,3.4054,0.0,0.0,3.3332,3.3332,3.244,0.0,0.0,0.0,0.0,0.0,0.0,0.0,0.0,0.0,0.0,0.0,0.0,0.0,0.0,0.0,0.0,0.0,0.0,0.0,0.0,0.0,0.0,0.0,2.8315,2.7544,2.5302,2.4731,2.4686,2.4979,2.5052,0.0,2.4984,2.4713,2.4306,2.3994,2.4122,2.4191,2.4227,2.4436,2.411,2.2863,2.2734,2.2476,2.1576,1.981,1.8773,1.8876,1.7246,1.6161,1.6244,1.4765,1.3807,1.3807,1.2161,1.1161,1.1161,1.1072,1.1072,1.1161,0.9295,0.8409,0.8319,0.6368,0.5444,0.5552,0.4997,0.374,0.1998,0.1331,0.0,-0.178,-0.2438,-0.4774,-0.7846,-0.8315,-1.0614,-1.3639,-1.3833,-1.3852,-1.4078,0.0,0.0,0.0,0.0,0.0,0.0,0.0,0.0,0.0,0.0,0.0,0.0,0.0,0.0,0.0,0.0,0.0,0.0,0.0,0.0,0.0,0.0,0.0,0.0,0.0,0.0,0.0,3.3622,3.3886,3.4198,3.4607,3.4727,0.0,0.0,0.0,0.0,0.0,0.0,0.0,0.0,0.0,0.0,0.0,0.0,0.0,0.0,0.0,0.0,0.0,0.0,0.0,0.0,0.0,0.0,0.0,0.0,2.9763,0.0,2.7366,0.0,2.7178,2.6694,2.5792,2.4897,0.0,2.4645,2.4495,2.3884,2.3747,2.3612,2.3513,2.348,2.3665,2.4115,2.4262,2.381,2.2507,2.045,1.8795,1.7701,1.7236,1.6384,1.4989,1.4678,1.396,1.2606,1.2196,1.2002,1.2002,1.0259,0.9299,0.9299,0.7788,0.7788,0.921,0.7342,0.6183,0.5825,0.3791,0.2736,0.2402,0.0744,-0.0188,-0.076,-0.2755,-0.3984,-0.4639,-0.7855,-0.9611,-1.039,-1.1687,-1.2575,-1.345,-1.5107,-1.6413,-1.7644,0.0,0.0,0.0,0.0,0.0,0.0,0.0,0.0,0.0,0.0,0.0,0.0,0.0,0.0,0.0,0.0,0.0,0.0,0.0,0.0,0.0,0.0,0.0,0.0,0.0,0.0,0.0,0.0,0.0,3.5761,0.0,0.0,0.0,0.0,0.0,0.0,0.0,0.0,0.0,0.0,0.0,0.0,0.0,0.0,0.0,0.0,0.0,0.0,0.0,2.957,2.9203,2.8523,0.0,0.0,0.0,0.0,2.8307,0.0,2.6309,2.6263,2.6577,2.6105,2.5419,2.4809,2.4535,2.4495,2.436,2.3816,2.3653,2.3597,2.3566,2.253,2.2211,2.4123,2.2608,2.1071,2.0473,1.8413,1.6529,1.5241,1.5103,1.4379,1.2592,1.2613,1.233,1.133,1.0593,1.0095,1.0095,0.8141,0.6984,0.6984,0.5739,0.5739,0.7256,0.6007,0.4841,0.3673,0.2353,0.1097,0.0,-0.1305,-0.2448,-0.342,-0.5697,-0.7197,-0.83,-1.1126,-1.269,-1.3369,-1.4203,-1.5384,-1.6934,-1.8033,-1.963,-2.1514,0.0,0.0,0.0,0.0,0.0,0.0,0.0,0.0,0.0,0.0,0.0,0.0,0.0,0.0,0.0,0.0,0.0,0.0,0.0,0.0,0.0,0.0,0.0,0.0,0.0,0.0,0.0,0.0,0.0,0.0,0.0,0.0,0.0,0.0,0.0,0.0,0.0,0.0,0.0,0.0,0.0,0.0,0.0,0.0,0.0,0.0,0.0,0.0,0.0,2.9726,2.9127,2.8165,2.8682,0.0,0.0,0.0,0.0,0.0,2.5266,2.5469,2.5621,2.4811,2.4569,2.459,2.4424,2.4428,2.4306,2.3954,2.3818,2.3676,2.3253,2.1486,2.0814,2.3091,2.0016,1.7318,1.7315,1.5975,1.4502,1.3212,1.3068,1.2368,1.0665,1.0513,1.0527,1.0352,0.885,0.7963,0.7963,0.6004,0.4933,0.4933,0.4216,0.4216,0.5022,0.4662,0.3495,0.1525,0.0725,-0.0549,-0.2219,-0.327,-0.4715,-0.6364,-0.8353,-1.0108,-1.1817,-1.3307,-1.4778,-1.6228,-1.6505,-1.8593,-2.1476,-2.1791,-2.3258,-2.5569,0.0,0.0,0.0,0.0,0.0,0.0,0.0,0.0,0.0,0.0,0.0,0.0,0.0,0.0,0.0,0.0,0.0,0.0,0.0,0.0,0.0,0.0,0.0,0.0,0.0,0.0,0.0,0.0,0.0,0.0,3.7998,3.8839,3.8153,0.0,0.0,0.0,0.0,0.0,0.0,0.0,2.6133,0.0,0.0,0.0,0.0,0.0,0.0,0.0,0.0,2.8945,2.8273,2.734,2.8129,0.0,0.0,0.0,0.0,0.0,2.4224,2.3887,2.4014,2.4481,2.4569,2.4523,2.4167,2.4102,2.3967,2.3485,2.3426,2.273,2.0436,2.0789,2.0814,1.8717,1.6401,1.4444,1.3459,1.1482,1.0206,1.0437,1.0417,0.963,0.7891,0.7802,0.7146,0.5467,0.5112,0.4933,0.4933,0.4576,0.4397,0.4397,0.2779,0.1882,0.206,0.197,0.072,-0.1632,-0.339,-0.4722,-0.5517,-0.8586,-1.0149,-1.0545,-1.215,-1.3087,-1.3451,-1.4946,-1.6532,-1.8309,-1.9514,-2.1329,-2.3372,-2.5204,-2.7305,-3.0216,0.0,0.0,0.0,0.0,0.0,0.0,0.0,0.0,0.0,0.0,0.0,0.0,0.0,0.0,0.0,0.0,0.0,0.0,0.0,0.0,0.0,0.0,0.0,0.0,0.0,0.0,0.0,0.0,0.0,3.9296,3.9272,3.9224,3.7838,3.5359,0.0,0.0,0.0,0.0,0.0,0.0,0.0,0.0,0.0,0.0,0.0,0.0,0.0,0.0,0.0,0.0,2.8028,2.7121,2.7706,0.0,0.0,0.0,0.0,0.0,2.4001,2.3839,2.3687,2.3192,2.2928,2.2512,2.1641,2.1381,2.1538,2.2132,2.1652,2.0787,1.9547,1.7907,1.5725,1.2599,1.2828,1.2947,1.1207,1.0195,0.9226,0.8272,0.8129,0.7476,0.5726,0.5609,0.5288,0.4397,0.4307,0.4307,0.4307,0.3049,0.2331,0.2331,0.0179,-0.1436,-0.2527,-0.2527,-0.2985,-0.3909,-0.5997,-0.7638,-0.8991,-1.1533,-1.2627,-1.2722,-1.4228,-1.5535,-1.6644,-1.8144,-1.9846,-2.1582,-2.2242,-2.3726,-2.5799,-2.9122,-3.3123,-3.7453,0.0,0.0,0.0,0.0,0.0,0.0,0.0,0.0,0.0,0.0,0.0,0.0,0.0,0.0,0.0,0.0,0.0,0.0,0.0,0.0,0.0,0.0,0.0,0.0,0.0,0.0,3.7517,3.819,3.9657,4.0451,4.0571,3.9753,3.7956,0.0,0.0,0.0,0.0,0.0,0.0,0.0,0.0,0.0,0.0,0.0,0.0,0.0,0.0,0.0,0.0,0.0,0.0,0.0,0.0,0.0,0.0,2.4547,2.42,2.3896,2.4218,2.4232,2.3819,2.2347,2.1982,2.1462,1.9628,1.9562,2.0032,2.074,1.9768,1.8715,1.8394,1.4718,1.0939,0.8427,0.9801,1.0486,0.8579,0.8248,0.7665,0.5986,0.5865,0.5314,0.3971,0.3924,0.3949,0.3949,0.3949,0.3769,0.3319,0.1523,0.0358,-0.009,-0.2424,-0.433,-0.5908,-0.6756,-0.6955,-0.6681,-0.8262,-1.0017,-1.1927,-1.3527,-1.451,-1.4973,-1.6471,-1.8228,-2.0168,-2.1287,-2.2954,-2.4785,-2.5298,-2.7009,-2.9793,-3.4006,-3.8679,-4.2988,0.0,0.0,0.0,0.0,0.0,0.0,0.0,0.0,0.0,0.0,0.0,0.0,0.0,0.0,0.0,0.0,0.0,0.0,0.0,0.0,0.0,0.0,0.0,0.0,0.0,3.6122,3.7709,3.8767,3.985,4.0643,4.1124,4.1052,3.9779,3.7494,0.0,0.0,0.0,0.0,0.0,0.0,0.0,0.0,0.0,0.0,0.0,0.0,0.0,0.0,0.0,0.0,0.0,0.0,0.0,0.0,2.5675,2.3808,2.3828,2.4569,2.4973,2.4721,2.4095,2.2834,2.3415,2.3365,1.9945,2.0484,2.1306,1.9823,1.8218,1.6749,1.5683,1.2443,0.9727,0.9317,0.7625,0.5707,0.4025,0.3446,0.3221,0.3119,0.3042,0.3057,0.2914,0.2945,0.2964,0.2964,0.2964,0.2244,0.0448,0.0179,-0.0806,-0.2598,-0.4609,-0.5724,-0.5908,-0.9254,-1.0928,-1.083,-1.1036,-1.1937,-1.3557,-1.5073,-1.6744,-1.8592,-2.0085,-2.185,-2.3677,-2.3779,-2.4967,-2.6966,-2.9128,-3.2471,-3.6539,-4.0618,-4.2449,-4.3519,0.0,0.0,0.0,0.0,0.0,0.0,0.0,0.0,0.0,0.0,0.0,0.0,0.0,0.0,0.0,0.0,0.0,0.0,0.0,0.0,0.0,0.0,0.0,3.3837,3.4943,3.7108,3.8575,3.932,4.0355,4.0812,4.0691,4.0691,0.0,0.0,0.0,0.0,0.0,0.0,0.0,0.0,0.0,0.0,0.0,0.0,0.0,0.0,0.0,0.0,0.0,0.0,2.7799,2.7099,2.6495,2.5765,2.5004,2.4611,2.4535,2.4686,2.5213,2.4302,2.3157,2.3001,2.3021,2.2178,1.8717,1.8434,1.8832,1.8461,1.6116,1.3769,1.2529,0.9063,0.6777,0.8117,0.6183,0.4316,0.3444,0.3218,0.3078,0.2865,0.28,0.2823,0.2853,0.179,0.1077,0.1077,0.0,-0.0986,-0.1792,-0.2867,-0.3953,-0.4699,-0.7526,-0.9139,-0.9254,-1.1557,-1.3132,-1.4145,-1.4145,-1.5099,-1.7017,-1.8423,-2.0178,-2.2106,-2.2668,-2.4043,-2.5878,-2.6139,-2.8115,-3.1245,-3.3481,-3.6887,-4.072,-4.2201,-4.5068,-4.8567,0.0,0.0,0.0,0.0,0.0,0.0,0.0,0.0,0.0,0.0,0.0,0.0,0.0,0.0,0.0,0.0,0.0,0.0,0.0,0.0,0.0,0.0,0.0,3.427,3.5833,3.7805,3.9152,3.985,4.0908,4.1172,4.0643,0.0,0.0,0.0,0.0,0.0,0.0,0.0,0.0,0.0,0.0,0.0,0.0,0.0,0.0,0.0,0.0,0.0,0.0,0.0,2.7074,2.6373,2.5993,2.5286,2.459,2.4812,2.4301,2.3831,2.4551,2.3249,2.1795,2.2203,2.198,2.0717,1.7256,1.6823,1.6935,1.6223,1.4306,1.2095,0.9966,0.7621,0.6309,0.7071,0.5164,0.3425,0.321,0.3151,0.2838,0.2006,0.1935,0.1685,0.1165,-0.0179,-0.0897,-0.0897,-0.215,-0.3136,-0.3762,-0.546,-0.6742,-0.745,-1.0292,-1.1775,-1.1971,-1.3505,-1.5158,-1.6845,-1.7312,-1.8237,-1.9613,-2.1287,-2.3137,-2.4967,-2.5138,-2.6671,-2.9027,-2.9552,-3.2014,-3.5793,-3.7896,-4.0822,-4.407,-4.5089,-4.7935,-5.1578,0.0,0.0,0.0,0.0,0.0,0.0,0.0,0.0,0.0,0.0,0.0,0.0,0.0,0.0,0.0,0.0,0.0,0.0,0.0,0.0,0.0,0.0,0.0,3.4727,3.6362,3.7974,3.9345,4.0403,4.1461,4.1701,4.1148,4.0643,0.0,0.0,0.0,0.0,0.0,0.0,0.0,0.0,0.0,0.0,0.0,0.0,0.0,0.0,0.0,0.0,0.0,0.0,2.6098,2.6007,2.413,2.4111,2.4703,2.3881,2.2724,2.2023,2.2813,2.1498,2.0062,2.0559,2.0375,1.9224,1.5879,1.6247,1.6402,1.3168,1.292,1.2087,0.8322,0.8679,0.8871,0.6704,0.4336,0.2703,0.2648,0.2652,0.1983,0.0176,0.0,-0.0797,-0.2685,-0.2956,-0.2956,-0.2956,-0.2956,-0.3762,-0.5644,-0.7153,-0.8888,-1.0991,-1.2557,-1.3419,-1.3555,-1.5186,-1.6931,-1.8964,-2.0455,-2.1111,-2.1213,-2.3137,-2.515,-2.7057,-2.7587,-2.9909,-3.3468,-3.3994,-3.6572,-4.0493,-4.2239,-4.4253,-4.6727,-5.0109,-5.1293,-5.1884,0.0,0.0,0.0,0.0,0.0,0.0,0.0,0.0,0.0,0.0,0.0,0.0,0.0,0.0,0.0,0.0,0.0,0.0,0.0,0.0,0.0,0.0,0.0,0.0,0.0,0.0,3.9513,4.0956,4.1268,4.0956,0.0,0.0,0.0,3.7208,0.0,0.0,0.0,0.0,0.0,0.0,0.0,0.0,0.0,0.0,0.0,0.0,0.0,0.0,0.0,0.0,0.0,0.0,2.3847,2.353,2.3286,2.3499,2.3431,2.347,2.419,2.2025,1.9801,2.0594,1.859,1.6008,1.4112,1.5693,1.6344,1.1842,0.9876,0.8711,0.775,0.6275,0.5435,0.624,0.4296,0.228,0.0938,0.0688,0.0,-0.1849,-0.2042,-0.2233,-0.2867,-0.412,-0.5281,-0.6344,-0.7599,-0.9117,-1.0722,-1.1236,-1.1877,-1.2562,-1.4245,-1.5767,-1.7304,-1.8761,-2.0548,-2.2474,-2.4317,-2.5229,-2.532,-2.6229,-2.8385,-3.1511,-3.2043,-3.3526,-3.6053,-3.9035,-4.1157,-4.2875,-4.5878,-4.8158,-4.9953,-5.127,-5.2862,-5.4741,0.0,0.0,0.0,0.0,0.0,0.0,0.0,0.0,0.0,0.0,0.0,0.0,0.0,0.0,0.0,0.0,0.0,0.0,0.0,0.0,0.0,0.0,0.0,0.0,0.0,3.7613,3.896,0.0,0.0,0.0,0.0,0.0,0.0,3.6342,0.0,3.4992,0.0,0.0,0.0,0.0,0.0,0.0,0.0,0.0,0.0,0.0,0.0,0.0,0.0,0.0,0.0,0.0,2.3018,2.2856,2.2599,2.2465,2.2109,2.1665,2.1029,1.8737,1.6647,1.6632,1.4932,1.2979,1.2162,1.2881,1.2678,0.8986,0.7774,0.7166,0.647,0.5376,0.468,0.515,0.3176,0.1119,0.0,-0.0788,-0.1941,-0.3833,-0.4025,-0.4568,-0.5904,-0.6981,-0.8315,-0.9731,-1.09,-1.1993,-1.2936,-1.3637,-1.4049,-1.4251,-1.6536,-1.8417,-1.9807,-2.1379,-2.3666,-2.6545,-2.7808,-2.9244,-3.0848,-3.0253,-3.1763,-3.4853,-3.6053,-3.7656,-3.968,-4.2919,-4.4743,-4.5898,-4.889,-5.0539,-5.1453,-5.3067,-5.4497,-5.5906,0.0,0.0,0.0,0.0,0.0,0.0,0.0,0.0,0.0,0.0,0.0,0.0,0.0,0.0,0.0,0.0,0.0,0.0,0.0,0.0,0.0,0.0,0.0,0.0,0.0,0.0,0.0,0.0,0.0,0.0,0.0,0.0,3.7601,3.614,0.0,3.3644,0.0,0.0,0.0,0.0,0.0,0.0,0.0,0.0,0.0,0.0,0.0,0.0,0.0,0.0,0.0,0.0,2.1875,2.2111,2.2328,2.1219,1.9842,1.818,1.584,1.3944,1.2262,1.0884,1.0287,0.9931,0.9943,0.8599,0.7039,0.5605,0.6322,0.6627,0.4959,0.5257,0.526,0.3483,0.114,-0.0532,-0.0716,-0.2152,-0.4052,-0.6093,-0.6227,-0.7438,-1.0654,-1.0916,-1.1527,-1.2952,-1.3141,-1.3197,-1.3495,-1.4965,-1.5933,-1.6221,-1.9441,-2.137,-2.1922,-2.3666,-2.6713,-3.0956,-3.0956,-3.3173,-3.7003,-3.4766,-3.5099,-3.7501,-3.9818,-4.2065,-4.411,-4.6041,-4.7645,-4.9182,-5.1278,-5.1891,-5.1895,-5.5092,-5.6014,-5.6193,0.0,0.0,0.0,0.0,0.0,0.0,0.0,0.0,0.0,0.0,0.0,0.0,0.0,0.0,0.0,0.0,0.0,0.0,0.0,0.0,0.0,0.0,0.0,0.0,0.0,0.0,0.0,0.0,0.0,0.0,0.0,0.0,0.0,3.3989,0.0,3.325,0.0,0.0,0.0,0.0,0.0,0.0,0.0,0.0,0.0,0.0,0.0,0.0,0.0,0.0,0.0,0.0,2.1657,2.1772,2.189,2.1832,2.089,1.9831,1.9414,1.7539,1.511,1.2525,0.9202,0.6496,0.6371,0.6092,0.607,0.7125,0.5979,0.4626,0.4208,0.2572,0.1131,0.0782,-0.1139,-0.301,-0.4474,-0.5051,-0.6546,-0.9643,-0.9844,-1.05,-1.2382,-1.2473,-1.3034,-1.4448,-1.4654,-1.5273,-1.639,-1.8428,-1.9616,-1.9697,-2.2049,-2.4957,-2.8373,-2.8834,-3.1147,-3.5415,-3.5415,-3.6883,-3.948,-3.7518,-3.8595,-4.2193,-4.4149,-4.6041,-4.7783,-4.9853,-5.0657,-5.0795,-5.2851,-5.4056,-5.4561,-5.5644,-5.7112,-5.8629,0.0,0.0,0.0,0.0,0.0,0.0,0.0,0.0,0.0,0.0,0.0,0.0,0.0,0.0,0.0,0.0,0.0,0.0,0.0,0.0,0.0,0.0,0.0,0.0,0.0,0.0,0.0,0.0,0.0,0.0,0.0,0.0,0.0,3.2773,0.0,3.2555,0.0,0.0,0.0,0.0,0.0,0.0,0.0,0.0,0.0,0.0,0.0,0.0,0.0,0.0,0.0,0.0,0.0,0.0,2.0227,1.9687,1.8894,1.7838,1.6529,1.4758,1.2585,0.9661,0.7111,0.5341,0.5338,0.5169,0.5007,0.5106,0.4469,0.3658,0.2577,0.1047,-0.0353,-0.1331,-0.3134,-0.4796,-0.5853,-0.7445,-0.9232,-1.0956,-1.1635,-1.2519,-1.4047,-1.4004,-1.4571,-1.6075,-1.7121,-1.8046,-1.896,-2.1038,-2.2816,-2.3965,-2.5998,-2.8655,-3.2075,-3.2983,-3.5123,-3.8459,-3.9324,-4.1324,-4.4355,-4.2544,-4.3433,-4.6361,-4.7385,-4.8833,-5.063,-5.1476,-5.2478,-5.3693,-5.4702,-5.5592,-5.64,-5.7504,-5.8547,-5.9639,0.0,0.0,0.0,0.0,0.0,0.0,0.0,0.0,0.0,0.0,0.0,0.0,0.0,0.0,0.0,0.0,0.0,0.0,0.0,0.0,0.0,0.0,0.0,0.0,0.0,0.0,0.0,0.0,0.0,0.0,0.0,0.0,0.0,3.1953,0.0,0.0,0.0,0.0,0.0,0.0,0.0,0.0,0.0,0.0,0.0,0.0,0.0,0.0,0.0,0.0,0.0,0.0,0.0,0.0,1.8238,1.7117,1.6185,1.5022,1.2733,1.0834,0.8868,0.6261,0.5412,0.5225,0.5287,0.471,0.3625,0.2044,0.2652,0.2758,0.0527,-0.0445,-0.1528,-0.3267,-0.5127,-0.6561,-0.6907,-0.9445,-1.1501,-1.1944,-1.2859,-1.4073,-1.5488,-1.5801,-1.6487,-1.7809,-1.9808,-2.1056,-2.1407,-2.3619,-2.5948,-2.8066,-3.0322,-3.2617,-3.5028,-3.692,-3.902,-4.1333,-4.3147,-4.5836,-4.9327,-4.7985,-4.828,-4.983,-4.9908,-5.1179,-5.3159,-5.2729,-5.4104,-5.6468,-5.6392,-5.6929,-5.7874,-5.938,-6.0075,-6.0658,0.0,0.0,0.0,0.0,0.0,0.0,0.0,0.0,0.0,0.0,0.0,0.0,0.0,0.0,0.0,0.0,0.0,0.0,0.0,0.0,0.0,0.0,0.0,0.0,0.0,0.0,0.0,0.0,0.0,0.0,0.0,0.0,0.0,3.1074,0.0,0.0,0.0,0.0,0.0,0.0,0.0,0.0,0.0,0.0,0.0,0.0,0.0,0.0,2.084,2.0765,1.9766,0.0,0.0,0.0,1.6805,1.673,1.5885,1.4979,1.4878,1.2265,0.9198,0.7713,0.5978,0.4728,0.4782,0.3194,0.1601,0.1023,0.0947,0.0435,-0.1494,-0.3556,-0.5034,-0.5444,-0.7101,-0.8779,-1.0156,-1.0893,-1.2211,-1.4584,-1.4992,-1.564,-1.695,-1.8574,-1.9706,-1.992,-2.2028,-2.3533,-2.3936,-2.7494,-2.9851,-3.0588,-3.4063,-3.7055,-3.9444,-4.1138,-4.3167,-4.5494,-4.7523,-4.9574,-5.1501,-5.1654,-5.1654,-5.1555,-5.1961,-5.3488,-5.5796,-5.6076,-5.6557,-5.7197,-5.7752,-5.8539,-5.9363,-5.9797,-6.1347,-6.3361,0.0,0.0,0.0,0.0,0.0,0.0,0.0,0.0,0.0,0.0,0.0,0.0,0.0,0.0,0.0,0.0,0.0,0.0,0.0,0.0,0.0,0.0,0.0,0.0,0.0,0.0,0.0,0.0,0.0,0.0,0.0,3.2833,3.222,0.0,0.0,0.0,0.0,0.0,3.0103,0.0,0.0,0.0,0.0,0.0,0.0,0.0,0.0,2.0602,1.9494,1.9469,1.8304,1.6924,1.6844,0.0,0.0,0.0,1.4496,1.3293,1.1958,1.0353,0.8512,0.6125,0.4872,0.3944,0.2989,0.184,0.0337,-0.1958,-0.2668,-0.3133,-0.3958,-0.4979,-0.6111,-0.7262,-0.8816,-1.0235,-1.1043,-1.2529,-1.4087,-1.5399,-1.7049,-1.8241,-1.8884,-2.0969,-2.2329,-2.2454,-2.5749,-2.7877,-2.8195,-3.187,-3.4672,-3.6199,-3.8763,-4.1259,-4.3676,-4.5312,-4.7241,-4.9462,-5.1232,-5.3033,-5.4918,-5.6113,-5.6113,-5.5213,-5.5062,-5.6158,-5.8144,-5.7822,-5.8235,-5.9017,-5.9164,-5.9972,-6.1077,-6.1821,-6.3224,-6.4927,0.0,0.0,0.0,0.0,0.0,0.0,0.0,0.0,0.0,0.0,0.0,0.0,0.0,0.0,0.0,0.0,0.0,0.0,0.0,0.0,0.0,0.0,0.0,0.0,0.0,0.0,0.0,0.0,0.0,0.0,3.1058,3.1058,3.0399,0.0,3.0039,3.0315,0.0,3.0103,2.9383,2.8188,0.0,0.0,0.0,0.0,0.0,0.0,0.0,1.9322,1.8054,1.7936,1.674,1.5276,1.5181,1.4251,0.0,0.0,0.0,1.1637,0.927,0.844,0.7533,0.4731,0.3942,0.3415,0.1571,0.0501,-0.1094,-0.4324,-0.5659,-0.6243,-0.631,-0.6393,-0.7011,-0.8989,-1.0178,-1.1229,-1.2133,-1.4486,-1.6272,-1.6764,-1.9258,-2.095,-2.0901,-2.3261,-2.5056,-2.5659,-2.9481,-3.1975,-3.272,-3.5918,-3.8698,-4.1063,-4.2754,-4.4743,-4.6888,-4.8697,-5.0839,-5.3278,-5.4475,-5.6088,-5.7959,-5.9435,-5.9728,-5.8875,-5.8035,-5.8598,-6.0,-5.9229,-5.9662,-6.086,-6.1044,-6.1733,-6.2816,-6.398,-6.5269,-6.666,0.0,0.0,0.0,0.0,0.0,0.0,0.0,0.0,0.0,0.0,0.0,0.0,0.0,0.0,0.0,0.0,0.0,0.0,0.0,0.0,0.0,0.0,0.0,0.0,0.0,0.0,0.0,0.0,0.0,0.0,2.8486,2.8486,2.8432,2.8437,3.0098,2.9967,2.8465,2.9278,2.8449,2.6443,2.4251,2.2906,0.0,1.9455,1.8188,1.7784,1.7861,1.7302,1.6603,1.6592,1.5421,1.3977,1.3967,1.3056,1.193,0.0,0.0,0.0,0.9159,0.7921,0.6651,0.4802,0.4079,0.3227,0.1166,-0.0923,-0.3105,-0.4954,-0.6782,-0.8061,-0.8149,-0.8309,-0.899,-1.0525,-1.0901,-1.1894,-1.4516,-1.6783,-1.8544,-1.9531,-2.189,-2.3315,-2.3181,-2.5745,-2.8217,-2.9979,-3.2512,-3.4925,-3.7089,-3.9055,-4.1147,-4.3288,-4.5149,-4.6947,-4.8618,-5.0707,-5.3504,-5.6912,-5.7369,-5.841,-5.9851,-6.0318,-6.1106,-6.1976,-6.0568,-6.0435,-6.1267,-6.0904,-6.1232,-6.2145,-6.3532,-6.4092,-6.4315,-6.5737,-6.7448,-6.9135,0.0,0.0,0.0,0.0,0.0,0.0,0.0,0.0,0.0,0.0,0.0,0.0,0.0,2.9116,2.9042,2.8116,0.0,0.0,0.0,0.0,0.0,0.0,0.0,0.0,0.0,0.0,0.0,0.0,0.0,2.8271,2.8691,2.8691,2.8446,2.7995,2.8539,2.857,2.8235,2.7546,2.6598,2.5435,2.316,2.1031,1.9203,1.8139,1.6526,1.4827,1.5481,1.5128,1.4241,1.3787,1.3444,1.314,1.2963,1.254,1.1963,1.1229,1.0169,0.8968,0.7178,0.6394,0.5594,0.3587,0.22,0.0803,-0.1145,-0.3074,-0.4952,-0.6797,-0.7708,-0.8463,-0.9346,-0.9691,-1.0043,-1.0684,-1.2301,-1.3975,-1.516,-1.7898,-1.9943,-2.0606,-2.3564,-2.5543,-2.5446,-2.9261,-3.1863,-3.2149,-3.6116,-3.8731,-3.9245,-4.2366,-4.4496,-4.523,-4.8259,-5.0807,-5.2769,-5.4498,-5.6091,-5.7584,-5.9851,-6.1354,-6.2148,-6.3431,-6.4022,-6.4047,-6.3989,-6.343,-6.2445,-6.2167,-6.2616,-6.3588,-6.429,-6.4978,-6.5938,-6.8304,-6.9885,-7.1211,0.0,0.0,0.0,0.0,0.0,0.0,0.0,0.0,0.0,0.0,0.0,0.0,0.0,0.0,3.0904,2.994,2.8819,0.0,0.0,0.0,0.0,0.0,0.0,0.0,0.0,0.0,0.0,0.0,0.0,0.0,0.0,2.8176,2.7655,2.7194,2.6416,2.6365,2.6852,2.577,2.4867,2.3862,2.0825,1.887,1.7583,1.6109,1.4604,1.3282,1.282,1.2153,1.1248,0.9557,0.9096,0.9413,0.9883,1.0388,1.0672,0.978,0.8579,0.7298,0.5855,0.4765,0.3651,0.2171,0.0543,-0.1196,-0.3171,-0.4556,-0.5873,-0.7725,-0.8109,-0.8581,-0.9969,-1.0693,-1.1367,-1.1968,-1.3748,-1.5557,-1.6966,-1.9563,-2.1695,-2.2877,-2.624,-2.856,-2.8728,-3.2479,-3.509,-3.5427,-3.8742,-4.1231,-4.222,-4.4866,-4.6938,-4.836,-5.1347,-5.39,-5.5949,-5.6891,-5.8127,-5.967,-6.1824,-6.3337,-6.4239,-6.5241,-6.5362,-6.4866,-6.5668,-6.518,-6.3829,-6.3834,-6.4401,-6.525,-6.6009,-6.7008,-6.8299,-7.0859,-7.2395,-7.3536,0.0,0.0,0.0,0.0,0.0,0.0,0.0,0.0,0.0,3.2612,0.0,0.0,0.0,0.0,0.0,3.2509,3.1906,3.0909,2.9413,0.0,0.0,0.0,0.0,0.0,0.0,0.0,0.0,0.0,0.0,0.0,0.0,0.0,2.5918,2.5899,2.3878,2.3337,2.3974,2.3989,2.3222,2.1666,1.727,1.6355,1.722,1.309,1.2316,1.3039,0.9678,0.8302,0.7626,0.4038,0.2705,0.2971,0.498,0.6697,0.7932,0.7782,0.6636,0.5426,0.0,0.0,0.0,0.0522,-0.0769,-0.2529,-0.4749,-0.5327,-0.5957,-0.7809,-0.8144,-0.8592,-1.0033,-1.1413,-1.2938,-1.4599,-1.5175,-1.6653,-2.0076,-2.1956,-2.3922,-2.6406,-2.9898,-3.2314,-3.2643,-3.5411,-3.7935,-3.9777,-4.0226,-4.2163,-4.602,-4.6325,-4.8308,-5.2494,-5.4248,-5.5949,-5.7824,-5.7895,-5.9739,-6.3328,-6.3394,-6.4332,-6.5978,-6.5391,-6.4896,-6.4666,-6.5433,-6.5607,-6.5407,-6.6157,-6.6638,-6.7118,-6.8964,-7.0285,-7.1407,-7.3338,-7.4917,-7.6173,0.0,0.0,0.0,0.0,0.0,0.0,0.0,0.0,0.0,0.0,0.0,0.0,3.5121,3.4337,3.3894,3.4124,3.1586,2.995,2.9881,2.8481,2.7298,2.6582,2.7148,2.7207,0.0,0.0,0.0,0.0,0.0,0.0,0.0,0.0,0.0,0.0,2.2616,2.2066,2.1683,2.1911,2.1428,2.0253,1.8016,1.5243,1.2284,1.0347,0.7482,0.43,0.3042,0.2739,0.2725,0.131,0.2662,0.5392,0.7205,0.7237,0.6518,0.6477,0.447,0.2274,0.1955,0.0,0.0,0.0,0.0,0.0,-0.5043,-0.6217,-0.7651,-0.9212,-0.9559,-1.0237,-1.2522,-1.3372,-1.4645,-1.7339,-1.8101,-1.8949,-2.0482,-2.3395,-2.582,-2.6948,-3.0374,-3.2723,-3.2788,-3.6349,-3.8851,-3.9355,-4.2266,-4.4474,-4.5566,-4.8543,-5.1577,-5.467,-5.6191,-5.7538,-5.8578,-6.0702,-6.2414,-6.3692,-6.4973,-6.5915,-6.6382,-6.6667,-6.6943,-6.7212,-6.8555,-6.9233,-6.9375,-6.8252,-6.8647,-7.0015,-7.1037,-7.215,-7.3438,-7.5686,-7.6824,-7.7477,0.0,0.0,0.0,0.0,0.0,0.0,0.0,0.0,0.0,0.0,0.0,0.0,3.6723,3.5924,3.5142,3.4745,3.2612,3.1034,3.0577,2.9274,2.8217,2.7461,2.793,2.7871,2.7207,0.0,0.0,0.0,0.0,0.0,0.0,0.0,0.0,0.0,0.0,2.011,1.962,1.9336,1.9458,1.9442,1.5344,1.2418,1.0209,0.6861,0.4075,0.1737,0.0076,0.0152,0.0685,-0.2096,-0.0514,0.2741,0.3119,0.3562,0.3787,0.2987,0.1421,-0.0135,-0.0538,-0.1705,-0.2925,-0.3195,0.0,0.0,-0.6758,-0.7789,-0.8992,-1.0535,-1.0815,-1.1494,-1.3624,-1.4456,-1.5703,-1.868,-2.0306,-2.1684,-2.2716,-2.4723,-2.6695,-2.811,-3.1513,-3.3707,-3.3719,-3.7729,-4.0629,-4.1522,-4.3963,-4.6343,-4.8211,-5.1255,-5.423,-5.6917,-5.7824,-5.9113,-6.0947,-6.2679,-6.4081,-6.5134,-6.6198,-6.6876,-6.7152,-6.7725,-6.815,-6.852,-7.0129,-7.1439,-7.2331,-7.177,-7.1903,-7.2547,-7.3625,-7.4655,-7.583,-7.7693,-7.8569,-7.914,0.0,0.0,0.0,0.0,0.0,0.0,0.0,0.0,0.0,0.0,3.7517,3.7541,3.7541,3.7493,3.6811,3.5201,3.4435,3.3331,3.1675,3.09,3.0093,2.9039,2.8945,2.8711,2.8301,2.8281,2.8174,0.0,0.0,0.0,0.0,2.3111,2.1658,2.1058,0.0,0.0,1.7895,1.6801,1.725,1.8116,1.1137,0.8971,0.9316,0.3105,0.138,0.1837,-0.146,-0.1394,-0.0546,-0.5736,-0.5236,-0.2714,-0.3923,-0.2099,0.014,-0.1313,-0.1994,-0.2258,-0.2431,-0.353,-0.469,-0.5023,-0.6174,0.0,-0.9198,-0.9672,-1.0215,-1.1757,-1.2137,-1.2671,-1.4235,-1.5252,-1.678,-1.9551,-2.2107,-2.4308,-2.564,-2.6156,-2.7297,-2.9749,-3.3016,-3.5077,-3.5081,-3.9249,-4.2657,-4.4705,-4.5664,-4.8034,-5.2419,-5.4203,-5.6183,-5.8727,-5.9226,-6.0879,-6.3793,-6.4052,-6.5134,-6.706,-6.7213,-6.7638,-6.8238,-6.8784,-6.9151,-6.9367,-7.1076,-7.2846,-7.4605,-7.5845,-7.5764,-7.493,-7.6313,-7.7405,-7.836,-7.9303,-8.013,-8.0936,0.0,0.0,0.0,0.0,0.0,0.0,0.0,0.0,0.0,3.9056,3.9513,3.9777,3.9777,3.9393,3.8803,3.806,3.5745,3.4164,3.3831,3.1569,3.001,2.9509,2.9101,2.8711,2.8301,2.8067,2.7511,2.6554,2.5954,2.4599,2.2476,2.1926,2.0501,1.826,1.7793,1.7267,1.66,1.5509,1.386,1.1843,1.0584,0.7925,0.4257,0.0155,-0.3073,-0.5776,-0.7589,-0.7945,-0.7697,-0.8212,-0.7243,-0.5452,-0.4148,-0.3409,-0.2838,-0.2137,-0.3647,-0.5266,-0.4245,-0.5062,-0.6405,-0.7409,-0.8017,0.0,-1.011,-1.1024,-1.1959,-1.359,-1.4444,-1.5407,-1.7119,-1.8461,-2.0017,-2.2389,-2.4226,-2.5458,-2.5915,-2.8349,-3.0336,-3.095,-3.4222,-3.6421,-3.6424,-4.0066,-4.2978,-4.4159,-4.7611,-5.0957,-5.3995,-5.5879,-5.7292,-5.819,-6.124,-6.3309,-6.4153,-6.5639,-6.6723,-6.7426,-6.8621,-6.9232,-6.9406,-7.0632,-7.181,-7.2911,-7.3558,-7.5,-7.7006,-7.7856,-7.8074,-7.7945,-7.8865,-7.9357,-7.9644,-8.0395,-8.1201,-8.213,0.0,0.0,0.0,0.0,0.0,0.0,0.0,0.0,3.932,3.9561,4.0066,4.0282,4.0042,3.9994,3.9371,3.7826,3.6137,3.4705,3.3658,3.1896,3.0509,2.9752,2.925,2.8616,2.7872,2.7133,2.6445,2.5827,2.4322,2.2927,2.1586,2.0214,1.7975,1.5054,1.5428,1.4556,1.283,1.2669,1.1865,1.0416,0.7951,0.4337,0.0077,-0.346,-0.647,-0.8936,-1.0019,-1.0844,-1.1234,-0.9752,-0.8216,-0.7001,-0.7529,-0.6869,-0.6067,-0.6404,-0.772,-0.8851,-0.7701,-0.8124,-0.9079,-0.9759,-1.0306,0.0,0.0,-1.3008,-1.3976,-1.608,-1.6996,-1.7875,-1.9577,-2.0751,-2.2356,-2.5084,-2.5858,-2.6887,-2.9011,-3.0192,-3.0961,-3.1033,-3.4255,-3.6533,-3.646,-4.0452,-4.4399,-4.7582,-5.0722,-5.3562,-5.611,-5.703,-5.8443,-6.0618,-6.2721,-6.4502,-6.589,-6.7548,-6.8503,-6.8797,-7.0255,-7.1004,-7.1224,-7.2672,-7.3653,-7.4422,-7.5497,-7.6863,-7.8392,-7.9192,-7.9788,-8.0261,-8.0384,-8.0424,-8.0555,-8.1487,-8.2118,-8.2686,0.0,0.0,0.0,0.0,0.0,0.0,0.0,0.0,3.9994,4.0186,4.0287,4.0211,3.9783,3.9494,3.8293,3.5614,3.4742,3.368,3.2205,3.1228,3.0509,3.0179,2.9508,2.8557,2.7341,2.6154,2.5296,2.4837,2.2363,2.1058,2.0787,1.8306,1.5583,1.2807,1.2751,1.1595,0.9601,0.9582,0.9411,0.8775,0.4149,0.0915,-0.1645,-0.5832,-0.8339,-0.9779,-1.1547,-1.3077,-1.3814,-1.1712,-0.9824,-0.8805,-1.1048,-1.071,-0.9703,-1.1038,-1.2146,-1.2597,-1.1284,-1.1251,-1.1698,-1.1994,-1.2632,-1.3598,0.0,0.0,0.0,-1.8644,-1.9382,-2.0111,-2.1559,-2.2891,-2.4481,-2.6965,-2.7607,-2.8867,-3.1958,-3.2261,-3.2176,-3.2185,-3.4783,-3.6899,-3.759,-4.2438,-4.7186,-5.1369,-5.4194,-5.634,-5.7778,-5.8375,-6.0142,-6.3331,-6.4023,-6.5551,-6.7909,-6.9147,-7.0004,-7.0536,-7.195,-7.2829,-7.3173,-7.4521,-7.5209,-7.5508,-7.714,-7.8475,-7.9567,-8.0315,-8.1227,-8.2012,-8.1455,-8.1359,-8.1578,-8.2586,-8.3024,-8.3359,3.2072,3.1921,0.0,0.0,0.0,0.0,0.0,0.0,4.1341,4.2338,4.1181,4.0312,4.0243,3.7407,3.4445,3.1715,2.9637,2.8838,2.9709,2.8422,2.8764,3.1469,3.0113,2.8536,2.7014,2.5813,2.4228,2.204,2.0358,1.8989,1.791,1.6514,1.5007,1.3449,1.0649,0.9659,1.0025,0.7388,0.4464,0.1568,-0.0076,0.0773,0.2227,-0.4188,-0.7489,-0.9312,-1.4273,-1.6923,-1.7756,-1.5557,-1.3799,-1.2437,-1.2044,-1.2876,-1.3919,-1.2726,-1.4557,-1.625,-1.3712,-1.2821,-1.2905,-1.4011,-1.4973,-1.5927,-1.7168,0.0,-2.0099,-2.0615,0.0,-2.2035,-2.2892,0.0,0.0,-2.6896,-2.9943,-3.2108,-3.1784,-3.4967,-3.7406,-3.7514,-3.7943,-3.9516,-4.2857,-4.9052,-5.2498,-5.1808,-5.7544,-6.0103,-5.789,-6.0642,-6.2827,-6.3897,-6.562,-6.7476,-6.9406,-6.9833,-7.0703,-7.2004,-7.3482,-7.4273,-7.462,-7.5784,-7.679,-7.7684,-7.8303,-7.9529,-8.1075,-8.1628,-8.2295,-8.2986,-8.2533,-8.2611,-8.313,-8.3656,-8.4223,-8.4755,3.4119,3.2914,0.0,0.0,0.0,0.0,0.0,0.0,4.0929,4.2171,4.1983,4.1518,4.0936,3.9117,3.6182,3.1938,3.0254,2.9395,2.9106,2.8286,2.889,3.1376,2.9611,2.792,2.6411,2.4261,2.2166,2.0244,1.8932,1.7606,1.6397,1.5095,1.3202,1.0801,0.8741,0.7028,0.5618,0.4566,0.3368,0.1924,-0.0703,-0.1042,-0.0742,-0.7757,-1.1934,-1.4385,-1.7547,-1.8971,-1.9469,-1.9277,-1.7156,-1.511,-1.789,-1.7405,-1.611,-1.7405,-1.8048,-1.8234,-1.735,-1.8221,-1.9391,-1.9076,-2.0685,-2.2003,-2.0887,-2.1217,-2.2122,-2.3051,0.0,0.0,0.0,0.0,0.0,0.0,-3.2312,-3.3571,-3.4947,-3.6808,-3.8107,-3.8287,-4.0077,-4.2595,-4.5895,-4.9823,-5.2343,-5.2717,-5.7566,-6.0227,-5.9604,-6.1508,-6.3583,-6.5681,-6.6977,-6.8375,-6.9947,-7.1713,-7.2881,-7.3533,-7.506,-7.5845,-7.5986,-7.6884,-7.7782,-7.8677,-7.9582,-8.0649,-8.1751,-8.2749,-8.3359,-8.372,-8.4112,-8.4071,-8.379,-8.4349,-8.5042,-8.5626,3.5445,0.0,3.2724,3.4947,0.0,0.0,0.0,3.8631,4.0243,4.1038,4.1152,4.0887,4.0027,3.7551,3.4301,3.0066,2.7826,2.6435,2.597,2.6064,2.6748,2.7981,2.7811,2.6426,2.3891,2.2083,2.0472,1.8933,1.7291,1.5972,1.5035,1.3794,1.1747,0.9048,0.734,0.5066,0.2605,0.1576,0.082,-0.0078,-0.3508,-0.5887,-0.7801,-1.2117,-1.5771,-1.8875,-2.0446,-2.1068,-2.1274,-2.2207,-2.0488,-1.8588,-2.2418,-2.1925,-2.033,-2.2516,-2.3031,-2.2665,-2.2071,-2.3606,-2.5006,-2.351,-2.5203,-2.6822,-2.4941,-2.4773,-2.53,-2.6481,-2.6932,0.0,0.0,0.0,-3.185,-3.3487,0.0,-3.518,-3.7055,-3.8779,-3.9812,-3.9589,-4.2795,-4.579,-4.7665,-5.1175,-5.3476,-5.3896,-5.8704,-6.1554,-6.1251,-6.2689,-6.4725,-6.7299,-6.8177,-6.9335,-7.0814,-7.3276,-7.4803,-7.543,-7.6495,-7.7123,-7.742,-7.8085,-7.8842,-7.9653,-8.1035,-8.2107,-8.2849,-8.4146,-8.4609,-8.4729,-8.5403,-8.5257,-8.473,-8.5118,-8.5469,-8.5639,3.4681,3.3955,3.3526,3.3487,3.4789,3.6289,3.7684,3.906,3.9758,3.9001,3.7933,3.7025,3.6622,2.9966,2.5059,2.3774,1.8819,1.6568,1.8315,1.9854,2.0484,1.9918,2.4132,2.3862,1.8383,1.9496,1.9447,1.7948,1.5189,1.3784,1.3725,1.2483,1.1126,0.9741,0.6541,0.447,0.3006,-0.147,-0.5058,-0.7918,-1.0719,-1.4903,-1.9144,-1.627,-1.7273,-2.0518,-2.2735,-2.3704,-2.3892,-2.3951,-2.3927,-2.3786,-2.3572,-2.5592,-2.8076,-2.764,-2.9743,-3.1416,-2.8057,-2.7673,-2.7806,-2.6075,-2.6986,-2.8435,-2.9043,-3.008,-3.0954,-3.1328,-3.1371,-3.1389,-3.1322,-3.2563,-3.3133,-3.1816,-3.5245,0.0,0.0,-4.0967,-4.4111,-4.3185,-4.6593,-4.8862,-4.8339,-5.5059,-5.8215,-5.5075,-6.2493,-6.5769,-6.2639,-6.487,-6.6894,-6.8325,-6.9402,-7.0824,-7.2567,-7.404,-7.5802,-7.788,-7.7623,-7.8013,-7.8928,-7.9414,-8.0084,-8.0977,-8.274,-8.3964,-8.4796,-8.5805,-8.6211,-8.621,-8.604,-8.6111,-8.6301,-8.6045,-8.535,-8.445,0.0,3.2789,3.3461,3.3679,3.4512,3.5589,3.6897,3.7775,3.7703,3.5997,3.5442,3.3946,3.0526,2.7423,2.4209,2.0899,1.8508,1.7433,1.8154,2.0035,2.0793,2.0078,2.3012,2.2238,1.7148,1.7622,1.7066,1.5247,1.4266,1.3383,1.2423,1.1088,1.0257,0.9728,0.5451,0.265,0.0931,-0.3329,-0.6375,-0.8698,-1.2641,-1.6073,-1.8856,-1.9269,-2.0734,-2.2687,-2.3587,-2.4927,-2.6384,-2.7243,-2.7009,-2.6994,-3.045,-3.045,-2.9697,-3.221,-3.2899,-3.2709,-3.2416,-3.3747,-3.4809,-3.2748,-3.4095,-3.5413,-3.3328,-3.287,-3.3056,-3.3433,-3.2775,-3.2803,-3.4675,-3.5466,-3.6206,-3.7444,-3.9181,-4.0197,0.0,-4.2459,-4.5094,-4.6819,-4.8937,-5.0498,-5.1119,-5.5622,-5.7786,-5.5824,-6.1351,-6.3915,-6.1878,-6.4256,-6.6879,-6.9371,-7.0546,-7.2059,-7.409,-7.5431,-7.6907,-7.8463,-7.8013,-7.8363,-7.9484,-7.995,-8.0617,-8.1478,-8.3287,-8.4508,-8.5342,-8.6427,-8.6985,-8.7144,-8.6957,-8.6691,-8.6357,-8.5514,-8.5446,-8.5723,3.1742,3.2651,3.3688,3.3354,3.4065,3.5078,3.6058,3.5675,3.4564,3.2815,3.1632,2.9633,2.621,2.4216,2.2011,1.9325,1.6852,1.5996,1.7548,1.7678,1.7542,1.697,1.8948,1.7589,1.2407,1.4247,1.4315,1.232,1.2482,1.2016,1.0997,0.9577,0.8661,0.8037,0.4952,0.1507,-0.2113,-0.5224,-0.8604,-1.2174,-1.6493,-1.903,-2.038,-2.2819,-2.3538,-2.3442,-2.5542,-2.7423,-2.9267,-3.1026,-3.1504,-3.1863,-3.5333,-3.5467,-3.4705,-3.7108,-3.7407,-3.7147,-3.7708,-3.9357,-4.0521,-3.8885,-3.9943,-4.0924,-3.8858,-3.7987,-3.7797,-3.8439,-3.754,-3.7478,-4.0474,-4.0,-3.9966,-4.2281,-4.2616,-4.2784,0.0,-4.4802,-4.6753,-4.914,-5.0135,-5.1476,-5.3681,-5.6507,-5.7972,-5.7512,-6.1211,-6.3049,-6.2198,-6.4788,-6.7425,-6.9931,-7.1909,-7.3542,-7.4914,-7.6404,-7.7886,-7.9247,-7.864,-7.9199,-8.076,-8.0971,-8.1626,-8.2815,-8.4493,-8.5664,-8.6533,-8.7456,-8.7935,-8.8002,-8.7292,-8.6854,-8.6508,-8.5347,-8.5235,-8.551,3.2693,3.3518,3.4146,3.2647,3.3672,3.4887,3.5354,3.2861,3.0559,2.9543,2.6443,2.4022,2.3329,2.0016,1.7999,1.8481,1.3584,1.2087,1.5748,1.2781,1.0837,1.0702,1.2128,1.0346,0.4652,0.9502,1.1145,0.9247,0.9729,0.9804,0.9411,0.7973,0.6399,0.4897,0.4841,0.0902,-0.5823,-0.7239,-1.1811,-1.8423,-2.2207,-2.3738,-2.3972,-2.6783,-2.5685,-2.3317,-2.849,-3.1175,-3.2579,-3.5138,-3.6843,-3.8012,-3.8257,-4.049,-4.2876,-4.2261,-4.3392,-4.4676,-4.3904,-4.427,-4.4717,-4.4206,-4.4351,-4.4671,-4.5321,-4.5097,-4.502,-4.6006,-4.5167,-4.517,-4.81,-4.5945,-4.4168,-4.5908,-4.5429,-4.5372,-4.6907,-4.8,-4.9169,-5.0297,-5.0533,-5.2064,-5.5947,-5.7813,-5.9122,-5.994,-6.2249,-6.3568,-6.3415,-6.6456,-6.884,-7.0116,-7.3408,-7.5171,-7.5219,-7.6996,-7.8703,-8.0175,-7.9492,-8.044,-8.2713,-8.2419,-8.3171,-8.4827,-8.6235,-8.7313,-8.8137,-8.8719,-8.8982,-8.8794,-8.7179,-8.6625,-8.6644,-8.5594,-8.47,-8.4024,3.2591,3.3063,3.393,3.4475,3.4718,3.495,3.5382,3.2705,2.9617,2.6701,2.2853,1.9201,1.6083,1.4916,1.3887,1.2774,1.1341,1.041,1.0159,1.0793,0.9907,0.6888,0.8438,0.7252,0.2636,0.5203,0.6215,0.5436,0.7151,0.7881,0.7648,0.6256,0.4827,0.3393,0.2129,-0.1667,-0.715,-0.9725,-1.5065,-2.1961,-2.3884,-2.4289,-2.4282,-2.8855,-2.9523,-2.83,-3.0704,-3.3029,-3.5122,-3.6792,-3.807,-3.935,-4.1931,-4.3374,-4.4406,-4.6658,-4.784,-4.8519,-4.9221,-4.9392,-4.9264,-4.8544,-4.8776,-4.9025,-4.8629,-4.9101,-4.9734,-5.0032,-4.9161,-4.8875,-5.0532,-4.8714,-4.7419,-4.8828,-4.8629,-4.8701,-4.9992,-5.0138,-5.0715,-5.2416,-5.3612,-5.5211,-5.7496,-5.9354,-6.0385,-6.0311,-6.4146,-6.5503,-6.3054,-6.864,-7.1993,-7.2198,-7.443,-7.6117,-7.7164,-7.7988,-7.9066,-8.0351,-7.9575,-8.0523,-8.2984,-8.315,-8.4028,-8.5463,-8.7041,-8.7892,-8.8137,-8.8719,-8.8753,-8.83,-8.7208,-8.6229,-8.539,-8.5053,-8.484,-8.4675,3.3552,3.3681,3.4255,3.5054,3.3729,3.2756,3.323,3.1695,2.9169,2.5471,2.1391,1.8093,1.58,1.3401,1.1558,1.0688,0.9198,0.8628,0.9426,0.804,0.6659,0.5377,0.4363,0.204,-0.1852,0.0545,0.1805,0.1811,0.3983,0.542,0.6008,0.3965,0.2465,0.1418,-0.0207,-0.3588,-0.8394,-1.3615,-1.8986,-2.4146,-2.6505,-2.7256,0.0,-3.167,-3.2906,-3.2768,-3.4754,-3.6359,-3.7767,-3.9075,-4.0602,-4.2384,-4.4537,-4.6188,-4.7696,-4.9374,-5.0534,-5.1513,-5.2512,-5.2859,-5.2858,-5.2717,-5.3258,-5.3778,-5.3657,-5.4021,-5.461,-5.5193,-5.4178,-5.3791,-5.6023,-5.4116,-5.2363,-5.2796,-5.2184,-5.1899,-5.2605,-5.2876,-5.3604,-5.5015,-5.6647,-5.8427,-6.029,-6.1443,-6.2371,-6.3139,-6.5593,-6.657,-6.5514,-7.0042,-7.2868,-7.3308,-7.5857,-7.753,-7.8194,-7.9009,-7.9729,-8.0399,-8.0384,-8.1581,-8.3809,-8.4244,-8.534,-8.6931,-8.7876,-8.8521,-8.8869,-8.9189,-8.8985,-8.8243,-8.7033,-8.5858,-8.4901,-8.4901,-8.4901,-8.4901,3.5139,3.4873,3.4958,3.5073,3.2179,2.9833,2.9743,2.9321,2.7773,2.4301,2.0533,1.8215,1.8215,1.3624,1.0556,1.0493,0.7348,0.6652,0.9844,0.4726,0.2434,0.4325,0.0084,-0.3735,-0.6811,-0.4265,-0.239,-0.1464,0.022,0.2123,0.4154,0.1314,-0.0348,-0.106,-0.2389,-0.5547,-1.0414,-1.8252,-2.313,-2.597,-2.9341,-3.1143,-3.2123,-3.4818,-3.6257,-3.7129,-3.9497,-4.0224,-4.0261,-4.1657,-4.386,-4.6244,-4.6886,-4.9162,-5.1634,-5.1487,-5.2622,-5.416,-5.4835,-5.5529,-5.6179,-5.6583,-5.7487,-5.8379,-5.889,-5.8956,-5.9247,-6.0443,-5.9538,-5.9387,-6.2445,-6.0422,-5.8088,-5.751,-5.6345,-5.5604,-5.5854,-5.6697,-5.7493,-5.8156,-5.9887,0.0,-6.3497,-6.3578,-6.4465,-6.6728,-6.7116,-6.7776,-6.8965,-7.1564,-7.3266,-7.383,-7.7276,-7.9064,-7.9011,-7.9873,-8.0475,-8.0852,-8.1593,-8.2939,-8.4859,-8.5524,-8.6851,-8.8626,-8.8683,-8.9076,-8.979,-8.9676,-8.9108,-8.8122,-8.6568,-8.5545,-8.4901,-8.4901,-8.4901,-8.4901,3.5888,3.5609,3.5476,3.5893,3.2878,2.9351,2.627,2.3095,2.0884,2.0185,1.6845,1.4528,1.4528,1.2379,1.0335,0.8891,0.6308,0.4498,0.3718,0.0942,-0.051,-0.017,-0.4253,-0.6812,-0.748,-0.8527,-0.7296,-0.3689,-0.454,-0.2982,0.0732,-0.1231,-0.3047,-0.47,-0.5069,-0.9411,-1.6859,-2.1772,-2.591,-2.926,-3.0938,-3.329,-3.6058,-3.783,-3.9841,-4.1852,-4.2683,-4.2239,-4.1676,-4.4067,-4.6652,-4.9177,-5.1051,-5.2704,-5.4283,-5.5881,-5.6703,-5.73,-5.8377,-5.9467,-6.0193,-5.9717,-6.0391,-6.112,-6.0716,-6.1586,-6.2714,-6.3429,-6.3978,-6.4576,-6.5366,-6.4042,-6.2809,-6.2748,-6.1763,-6.1509,-6.3164,-6.3158,-6.2852,-6.2542,-6.441,-6.5511,-6.5003,-6.4551,-6.5091,-6.7149,-7.044,-7.166,-6.9893,-7.5257,-7.7306,-7.4939,-7.7685,-7.983,-8.1118,-8.0148,-8.0802,-8.303,-8.2311,-8.3222,-8.5571,-8.6601,-8.7886,-8.9243,-8.9477,-8.9654,-8.9752,-8.907,-8.7933,-8.6455,-8.5469,-8.5014,-8.4901,-8.4901,-8.4901,-8.4901,3.6112,3.5968,3.5335,3.3548,3.0109,2.627,2.2533,1.791,1.5891,1.8818,1.6782,1.5181,1.5263,1.101,0.7705,0.6693,0.4564,0.2451,0.035,-0.1039,-0.258,-0.4553,-0.7761,-1.0032,-1.0983,-1.3128,-1.2095,-0.771,-0.8442,-0.6584,-0.2385,-0.3953,-0.5701,-0.7684,-1.0666,-1.5033,-2.0384,-2.446,-2.8748,-3.3027,-3.4908,-3.7467,-4.0167,-4.1422,-4.2748,-4.4319,-4.6003,-4.6677,-4.6904,-4.7928,-4.9787,-5.1933,-5.3726,-5.5479,-5.6897,-5.7903,-5.8954,-5.9941,-6.0797,-6.1714,-6.2295,-6.1819,-6.3012,-6.4277,-6.4336,-6.5258,-6.6461,-6.7511,-6.7524,-6.7471,-6.801,-6.7561,-6.7202,-6.7491,-6.6695,-6.6406,-6.7214,-6.669,-6.6243,-6.6266,-6.7208,-6.8082,-6.8608,-6.8432,-6.8684,-6.9813,-7.2999,-7.4072,-7.2145,-7.6543,-7.7996,-7.5486,-7.8261,-8.0328,-8.1382,-8.1092,-8.1834,-8.3614,-8.3849,-8.4852,-8.661,-8.7875,-8.8866,-8.9591,-8.9741,-8.979,-8.9714,-8.8463,-8.7251,-8.6038,-8.5235,-8.4909,-8.4901,-8.4932,-8.4909,-8.4901,3.5192,3.5012,3.3739,2.9986,2.6128,2.2522,1.9241,1.4146,1.2349,1.6976,1.5802,1.4729,1.4893,0.9118,0.497,0.4293,0.2402,0.0266,-0.2122,-0.3063,-0.5046,-0.8532,-1.0928,-1.3066,-1.5032,-1.7276,-1.6144,-1.1673,-1.2115,-0.9936,-0.5542,-0.7058,-0.9075,-1.1788,-1.7093,-2.1216,-2.4541,-2.8482,-3.277,-3.7162,-3.9112,-4.1445,-4.3803,-4.4618,-4.5672,-4.7094,-4.9663,-5.1662,-5.2954,-5.2891,-5.3825,-5.5207,-5.6425,-5.8031,-5.9555,-5.9665,-6.0763,-6.2096,-6.2715,-6.3598,-6.4277,-6.3989,-6.5528,-6.7218,-6.7588,-6.835,-6.9329,-7.0586,-7.0293,-7.0033,-7.0946,-7.101,-7.1217,-7.2119,-7.1291,-7.0681,-7.0995,-7.0391,-6.9995,-7.0106,-7.037,-7.0987,-7.2174,-7.2788,-7.32,-7.3407,-7.4805,-7.5314,-7.4456,-7.7107,-7.8063,-7.6682,-7.9355,-8.1373,-8.2431,-8.2294,-8.2978,-8.4429,-8.5309,-8.6406,-8.7694,-8.8918,-8.9591,-8.979,-8.979,-8.9601,-8.9184,-8.7933,-8.6796,-8.5819,-8.5227,-8.4999,-8.4992,-8.4984,-8.4977,-8.4924,3.2241,3.1257,2.9808,2.6039,2.2235,1.9086,1.7087,1.3115,1.0704,1.1641,0.9831,0.8411,0.8428,0.6033,0.3664,0.1874,-0.0357,-0.2593,-0.4557,-0.663,-0.8987,-1.1792,-1.3552,-1.5647,-1.8235,-1.999,-1.8804,-1.4486,-1.5732,-1.376,-0.9041,-1.0912,-1.4295,-1.9072,-2.3376,-2.7767,-3.2138,-3.5726,-3.9069,-4.1765,-4.1979,-4.3694,-4.6011,-4.6615,-4.8995,-5.2239,-5.3693,-5.5844,-5.81,-5.9337,-5.9791,-5.9908,-6.0123,-6.1122,-6.2205,-6.2577,-6.2906,-6.3385,-6.4339,-6.6174,-6.7665,-6.7054,-6.8148,-6.9264,-6.8697,-6.9201,-6.9982,-7.0564,-7.2134,-7.3654,-7.4871,-7.4492,-7.473,-7.6965,-7.5223,-7.4409,-7.6747,-7.6514,-7.5724,-7.4627,-7.5543,-7.5591,-7.3979,-7.605,-7.744,-7.7299,-7.5709,-7.5132,-7.6112,-7.7941,-7.9214,-7.9669,-8.1446,-8.3831,-8.6797,-8.3636,-8.3703,-8.7044,-8.6128,-8.6669,-8.8518,-8.9362,-8.9766,-8.979,-8.979,-8.8956,-8.763,-8.7478,-8.6487,-8.5098,-8.5044,-8.5073,-8.5176,-8.5051,-8.5006,-8.4984,2.9275,2.8011,2.607,2.2321,1.9469,1.6659,1.3416,0.9553,0.6993,0.6993,0.6144,0.5115,0.3989,0.2051,0.0,-0.2234,-0.3308,-0.4921,-0.742,-0.9507,-1.182,-1.4449,-1.7304,-1.9471,-2.0646,-2.3673,-2.3668,-2.0567,-2.1102,-1.9644,-1.6335,-1.7278,-2.0178,-2.4829,-2.9617,-3.2934,-3.5241,-3.8821,-4.1983,-4.4668,-4.5172,-4.7509,-5.0763,-5.1877,-5.4043,-5.6624,-5.8227,-5.9506,-6.0653,-6.3095,-6.2633,-6.1237,-6.1928,-6.277,-6.374,-6.4868,-6.5519,-6.6265,-6.7604,-6.8665,-6.9374,-6.9361,-7.0442,-7.1467,-7.1231,-7.2218,-7.344,-7.4152,-7.5174,-7.6085,-7.6558,-7.6782,-7.7345,-7.8502,-7.8258,-7.8145,-7.8963,-7.8508,-7.7812,-7.7337,-7.7275,-7.7172,-7.684,-7.8697,-7.9715,-7.924,-8.0617,-8.0585,-7.8603,-8.1165,-8.2357,-8.1756,-8.1798,-8.3401,-8.6584,-8.4199,-8.4463,-8.7402,-8.6928,-8.7609,-8.9335,-8.9638,-8.979,-8.979,-8.979,-8.888,-8.7402,-8.7435,-8.648,-8.5028,-8.516,-8.5202,-8.5219,-8.5241,-8.5138,-8.5006,2.5532,2.4255,2.2096,1.7843,1.587,1.3541,0.9431,0.5882,0.3346,0.2554,0.1761,0.1059,0.0444,-0.1424,-0.3568,-0.6079,-0.6806,-0.8323,-1.0979,-1.2902,-1.5147,-1.7676,-2.0704,-2.2827,-2.3774,-2.7055,-2.7994,-2.6556,-2.5902,-2.4806,-2.3301,-2.3879,-2.6486,-3.0847,-3.5826,-3.8657,-3.9829,-4.3063,-4.6018,-4.8486,-4.9126,-5.1581,-5.4965,-5.6228,-5.7871,-5.9813,-6.1503,-6.2507,-6.3428,-6.5527,-6.5017,-6.3695,-6.4272,-6.4941,-6.5728,-6.7014,-6.7725,-6.8455,-6.9856,-7.0553,-7.0998,-7.1392,-7.2579,-7.3617,-7.3737,-7.4944,-7.629,-7.7095,-7.75,-7.7773,-7.7937,-7.8219,-7.8759,-7.9721,-7.9878,-8.0075,-8.0661,-7.9964,-7.9543,-8.0006,-7.9578,-7.9474,-8.0123,-8.1409,-8.2066,-8.1624,-8.4645,-8.4646,-8.0297,-8.308,-8.452,-8.3875,-8.3231,-8.4144,-8.6809,-8.4929,-8.5122,-8.7402,-8.7402,-8.8236,-8.979,-8.979,-8.979,-8.979,-8.979,-8.8905,-8.7435,-8.7467,-8.6685,-8.548,-8.5401,-8.5672,-8.6011,-8.5558,-8.5435,-8.5497,2.0775,1.9712,1.7869,1.2087,1.082,0.9279,0.5469,0.262,0.0264,-0.1762,-0.3964,-0.4492,-0.2292,-0.4054,-0.6454,-0.9019,-1.1146,-1.3299,-1.5499,-1.7318,-1.9401,-2.176,-2.3363,-2.5355,-2.796,-2.9858,-3.1138,-3.1887,-2.9575,-2.8576,-2.8819,-3.008,-3.3166,-3.773,-4.2053,-4.5145,-4.7334,-4.9915,-5.2108,-5.4009,-5.4009,-5.5649,-5.8093,-5.861,-5.9938,-6.1735,-6.2795,-6.4722,-6.6806,-6.6797,-6.759,-6.8394,-6.7839,-6.8056,-6.8607,-6.9037,-6.9143,-6.9406,-7.0413,-7.1711,-7.2907,-7.3346,-7.4504,-7.5601,-7.6049,-7.6802,-7.7615,-7.8406,-7.8574,-7.8741,-7.9079,-7.8594,-7.8842,-8.1095,-7.9906,-7.9637,-8.2276,-8.1759,-8.1648,-8.3147,-8.3325,-8.3406,-8.3606,-8.4362,-8.4862,-8.4827,-8.6683,-8.5664,-8.0726,-8.2862,-8.4889,-8.6301,-8.6357,-8.7054,-8.8553,-8.6128,-8.5711,-8.7402,-8.7402,-8.8236,-8.979,-8.979,-8.979,-8.979,-8.979,-8.8915,-8.7513,-8.7513,-8.7116,-8.6494,-8.5693,-8.65,-8.786,-8.6039,-8.5883,-8.6549,1.7937,1.5559,1.3242,1.1188,0.8511,0.5712,0.245,0.0177,-0.2225,-0.4895,-0.6984,-0.8624,-0.9665,-0.8736,-0.961,-1.3362,-1.4285,-1.6122,-1.9606,-2.0908,-2.3239,-2.7005,-2.7905,-2.9421,-3.1619,-3.2803,-3.3483,-3.3708,-3.3578,-3.4311,-3.5973,-3.6682,-3.8842,-4.2079,-4.5849,-4.8219,-4.9468,-5.237,-5.4361,-5.5715,-5.6667,-5.84,-6.0562,-6.2121,-6.3383,-6.465,-6.6286,-6.6859,-6.7049,-6.8575,-6.941,-7.0078,-7.1282,-7.0419,-6.9274,-7.0718,-7.1583,-7.2323,-7.3225,-7.4306,-7.5152,-7.531,-7.6083,-7.6837,-7.6982,-7.7883,-7.8794,-7.9351,-7.9507,-7.9546,-7.9629,-7.9768,-8.0105,-8.0859,-8.1382,-8.2209,-8.3629,-8.373,-8.401,-8.5034,-8.4318,-8.3955,-8.4481,-8.53,-8.6101,-8.6782,-8.8874,-8.8664,-8.5388,-8.5669,-8.6573,-8.8051,-8.5889,-8.5687,-8.7781,-8.5886,-8.5735,-8.7402,-8.7402,-8.8236,-8.979,-8.979,-8.979,-8.979,-8.9887,-8.8986,-8.7536,-8.7693,-8.7307,-8.6611,-8.668,-8.7274,-8.8035,-8.7637,-8.7504,-8.7485,1.4996,1.273,1.0477,0.8841,0.5662,0.2481,0.0,-0.3045,-0.5934,-0.8615,-1.0735,-1.2956,-1.5585,-1.4531,-1.4551,-1.6993,-1.7944,-1.9805,-2.3124,-2.4687,-2.6961,-3.0225,-3.1258,-3.2403,-3.3687,-3.5931,-3.7135,-3.7436,-3.9086,-4.0627,-4.2064,-4.3318,-4.4763,-4.6293,-5.008,-5.1813,-5.2291,-5.484,-5.666,-5.7989,-5.9435,-6.1244,-6.3306,-6.5057,-6.6165,-6.7012,-6.8462,-6.881,-6.8729,-7.0175,-7.1299,-7.2323,-7.3602,-7.299,-7.2067,-7.3211,-7.4023,-7.4618,-7.5186,-7.5943,-7.6678,-7.6823,-7.7467,-7.8202,-7.8651,-7.9376,-8.0084,-8.0681,-8.078,-8.0902,-8.1263,-8.1563,-8.1911,-8.2202,-8.3118,-8.4073,-8.4915,-8.5152,-8.554,-8.6315,-8.5625,-8.519,-8.5382,-8.5876,-8.6354,-8.6777,-8.8186,-8.8441,-8.7112,-8.7623,-8.7956,-8.795,-8.5835,-8.5436,-8.6909,-8.5886,-8.6038,-8.7402,-8.8009,-8.8842,-8.979,-8.9839,-8.9863,-8.9863,-9.0043,-8.9315,-8.8105,-8.8298,-8.8145,-8.7791,-8.776,-8.8339,-8.9171,-8.8793,-8.8658,-8.8594,1.2115,1.075,0.9101,0.5355,0.2233,-0.0358,-0.2449,-0.6722,-1.053,-1.2759,-1.5033,-1.7445,-2.012,-2.0836,-2.1017,-2.0646,-2.2189,-2.4235,-2.6487,-2.8547,-3.0379,-3.2031,-3.378,-3.4715,-3.4872,-3.9185,-4.1835,-4.2597,-4.5326,-4.6784,-4.7117,-4.956,-5.0571,-5.0459,-5.441,-5.5942,-5.5715,-5.7583,-5.9128,-6.0517,-6.2212,-6.4021,-6.5926,-6.7272,-6.8141,-6.8753,-6.9427,-7.0504,-7.1551,-7.1698,-7.3173,-7.4914,-7.5011,-7.5662,-7.6371,-7.6279,-7.6279,-7.6325,-7.6371,-7.6937,-7.7667,-7.8097,-7.887,-7.983,-8.1009,-8.1344,-8.1562,-8.2278,-8.2428,-8.2753,-8.3553,-8.3724,-8.4009,-8.4743,-8.4922,-8.5175,-8.5847,-8.599,-8.6286,-8.7036,-8.7082,-8.6851,-8.6306,-8.6238,-8.6072,-8.576,-8.5648,-8.5877,-8.6513,-8.8644,-8.8756,-8.6465,-8.6152,-8.6038,-8.6114,-8.6114,-8.6568,-8.7516,-8.907,-8.9814,-8.9814,-8.9935,-9.0006,-9.0006,-9.0159,-8.9778,-8.9125,-8.913,-8.9399,-8.9727,-8.8931,-8.9624,-9.0894,-8.9634,-8.9523,-8.9915,1.1188,0.8195,0.4937,0.2211,-0.0178,-0.3043,-0.7177,-1.0159,-1.3017,-1.5792,-1.8034,-2.1048,-2.5318,-2.5694,-2.6869,-3.0056,-2.7737,-2.7957,-3.2366,-3.2462,-3.3829,-3.7291,-3.7978,-3.9096,-4.0802,-4.2549,-4.389,-4.4954,-4.5632,-4.7493,-5.0431,-5.1751,-5.3275,-5.5064,-5.7812,-5.9258,-5.9624,-6.1146,-6.2033,-6.2507,-6.4544,-6.5358,-6.5654,-6.7789,-6.8784,-6.9114,-7.0432,-7.1602,-7.2684,-7.3686,-7.4944,-7.6314,-7.7223,-7.7779,-7.7977,-7.6813,-7.7036,-7.7606,-7.7926,-7.8594,-7.9458,-8.0181,-8.1466,-8.2685,-8.3121,-8.3652,-8.4062,-8.4245,-8.4264,-8.4322,-8.4543,-8.4941,-8.5046,-8.4599,-8.5087,-8.559,-8.5752,-8.5936,-8.6404,-8.7208,-8.6882,-8.6724,-8.7057,-8.6674,-8.7032,-8.8643,-8.8204,-8.7915,-8.8079,-8.8041,-8.7473,-8.6225,-8.5551,-8.5469,-8.6114,-8.6114,-8.6872,-8.835,-8.9432,-8.9935,-8.9935,-9.0075,-9.0159,-9.0182,-9.0295,-8.9866,-8.9108,-8.9497,-8.9699,-8.9855,-9.0081,-9.065,-9.1373,-9.128,-9.1166,-9.1097,0.8219,0.5025,0.1875,-0.0532,-0.3576,-0.6954,-1.073,-1.3358,-1.6191,-1.9795,-2.2272,-2.515,-2.886,-3.0138,-3.1917,-3.4852,-3.2093,-3.1747,-3.5357,-3.5882,-3.746,-4.0502,-4.1406,-4.2474,-4.371,-4.5287,-4.7377,-4.9912,-5.0465,-5.1992,-5.4396,-5.5296,-5.6571,-5.8181,-6.007,-6.1437,-6.2422,-6.3719,-6.4435,-6.4809,-6.6854,-6.7273,-6.6904,-6.8779,-6.9832,-7.0399,-7.1636,-7.2895,-7.4161,-7.5012,-7.6347,-7.7684,-7.8322,-7.9009,-7.944,-7.8606,-7.8729,-7.924,-7.9826,-8.0324,-8.1,-8.2097,-8.33,-8.4324,-8.4759,-8.5128,-8.553,-8.5867,-8.5998,-8.6125,-8.6497,-8.6808,-8.7007,-8.6895,-8.7285,-8.7587,-8.7587,-8.7382,-8.7289,-8.7402,-8.6719,-8.6266,-8.628,-8.5925,-8.6254,-8.7454,-8.7175,-8.6909,-8.6909,-8.6881,-8.651,-8.5637,-8.5561,-8.5774,-8.6275,-8.7034,-8.806,-8.9336,-8.9839,-9.0075,-9.0113,-9.0228,-9.0295,-9.0295,-9.0405,-9.027,-8.9975,-9.0257,-9.0526,-9.0787,-9.1118,-9.1412,-9.1706,-9.2016,-9.1926,-9.1669,0.45,0.169,-0.0797,-0.3393,-0.7401,-1.1149,-1.3615,-1.6495,-1.9882,-2.4102,-2.6701,-2.9217,-3.194,-3.4052,-3.5994,-3.7757,-3.6409,-3.6041,-3.7375,-3.9123,-4.0917,-4.2749,-4.4377,-4.5403,-4.5753,-4.836,-5.1561,-5.5369,-5.6363,-5.7291,-5.8188,-5.9051,-5.9848,-6.07,-6.2136,-6.336,-6.4337,-6.5562,-6.6265,-6.675,-6.852,-6.8808,-6.8381,-6.9745,-7.085,-7.1786,-7.27,-7.4162,-7.5627,-7.5924,-7.7293,-7.8867,-7.8908,-7.9754,-8.0725,-8.0762,-8.0946,-8.12,-8.1703,-8.2102,-8.2649,-8.3946,-8.4874,-8.5608,-8.6275,-8.6517,-8.6765,-8.7439,-8.7652,-8.7885,-8.856,-8.8732,-8.907,-8.9866,-8.979,-8.9676,-8.979,-8.8994,-8.816,-8.7478,-8.6758,-8.6038,-8.5356,-8.528,-8.528,-8.528,-8.528,-8.528,-8.528,-8.604,-8.6168,-8.5408,-8.613,-8.6653,-8.6878,-8.8438,-8.952,-9.0205,-9.0228,-9.0228,-9.025,-9.0362,-9.0427,-9.0427,-9.0551,-9.0761,-9.1018,-9.1031,-9.1388,-9.1915,-9.1946,-9.1957,-9.2025,-9.23,-9.2221,-9.1957,0.1908,-0.0904,-0.4058,-0.7695,-1.0775,-1.3822,-1.6605,-2.0454,-2.4091,-2.7231,-2.9422,-3.2191,-3.614,-3.7261,-3.8947,-4.2154,-4.2465,-4.2178,-4.1422,-4.2073,-4.3233,-4.5201,-4.6809,-4.8532,-5.0359,-5.3818,-5.6164,-5.7312,-5.757,-5.8577,-6.043,-6.1082,-6.211,-6.3486,-6.5228,-6.58,-6.5493,-6.6651,-6.6902,-6.6557,-6.7894,-6.8033,-6.7688,-6.9856,-7.1192,-7.2022,-7.3289,-7.481,-7.6292,-7.6494,-7.777,-7.9243,-7.9428,-8.0548,-8.1778,-8.1997,-8.2899,-8.3681,-8.2784,-8.3929,-8.5423,-8.5904,-8.6987,-8.8051,-8.8391,-8.8845,-8.9263,-8.9376,-8.9415,-8.9452,-8.9604,-8.9603,-8.9904,-9.0775,-8.9714,-8.9032,-8.9714,-8.8539,-8.7554,-8.7402,-8.7289,-8.7137,-8.7023,-8.7023,-8.7023,-8.7023,-8.7023,-8.7023,-8.7023,-8.7216,-8.7293,-8.729,-8.7405,-8.7845,-8.8607,-8.952,-9.0091,-9.0205,-9.0317,-9.0362,-9.0362,-9.0508,-9.0551,-9.0572,-9.0572,-9.0761,-9.1035,-9.1292,-9.1605,-9.1926,-9.2221,-9.2316,-9.2316,-9.2377,-9.2377,-9.2316,-0.1,-0.4338,-0.7728,-1.0968,-1.3777,-1.6826,-2.0619,-2.4028,-2.7084,-2.9945,-3.2793,-3.5767,-3.8891,-4.0297,-4.2048,-4.4614,-4.5147,-4.6011,-4.7361,-4.6582,-4.6941,-4.9024,-5.0793,-5.2745,-5.4885,-5.7689,-5.9264,-5.9539,-6.0642,-6.1994,-6.3469,-6.3778,-6.4632,-6.5887,-6.6674,-6.7322,-6.7714,-6.8342,-6.8851,-6.933,-7.0518,-7.0878,-7.0918,-7.2496,-7.3465,-7.3948,-7.4601,-7.5638,-7.6825,-7.7794,-7.8992,-8.0297,-8.1236,-8.2104,-8.2903,-8.3368,-8.4261,-8.508,-8.4907,-8.6184,-8.7601,-8.7727,-8.8485,-8.922,-8.9374,-8.9616,-8.979,-8.979,-8.979,-8.979,-8.979,-8.979,-8.9942,-9.0321,-8.9752,-8.9373,-8.9752,-8.8805,-8.8047,-8.8047,-8.7668,-8.7402,-8.7402,-8.7402,-8.7402,-8.7402,-8.7402,-8.7426,-8.7459,-8.8015,-8.8356,-8.845,-8.8493,-8.8994,-8.9871,-9.0253,-9.0443,-9.0443,-9.0487,-9.0508,-9.0508,-9.0572,-9.0593,-9.0593,-9.0761,-9.1003,-9.1277,-9.1592,-9.1883,-9.2165,-9.2323,-9.2391,-9.2391,-9.2391,-9.2391,-9.2391,-0.4437,-0.7904,-1.1145,-1.3865,-1.6824,-2.0214,-2.4527,-2.7221,-2.9846,-3.3041,-3.6269,-3.9077,-4.1128,-4.3077,-4.4893,-4.6622,-4.7476,-4.9319,-5.2572,-5.1658,-5.1727,-5.3328,-5.5202,-5.7076,-5.8871,-6.083,-6.2095,-6.2561,-6.3994,-6.5263,-6.6345,-6.625,-6.6611,-6.7322,-6.781,-6.8518,-6.9358,-7.0234,-7.1192,-7.2211,-7.3388,-7.3956,-7.4223,-7.5142,-7.576,-7.6193,-7.6458,-7.7086,-7.7991,-7.9287,-8.037,-8.1418,-8.3012,-8.3847,-8.4462,-8.5337,-8.6291,-8.7105,-8.739,-8.8279,-8.92,-8.9388,-8.9679,-8.9887,-8.9887,-8.9887,-8.9887,-8.9887,-8.9887,-8.9863,-8.9839,-8.9839,-8.999,-9.037,-9.0104,-8.999,-9.0418,-8.9621,-8.8952,-8.8929,-8.8421,-8.8042,-8.8018,-8.8018,-8.8018,-8.8066,-8.8042,-8.8028,-8.8129,-8.8889,-8.9365,-8.9435,-8.9558,-8.9944,-9.0593,-9.0593,-9.0593,-9.0593,-9.0593,-9.0593,-9.0593,-9.0593,-9.0593,-9.0593,-9.082,-9.1137,-9.1536,-9.1706,-9.2035,-9.2391,-9.2391,-9.2391,-9.2391,-9.2391,-9.2547,-9.2703,-0.8692,-1.1494,-1.3947,-1.6339,-2.0356,-2.4365,-2.7618,-2.9863,-3.28,-3.7301,-3.9331,-4.121,-4.3101,-4.5112,-4.7127,-4.9208,-5.1022,-5.2956,-5.5204,-5.681,-5.7731,-5.7933,-5.9577,-6.1015,-6.2115,-6.3515,-6.5214,-6.7276,-6.6791,-6.7105,-6.8282,-6.794,-6.7449,-6.7049,-6.9105,-6.9698,-6.9372,-7.2223,-7.3458,-7.3674,-7.4766,-7.5276,-7.536,-7.6323,-7.7142,-7.798,-7.8924,-7.9829,-8.0587,-8.084,-8.1491,-8.2468,-8.3932,-8.5453,-8.6948,-8.8414,-8.9907,-9.0879,-9.0052,-8.9865,-9.0101,-9.0898,-9.0637,-9.0182,-9.0182,-9.0182,-9.0182,-9.0182,-9.0182,-9.0137,-8.9982,-8.9996,-9.049,-9.2071,-9.0984,-9.0575,-9.2252,-9.1096,-9.0022,-8.9906,-8.9961,-8.9946,-8.983,-8.983,-8.9877,-8.9992,-8.9877,-8.9877,-8.9992,-9.0203,-9.0351,-9.0496,-9.0496,-9.0555,-9.0593,-9.0593,-9.0593,-9.0593,-9.0593,-9.0593,-9.0593,-9.0593,-9.0593,-9.0593,-9.0614,-9.0969,-9.1522,-9.1498,-9.185,-9.2391,-9.2391,-9.2391,-9.2391,-9.2391,-9.2898,-9.3599,-1.1925,-1.4299,-1.6848,-2.0692,-2.3858,-2.6752,-2.9289,-3.2746,-3.6108,-3.903,-4.119,-4.3559,-4.6622,-4.8719,-5.0704,-5.2766,-5.4708,-5.6778,-5.9062,-6.0089,-6.0709,-6.0933,-6.3,-6.4648,-6.5757,-6.646,-6.7604,-6.9259,-6.8691,-6.883,-6.9564,-6.9415,-6.9723,-7.0464,-7.1823,-7.2619,-7.3141,-7.4281,-7.4999,-7.5569,-7.711,-7.8095,-7.8721,-8.0191,-8.0717,-8.0725,-8.1129,-8.1129,-8.1201,-8.2711,-8.3395,-8.4115,-8.6671,-8.7889,-8.8573,-8.9702,-9.0717,-9.1445,-9.1092,-9.0936,-9.0859,-9.0669,-9.0411,-9.0205,-9.0205,-9.0205,-9.0205,-9.0205,-9.0205,-9.0205,-9.0137,-9.0098,-9.0327,-9.0973,-9.0555,-9.035,-9.1042,-9.0586,-9.0182,-9.0137,-9.0182,-9.0182,-9.0137,-9.0098,-9.0159,-9.0205,-9.0159,-9.0205,-9.0317,-9.0465,-9.0551,-9.0572,-9.0593,-9.0593,-9.0593,-9.0593,-9.0593,-9.0593,-9.0593,-9.0593,-9.0593,-9.0593,-9.0593,-9.0614,-9.1024,-9.1284,-9.1589,-9.2505,-9.3021,-9.3249,-9.3755,-9.395,-9.395,-9.395,-9.4145,-9.4418,-1.4811,-1.7861,-2.1084,-2.4461,-2.7317,-2.9941,-3.2244,-3.5837,-3.8985,-4.1128,-4.3674,-4.6502,-4.9858,-5.1825,-5.3815,-5.6132,-5.7943,-5.9824,-6.1875,-6.3207,-6.397,-6.4154,-6.5716,-6.7184,-6.85,-6.852,-6.9272,-7.0791,-7.046,-7.0747,-7.1671,-7.177,-7.2438,-7.3479,-7.4268,-7.5154,-7.6175,-7.6753,-7.7438,-7.8258,-7.9906,-8.0909,-8.1565,-8.2821,-8.3191,-8.3085,-8.3265,-8.319,-8.3186,-8.4996,-8.559,-8.6084,-8.8817,-9.0172,-9.0944,-9.1744,-9.2137,-9.2292,-9.2025,-9.1781,-9.1461,-9.0806,-9.0486,-9.0317,-9.0317,-9.0317,-9.0317,-9.0317,-9.0317,-9.0317,-9.0273,-9.0273,-9.0273,-9.0273,-9.0273,-9.0273,-9.0317,-9.0317,-9.0317,-9.0273,-9.0295,-9.0295,-9.0273,-9.0273,-9.0273,-9.0317,-9.0295,-9.0317,-9.0465,-9.0551,-9.0593,-9.0593,-9.0593,-9.0593,-9.0593,-9.0593,-9.0593,-9.0593,-9.0593,-9.0593,-9.0593,-9.0593,-9.0746,-9.1017,-9.1506,-9.1938,-9.2377,-9.3513,-9.3991,-9.4145,-9.469,-9.4885,-9.4885,-9.4885,-9.508,-9.5314,-1.7397,-2.2621,-2.6786,-2.7304,-3.0656,-3.4197,-3.6898,-3.908,-4.1343,-4.403,-4.7181,-5.0081,-5.2477,-5.4123,-5.6158,-5.898,-6.0607,-6.1968,-6.3272,-6.6483,-6.8176,-6.7847,-6.7847,-6.8559,-7.0061,-6.9371,-7.0148,-7.2432,-7.2101,-7.2901,-7.4808,-7.5232,-7.5401,-7.5436,-7.6195,-7.7004,-7.7856,-7.9716,-8.0977,-8.1845,-8.3038,-8.3483,-8.3519,-8.3519,-8.4027,-8.4826,-8.5469,-8.6221,-8.7019,-8.7756,-8.8032,-8.8294,-9.0001,-9.2115,-9.4164,-9.4963,-9.4715,-9.4006,-9.3129,-9.2379,-9.1794,-9.1626,-9.1097,-9.0593,-9.0593,-9.0593,-9.0593,-9.0593,-9.0593,-9.0551,-9.0405,-9.0383,-9.0383,-9.0383,-9.0383,-9.0465,-9.0572,-9.0593,-9.0551,-9.0405,-9.053,-9.0551,-9.0405,-9.0383,-9.0465,-9.0572,-9.0487,-9.0487,-9.0572,-9.0593,-9.0593,-9.0593,-9.0593,-9.0593,-9.0593,-9.0593,-9.0593,-9.0593,-9.0631,-9.0631,-9.0631,-9.0631,-9.1052,-9.182,-9.218,-9.2949,-9.4026,-9.435,-9.4659,-9.4924,-9.4924,-9.4924,-9.4924,-9.4924,-9.547,-9.621,-2.3966,-2.6832,-2.9604,-3.1662,-3.4973,-3.7755,-3.9209,-4.2267,-4.5651,-4.9211,-5.0828,-5.2983,-5.6434,-5.844,-5.9951,-6.1185,-6.3872,-6.6276,-6.7964,-6.8996,-7.0004,-7.1012,-7.0231,-7.0399,-7.1701,-7.1509,-7.2529,-7.4881,-7.4256,-7.4639,-7.5993,-7.6095,-7.6935,-7.8341,-7.9009,-8.0226,-8.1824,-8.2382,-8.2747,-8.3036,-8.395,-8.461,-8.5105,-8.5722,-8.6427,-8.7073,-8.7353,-8.7626,-8.7904,-8.8617,-8.8839,-8.9238,-9.148,-9.313,-9.4341,-9.457,-9.4516,-9.4157,-9.3301,-9.2902,-9.2406,-9.12,-9.0742,-9.0593,-9.0593,-9.0593,-9.0593,-9.0593,-9.0593,-9.0572,-9.0551,-9.053,-9.053,-9.053,-9.053,-9.0551,-9.0572,-9.0593,-9.0572,-9.0551,-9.0572,-9.0572,-9.0551,-9.053,-9.0551,-9.0572,-9.0551,-9.0551,-9.0572,-9.0593,-9.0593,-9.0593,-9.0593,-9.0593,-9.0593,-9.0593,-9.0593,-9.0631,-9.1166,-9.1434,-9.1472,-9.2083,-9.2595,-9.3063,-9.3373,-9.3808,-9.4401,-9.532,-9.5744,-9.5859,-9.6483,-9.6717,-9.6717,-9.6717,-9.6873,-9.7106,-2.8187,-3.1295,-3.4115,-3.6161,-3.943,-4.2086,-4.2837,-4.6214,-4.9614,-5.226,-5.4039,-5.6338,-5.9684,-6.1612,-6.3057,-6.4131,-6.6791,-6.9112,-7.0735,-7.1246,-7.2164,-7.3599,-7.3416,-7.3383,-7.365,-7.3841,-7.4753,-7.6451,-7.6277,-7.6857,-7.8089,-7.8574,-7.9629,-8.1107,-8.1499,-8.2562,-8.3953,-8.3953,-8.4282,-8.4863,-8.5372,-8.6011,-8.668,-8.7248,-8.775,-8.8115,-8.8466,-8.8608,-8.8691,-8.944,-8.9701,-9.0124,-9.2284,-9.3393,-9.4032,-9.4681,-9.4643,-9.4299,-9.3764,-9.3115,-9.2351,-9.1319,-9.109,-9.1013,-9.0669,-9.0593,-9.0593,-9.0593,-9.0593,-9.0593,-9.0593,-9.0593,-9.0593,-9.0593,-9.0593,-9.0593,-9.0593,-9.0593,-9.0593,-9.0593,-9.0593,-9.0593,-9.0593,-9.0593,-9.0593,-9.0593,-9.0593,-9.0593,-9.0593,-9.0593,-9.0746,-9.1052,-9.109,-9.1243,-9.1586,-9.1586,-9.1434,-9.109,-9.193,-9.2312,-9.2312,-9.2847,-9.3443,-9.4093,-9.4404,-9.4873,-9.555,-9.6381,-9.6717,-9.6756,-9.7301,-9.7496,-9.7496,-9.7496,-9.7496,-9.7496,-3.1137,-3.5777,-3.9745,-4.0815,-4.4112,-4.6864,-4.7422,-5.0775,-5.3513,-5.4175,-5.7006,-5.9914,-6.2368,-6.3916,-6.547,-6.7336,-6.9255,-7.0925,-7.2154,-7.3383,-7.4585,-7.5703,-7.6802,-7.6972,-7.6007,-7.6193,-7.673,-7.758,-7.8216,-7.9277,-8.078,-8.1883,-8.2831,-8.3591,-8.3628,-8.41,-8.4899,-8.4899,-8.5735,-8.7019,-8.7077,-8.7497,-8.8115,-8.8263,-8.8313,-8.8494,-8.9081,-8.9338,-8.944,-9.019,-9.0508,-9.0899,-9.258,-9.3115,-9.3421,-9.5102,-9.5025,-9.4414,-9.4414,-9.3191,-9.1892,-9.1816,-9.1816,-9.1586,-9.0784,-9.0593,-9.0593,-9.0593,-9.0593,-9.0593,-9.0593,-9.0593,-9.0593,-9.0593,-9.0593,-9.0593,-9.0593,-9.0593,-9.0593,-9.0593,-9.0593,-9.0593,-9.0593,-9.0593,-9.0593,-9.0593,-9.0669,-9.0708,-9.0708,-9.0784,-9.1166,-9.1892,-9.193,-9.2312,-9.3077,-9.3191,-9.2771,-9.193,-9.2809,-9.3229,-9.3229,-9.3311,-9.3963,-9.4975,-9.5301,-9.6075,-9.7048,-9.7355,-9.7496,-9.7496,-9.7496,-9.7496,-9.7496,-9.7496,-9.7496,-9.7496,-3.8392,-4.088,-4.3295,-4.5152,-4.8419,-5.1001,-5.1961,-5.5076,-5.8022,-6.0049,-6.0999,-6.2652,-6.5834,-6.6514,-6.7336,-6.8934,-7.1228,-7.3248,-7.4669,-7.5743,-7.6496,-7.6892,-7.7934,-7.8756,-7.9276,-7.7961,-7.8139,-7.9787,-7.9928,-8.0983,-8.286,-8.3119,-8.3664,-8.4424,-8.4572,-8.5371,-8.6518,-8.6691,-8.7193,-8.7904,-8.7928,-8.8351,-8.8947,-8.9081,-8.9452,-8.9953,-9.0212,-9.0279,-9.0301,-9.0508,-9.0572,-9.0899,-9.258,-9.3115,-9.3421,-9.5102,-9.5025,-9.4414,-9.4414,-9.365,-9.2656,-9.1969,-9.1816,-9.1586,-9.0784,-9.0593,-9.0593,-9.0593,-9.0593,-9.0593,-9.0593,-9.0593,-9.0593,-9.0593,-9.0593,-9.0593,-9.0593,-9.0593,-9.0593,-9.0593,-9.0593,-9.0593,-9.0593,-9.0593,-9.0593,-9.0593,-9.1166,-9.1548,-9.1548,-9.2198,-9.2656,-9.2809,-9.2809,-9.2924,-9.3115,-9.3803,-9.3688,-9.2847,-9.3688,-9.4108,-9.4146,-9.5058,-9.5724,-9.6228,-9.6502,-9.6903,-9.741,-9.7481,-9.7496,-9.7496,-9.7496,-9.7496,-9.7496,-9.7496,-9.7496,-9.7496,-4.3639,-4.5544,-4.7335,-4.9638,-5.2307,-5.4599,-5.6081,-5.8599,-6.0862,-6.2264,-6.3708,-6.5396,-6.7306,-6.8705,-7.0305,-7.229,-7.3638,-7.4959,-7.6336,-7.7327,-7.7934,-7.8147,-7.9524,-8.0581,-8.1091,-8.0951,-8.1207,-8.1783,-8.1899,-8.2672,-8.4062,-8.4391,-8.5006,-8.5842,-8.6258,-8.6841,-8.7593,-8.7687,-8.8085,-8.8663,-8.8746,-8.9159,-8.9773,-8.993,-9.0174,-9.0508,-9.0572,-9.0593,-9.0593,-9.0593,-9.0593,-9.0822,-9.2083,-9.2465,-9.2733,-9.4032,-9.4108,-9.3803,-9.3803,-9.3153,-9.2351,-9.1892,-9.151,-9.1128,-9.0708,-9.0593,-9.0593,-9.0593,-9.0593,-9.0593,-9.0593,-9.0593,-9.0593,-9.0593,-9.0593,-9.0593,-9.0593,-9.0937,-9.1166,-9.1166,-9.1548,-9.1778,-9.1778,-9.1778,-9.1778,-9.1778,-9.2198,-9.2427,-9.2427,-9.2847,-9.3306,-9.3726,-9.3823,-9.4116,-9.452,-9.5137,-9.5231,-9.4769,-9.506,-9.5309,-9.5462,-9.6082,-9.6514,-9.6812,-9.6947,-9.7169,-9.7496,-9.7496,-9.7496,-9.7496,-9.7496,-9.7496,-9.7496,-9.7496,-9.7496,-9.7496,-4.844,-5.011,-5.173,-5.4376,-5.6402,-5.8333,-6.0039,-6.2102,-6.347,-6.3684,-6.6168,-6.8029,-6.8441,-7.0893,-7.3379,-7.5431,-7.5986,-7.6565,-7.7555,-7.8664,-7.9377,-7.9617,-8.1293,-8.2284,-8.2465,-8.3908,-8.4378,-8.3664,-8.3919,-8.4464,-8.5264,-8.5825,-8.6454,-8.7173,-8.7781,-8.8175,-8.8437,-8.8437,-8.8839,-8.9465,-8.9565,-8.9953,-9.0465,-9.0551,-9.0593,-9.0593,-9.0593,-9.0593,-9.0593,-9.0593,-9.0593,-9.0746,-9.1548,-9.1892,-9.2198,-9.3077,-9.3306,-9.3306,-9.3306,-9.258,-9.1854,-9.1969,-9.1395,-9.0861,-9.1013,-9.0822,-9.0593,-9.0593,-9.0593,-9.0652,-9.085,-9.0826,-9.0902,-9.1142,-9.1079,-9.1034,-9.1118,-9.1629,-9.2007,-9.2007,-9.2656,-9.3115,-9.3115,-9.3115,-9.3098,-9.3183,-9.3298,-9.3416,-9.3461,-9.3614,-9.4035,-9.4763,-9.4983,-9.5473,-9.6166,-9.6452,-9.6619,-9.6662,-9.6404,-9.6371,-9.659,-9.6648,-9.6799,-9.7005,-9.7048,-9.7246,-9.7496,-9.7496,-9.7496,-9.7496,-9.7496,-9.7496,-9.7496,-9.7496,-9.7496,-9.7496,-5.4626,-5.5473,-5.6576,-5.9712,-6.1825,-6.3225,-6.3827,-6.6396,-6.8256,-6.8026,-6.9298,-7.0543,-7.1265,-7.3584,-7.5287,-7.579,-7.7415,-7.8517,-7.8846,-8.0396,-8.1403,-8.1592,-8.2534,-8.3442,-8.4315,-8.511,-8.5492,-8.5355,-8.5987,-8.6683,-8.746,-8.7556,-8.7718,-8.7873,-8.8123,-8.8617,-8.9237,-8.9415,-8.9859,-9.0405,-9.0427,-9.0508,-9.0572,-9.0572,-9.0593,-9.0593,-9.0593,-9.0593,-9.0593,-9.0593,-9.0593,-9.0746,-9.1548,-9.2312,-9.3115,-9.3994,-9.4223,-9.4223,-9.4223,-9.3038,-9.1969,-9.2733,-9.2274,-9.1854,-9.258,-9.1663,-9.0593,-9.0593,-9.0593,-9.0908,-9.191,-9.1815,-9.2083,-9.3338,-9.312,-9.2881,-9.3139,-9.3021,-9.2924,-9.2924,-9.3038,-9.3115,-9.3115,-9.3115,-9.3207,-9.3504,-9.4176,-9.4706,-9.4984,-9.5733,-9.6181,-9.6297,-9.6344,-9.6413,-9.6514,-9.656,-9.6718,-9.6959,-9.6885,-9.676,-9.659,-9.685,-9.6971,-9.7016,-9.7321,-9.7473,-9.7496,-9.7496,-9.7496,-9.7496,-9.7496,-9.7496,-9.7496,-9.7496,-9.7496,-9.7496,-5.9003,-5.9752,-6.0558,-6.2738,-6.4175,-6.5622,-6.7301,-6.8405,-6.9276,-7.0047,-7.0891,-7.1794,-7.2881,-7.5104,-7.6837,-7.7467,-7.882,-7.9964,-8.0667,-8.1874,-8.2606,-8.2829,-8.3991,-8.4788,-8.5224,-8.6708,-8.7525,-8.7541,-8.7433,-8.7558,-8.7929,-8.8346,-8.8569,-8.8701,-8.9223,-8.9701,-9.0083,-9.019,-9.0628,-9.1243,-9.0784,-9.0861,-9.1204,-9.0784,-9.0593,-9.0593,-9.0593,-9.0593,-9.0593,-9.0593,-9.0593,-9.0669,-9.1013,-9.1701,-9.2465,-9.2847,-9.3306,-9.3688,-9.3688,-9.3115,-9.2618,-9.3,-9.2809,-9.2618,-9.3,-9.2886,-9.2542,-9.2083,-9.1755,-9.1874,-9.2864,-9.3033,-9.3247,-9.3906,-9.3785,-9.3589,-9.3574,-9.387,-9.4214,-9.4713,-9.479,-9.4849,-9.5034,-9.5052,-9.5122,-9.5252,-9.5599,-9.5856,-9.6009,-9.6396,-9.659,-9.659,-9.6759,-9.6837,-9.6837,-9.7021,-9.7178,-9.7264,-9.7264,-9.7217,-9.7126,-9.7227,-9.7264,-9.7303,-9.7426,-9.7496,-9.7496,-9.7496,-9.7496,-9.7496,-9.7496,-9.7496,-9.7496,-9.7496,-9.7496,-9.7496]},{"header":{"parameterUnit":"m.s-1","parameterCategory":1,"la1":30.6,"la2":28.766,"lo1":-90.7593,"lo2":-88.6598,"dx":0.0162,"dy":0.0183,"nx":116,"ny":114,"refTime":"2023-01-16T06:00:00:Z","depth":0,"parameterNumber":3,"parameterNumberName":"V-component_of_WINDS"},"data":[0.0,0.0,0.0,0.0,0.0,0.0,0.0,0.0,0.0,0.0,0.0,0.0,0.0,0.0,0.0,0.0,0.0,0.0,0.0,0.0,0.0,0.0,0.0,0.0,0.0,0.0,0.0,0.0,0.0,0.0,0.0,0.0,0.0,0.0,0.0,0.0,0.0,0.0,0.0,0.0,0.0,0.0,0.0,0.0,0.0,0.0,0.0,0.0,0.0,0.0,0.0,0.0,0.0,0.0,0.0,0.0,0.0,0.0,0.0,0.0,0.0,0.0,0.0,0.0,0.0,0.0,0.0,0.0,0.0,0.0,0.0,0.0,0.0,0.0,0.0,0.0,0.0,0.0,0.0,0.0,0.0,0.0,0.0,0.0,0.0,0.0,0.0,0.0,0.0,0.0,0.0,0.0,0.0,0.0,0.0,0.0,0.0,0.0,0.0,0.0,0.0,0.0,0.0,0.0,0.0,0.0,0.0,0.0,0.0,0.0,0.0,0.0,0.0,0.0,0.0,0.0,0.0,0.0,0.0,0.0,0.0,0.0,0.0,0.0,0.0,0.0,0.0,0.0,0.0,0.0,0.0,0.0,0.0,0.0,0.0,0.0,0.0,0.0,0.0,0.0,0.0,0.0,0.0,0.0,0.0,0.0,0.0,0.0,0.0,0.0,0.0,0.0,0.0,0.0,0.0,0.0,0.0,0.0,0.0,0.0,0.0,0.0,0.0,0.0,0.0,0.0,0.0,0.0,0.0,0.0,0.0,0.0,0.0,0.0,0.0,0.0,0.0,0.0,0.0,0.0,0.0,0.0,0.0,0.0,0.0,0.0,0.0,0.0,0.0,0.0,0.0,0.0,0.0,0.0,0.0,0.0,0.0,0.0,0.0,0.0,0.0,0.0,0.0,0.0,0.0,0.0,0.0,0.0,0.0,0.0,0.0,0.0,0.0,0.0,0.0,0.0,0.0,0.0,0.0,0.0,0.0,0.0,0.0,0.0,0.0,0.0,0.0,0.0,0.0,0.0,0.0,0.0,0.0,0.0,0.0,0.0,0.0,0.0,0.0,0.0,0.0,0.0,0.0,0.0,0.0,0.0,0.0,0.0,0.0,0.0,0.0,0.0,0.0,0.0,0.0,0.0,0.0,0.0,0.0,0.0,0.0,0.0,0.0,0.0,0.0,0.0,0.0,0.0,0.0,0.0,0.0,0.0,0.0,0.0,0.0,0.0,0.0,0.0,0.0,0.0,0.0,0.0,0.0,0.0,0.0,0.0,0.0,0.0,0.0,0.0,0.0,0.0,0.0,0.0,0.0,0.0,0.0,0.0,0.0,0.0,0.0,0.0,0.0,0.0,0.0,0.0,0.0,0.0,0.0,0.0,0.0,0.0,0.0,0.0,0.0,0.0,0.0,0.0,0.0,0.0,0.0,0.0,0.0,0.0,0.0,0.0,0.0,0.0,0.0,0.0,0.0,0.0,0.0,0.0,0.0,0.0,0.0,0.0,0.0,0.0,0.0,0.0,0.0,0.0,0.0,0.0,0.0,0.0,0.0,0.0,0.0,0.0,0.0,0.0,0.0,0.0,0.0,0.0,0.0,0.0,0.0,0.0,0.0,0.0,0.0,0.0,0.0,0.0,0.0,0.0,0.0,0.0,0.0,0.0,0.0,0.0,0.0,0.0,0.0,0.0,0.0,0.0,0.0,0.0,0.0,0.0,0.0,0.0,0.0,0.0,0.0,0.0,0.0,0.0,0.0,0.0,0.0,0.0,0.0,0.0,0.0,0.0,0.0,0.0,0.0,0.0,0.0,0.0,0.0,0.0,0.0,0.0,0.0,0.0,0.0,0.0,0.0,0.0,0.0,0.0,0.0,0.0,0.0,0.0,0.0,0.0,0.0,0.0,0.0,0.0,0.0,0.0,0.0,0.0,0.0,0.0,0.0,0.0,0.0,0.0,0.0,0.0,0.0,0.0,0.0,0.0,0.0,0.0,0.0,0.0,0.0,0.0,0.0,0.0,0.0,0.0,0.0,0.0,0.0,0.0,0.0,0.0,0.0,0.0,0.0,0.0,0.0,0.0,0.0,0.0,0.0,0.0,0.0,0.0,0.0,0.0,0.0,0.0,0.0,0.0,0.0,0.0,0.0,0.0,0.0,0.0,0.0,0.0,0.0,0.0,0.0,0.0,0.0,0.0,0.0,0.0,0.0,0.0,0.0,0.0,0.0,0.0,0.0,0.0,0.0,0.0,0.0,0.0,0.0,0.0,0.0,0.0,0.0,0.0,0.0,0.0,0.0,0.0,0.0,0.0,0.0,0.0,0.0,0.0,0.0,0.0,0.0,0.0,0.0,0.0,0.0,0.0,0.0,0.0,0.0,0.0,0.0,0.0,0.0,0.0,0.0,0.0,0.0,0.0,0.0,0.0,0.0,0.0,0.0,0.0,0.0,0.0,0.0,0.0,0.0,0.0,0.0,0.0,0.0,0.0,0.0,0.0,0.0,0.0,0.0,0.0,0.0,0.0,0.0,0.0,0.0,0.0,0.0,0.0,0.0,0.0,0.0,0.0,0.0,0.0,0.0,0.0,0.0,0.0,0.0,0.0,0.0,0.0,0.0,0.0,0.0,0.0,0.0,0.0,0.0,0.0,0.0,0.0,0.0,0.0,0.0,0.0,0.0,0.0,0.0,0.0,0.0,0.0,0.0,0.0,0.0,0.0,0.0,0.0,0.0,0.0,0.0,0.0,0.0,0.0,0.0,0.0,0.0,0.0,0.0,0.0,0.0,0.0,0.0,0.0,0.0,0.0,0.0,0.0,0.0,0.0,0.0,0.0,0.0,0.0,0.0,0.0,0.0,0.0,0.0,0.0,0.0,0.0,0.0,0.0,0.0,0.0,0.0,0.0,0.0,0.0,0.0,0.0,0.0,0.0,0.0,0.0,0.0,0.0,0.0,0.0,0.0,0.0,0.0,0.0,0.0,0.0,0.0,0.0,0.0,0.0,0.0,0.0,0.0,0.0,0.0,0.0,0.0,0.0,0.0,0.0,0.0,0.0,0.0,0.0,0.0,0.0,0.0,0.0,0.0,0.0,0.0,0.0,0.0,0.0,0.0,0.0,0.0,0.0,0.0,0.0,0.0,0.0,0.0,0.0,0.0,0.0,0.0,0.0,0.0,0.0,0.0,0.0,0.0,0.0,0.0,0.0,0.0,0.0,0.0,0.0,0.0,0.0,0.0,0.0,0.0,0.0,0.0,0.0,0.0,0.0,0.0,0.0,0.0,0.0,0.0,0.0,0.0,0.0,0.0,0.0,0.0,0.0,0.0,0.0,0.0,0.0,0.0,0.0,0.0,0.0,0.0,0.0,0.0,0.0,0.0,0.0,0.0,0.0,0.0,0.0,0.0,0.0,0.0,0.0,0.0,0.0,0.0,0.0,0.0,0.0,0.0,0.0,0.0,0.0,0.0,0.0,0.0,0.0,0.0,0.0,0.0,0.0,0.0,0.0,0.0,0.0,0.0,0.0,0.0,0.0,0.0,0.0,0.0,0.0,0.0,0.0,0.0,0.0,0.0,0.0,0.0,0.0,0.0,0.0,0.0,0.0,0.0,0.0,0.0,0.0,0.0,0.0,0.0,0.0,0.0,0.0,0.0,0.0,0.0,0.0,0.0,0.0,0.0,0.0,0.0,0.0,0.0,0.0,0.0,0.0,0.0,0.0,0.0,0.0,0.0,0.0,0.0,0.0,0.0,0.0,0.0,0.0,0.0,0.0,0.0,0.0,0.0,0.0,0.0,0.0,0.0,0.0,0.0,0.0,0.0,0.0,0.0,0.0,0.0,0.0,0.0,0.0,0.0,0.0,0.0,0.0,0.0,0.0,0.0,0.0,0.0,0.0,0.0,0.0,0.0,0.0,0.0,0.0,0.0,0.0,0.0,0.0,0.0,0.0,0.0,0.0,0.0,0.0,0.0,0.0,0.0,0.0,0.0,0.0,0.0,0.0,0.0,0.0,0.0,0.0,0.0,0.0,0.0,0.0,0.0,0.0,0.0,0.0,0.0,0.0,0.0,0.0,0.0,0.0,0.0,0.0,0.0,0.0,0.0,0.0,0.0,0.0,0.0,0.0,0.0,0.0,0.0,0.0,0.0,0.0,0.0,0.0,0.0,0.0,0.0,0.0,0.0,0.0,0.0,0.0,0.0,0.0,0.0,0.0,0.0,0.0,0.0,0.0,0.0,0.0,0.0,0.0,0.0,0.0,0.0,0.0,0.0,0.0,0.0,0.0,0.0,0.0,0.0,0.0,0.0,0.0,0.0,0.0,0.0,0.0,0.0,0.0,0.0,0.0,0.0,0.0,0.0,0.0,0.0,0.0,0.0,0.0,0.0,0.0,0.0,0.0,0.0,0.0,0.0,0.0,0.0,0.0,0.0,0.0,0.0,0.0,0.0,0.0,0.0,0.0,0.0,0.0,0.0,0.0,0.0,0.0,0.0,0.0,0.0,0.0,0.0,0.0,0.0,0.0,0.0,0.0,0.0,0.0,0.0,0.0,0.0,0.0,0.0,0.0,0.0,0.0,0.0,0.0,0.0,0.0,0.0,0.0,0.0,0.0,0.0,0.0,0.0,0.0,0.0,0.0,0.0,0.0,0.0,0.0,0.0,0.0,0.0,0.0,0.0,0.0,0.0,0.0,0.0,0.0,0.0,0.0,0.0,0.0,0.0,0.0,0.0,0.0,0.0,0.0,0.0,0.0,0.0,0.0,0.0,0.0,0.0,0.0,0.0,0.0,0.0,0.0,0.0,0.0,0.0,0.0,0.0,0.0,0.0,0.0,0.0,0.0,0.0,0.0,0.0,0.0,0.0,0.0,0.0,0.0,0.0,0.0,0.0,0.0,0.0,0.0,0.0,0.0,0.0,0.0,0.0,0.0,0.0,0.0,0.0,0.0,0.0,0.0,0.0,0.0,0.0,0.0,0.0,0.0,0.0,0.0,0.0,0.0,0.0,0.0,0.0,0.0,0.0,0.0,0.0,0.0,0.0,0.0,0.0,0.0,0.0,0.0,0.0,0.0,0.0,0.0,0.0,0.0,0.0,0.0,0.0,0.0,0.0,0.0,0.0,0.0,0.0,0.0,0.0,0.0,0.0,0.0,0.0,0.0,0.0,0.0,0.0,0.0,0.0,0.0,0.0,0.0,0.0,0.0,0.0,0.0,0.0,0.0,0.0,0.0,0.0,0.0,0.0,0.0,0.0,0.0,0.0,0.0,0.0,0.0,0.0,0.0,0.0,0.0,0.0,0.0,0.0,0.0,0.0,0.0,0.0,0.0,0.0,0.0,0.0,0.0,0.0,0.0,0.0,0.0,0.0,0.0,0.0,0.0,0.0,0.0,0.0,0.0,0.0,0.0,0.0,0.0,0.0,0.0,0.0,0.0,0.0,0.0,0.0,0.0,0.0,0.0,0.0,0.0,0.0,0.0,0.0,0.0,0.0,0.0,0.0,0.0,0.0,0.0,0.0,0.0,0.0,0.0,0.0,0.0,0.0,0.0,0.0,0.0,0.0,0.0,0.0,0.0,0.0,0.0,0.0,0.0,0.0,0.0,0.0,0.0,0.0,0.0,0.0,0.0,0.0,0.0,0.0,0.0,0.0,0.0,0.0,0.0,0.0,0.0,0.0,0.0,0.0,0.0,0.0,0.0,0.0,0.0,0.0,0.0,0.0,0.0,0.0,0.0,0.0,0.0,0.0,0.0,0.0,0.0,0.0,0.0,0.0,0.0,0.0,0.0,0.0,0.0,0.0,0.0,0.0,0.0,0.0,0.0,0.0,0.0,0.0,0.0,0.0,0.0,0.0,0.0,0.0,0.0,0.0,0.0,0.0,0.0,0.0,0.0,0.0,0.0,0.0,0.0,0.0,0.0,0.0,0.0,0.0,0.0,0.0,0.0,0.0,0.0,0.0,0.0,0.0,0.0,0.0,0.0,0.0,0.0,0.0,0.0,0.0,0.0,0.0,0.0,0.0,0.0,0.0,0.0,0.0,0.0,0.0,0.0,0.0,0.0,0.0,0.0,0.0,0.0,0.0,0.0,0.0,0.0,0.0,0.0,0.0,0.0,4.7908,4.5341,0.0,0.0,0.0,0.0,0.0,0.0,0.0,0.0,0.0,0.0,0.0,0.0,0.0,0.0,0.0,0.0,0.0,0.0,0.0,0.0,0.0,0.0,0.0,0.0,0.0,0.0,0.0,0.0,0.0,0.0,0.0,0.0,0.0,0.0,0.0,0.0,0.0,0.0,2.8812,2.9827,3.0812,2.9027,2.8011,2.7673,0.0,0.0,0.0,0.0,0.0,0.0,0.0,0.0,0.0,0.0,0.0,0.0,0.0,0.0,0.0,0.0,0.0,0.0,0.0,0.0,0.0,0.0,0.0,0.0,0.0,0.0,0.0,0.0,0.0,0.0,0.0,0.0,0.0,0.0,0.0,0.0,0.0,0.0,0.0,0.0,0.0,0.0,0.0,0.0,0.0,0.0,0.0,0.0,0.0,0.0,0.0,0.0,0.0,0.0,0.0,0.0,0.0,0.0,0.0,0.0,0.0,0.0,0.0,0.0,0.0,0.0,0.0,0.0,0.0,0.0,5.1134,4.8346,0.0,0.0,0.0,0.0,0.0,0.0,0.0,0.0,0.0,0.0,0.0,0.0,0.0,0.0,0.0,0.0,0.0,0.0,0.0,0.0,0.0,0.0,0.0,0.0,2.6419,2.7026,2.6534,2.6357,0.0,0.0,0.0,0.0,0.0,0.0,0.0,2.8873,2.952,3.0755,3.1674,3.241,3.2936,3.2936,3.2656,3.2044,3.1182,0.0,0.0,0.0,0.0,0.0,0.0,0.0,0.0,0.0,0.0,0.0,0.0,0.0,0.0,0.0,0.0,0.0,0.0,0.0,0.0,0.0,0.0,0.0,0.0,0.0,0.0,0.0,0.0,0.0,0.0,0.0,0.0,0.0,0.0,0.0,0.0,0.0,0.0,0.0,0.0,0.0,0.0,0.0,0.0,0.0,0.0,0.0,0.0,0.0,0.0,0.0,0.0,0.0,0.0,0.0,0.0,0.0,0.0,0.0,0.0,0.0,0.0,0.0,5.7932,5.8281,5.7088,5.8381,5.8968,5.8746,5.4953,5.2473,5.1085,5.0617,0.0,0.0,0.0,0.0,0.0,0.0,0.0,0.0,0.0,0.0,0.0,0.0,0.0,0.0,0.0,0.0,0.0,0.0,0.0,0.0,0.0,2.9771,2.9771,2.9863,2.9771,2.9525,0.0,0.0,0.0,0.0,0.0,0.0,3.014,3.072,3.1366,3.2136,3.4014,3.4998,3.509,3.509,3.5029,3.4874,3.2967,3.2044,3.1828,0.0,0.0,0.0,0.0,0.0,0.0,0.0,0.0,0.0,0.0,0.0,0.0,0.0,0.0,0.0,0.0,0.0,0.0,0.0,0.0,0.0,0.0,0.0,0.0,0.0,0.0,0.0,0.0,0.0,0.0,0.0,0.0,0.0,0.0,0.0,0.0,0.0,0.0,0.0,0.0,0.0,4.1364,4.154,0.0,0.0,0.0,0.0,0.0,0.0,0.0,0.0,0.0,0.0,0.0,0.0,0.0,5.6624,5.7249,5.8964,5.9716,5.9672,6.119,6.1812,6.162,6.1943,6.212,6.2088,6.1517,0.0,5.6716,5.6682,0.0,0.0,0.0,0.0,0.0,0.0,0.0,0.0,0.0,0.0,0.0,0.0,0.0,0.0,0.0,0.0,0.0,0.0,0.0,0.0,0.0,3.0632,3.0694,3.1459,3.1182,3.0843,3.0535,3.0874,0.0,0.0,0.0,3.1705,3.2105,3.2782,3.4014,3.583,3.6722,3.7369,3.7738,3.7369,3.7184,3.7153,3.623,3.4752,3.2936,3.2659,0.0,0.0,0.0,0.0,0.0,0.0,0.0,0.0,0.0,0.0,0.0,0.0,0.0,0.0,0.0,0.0,0.0,0.0,0.0,0.0,0.0,0.0,0.0,0.0,0.0,0.0,0.0,0.0,0.0,0.0,0.0,0.0,0.0,0.0,0.0,0.0,0.0,0.0,0.0,4.1635,4.2708,4.2826,4.45,4.5964,0.0,0.0,0.0,0.0,0.0,0.0,0.0,0.0,0.0,5.8566,5.9166,5.9816,6.0566,6.1724,6.2374,6.249,6.3576,6.4056,6.4056,6.4134,6.416,6.416,6.4211,6.3367,6.196,6.097,5.9774,5.858,0.0,0.0,0.0,0.0,5.7644,5.8227,0.0,0.0,0.0,0.0,0.0,0.0,0.0,0.0,0.0,0.0,0.0,0.0,3.1828,3.1643,3.1921,3.309,3.2749,3.2471,3.2471,3.3059,0.0,0.0,3.3675,3.3952,3.3921,3.4783,3.623,3.8262,3.8785,3.9185,3.9459,3.9152,3.9031,3.9,3.8846,3.7246,3.4691,3.4352,3.3614,3.2628,0.0,0.0,0.0,0.0,0.0,0.0,0.0,0.0,0.0,0.0,0.0,0.0,0.0,0.0,0.0,0.0,0.0,0.0,0.0,0.0,0.0,0.0,0.0,0.0,0.0,0.0,0.0,0.0,0.0,0.0,0.0,0.0,0.0,0.0,0.0,0.0,0.0,4.3623,4.488,4.5029,4.7513,4.9264,0.0,0.0,0.0,0.0,0.0,0.0,5.8572,5.9471,6.0333,6.1199,6.2161,6.2866,6.345,6.4359,6.4867,6.5007,6.5632,6.5925,6.5925,6.5925,6.5925,6.5925,6.5925,6.5925,6.5778,6.4061,6.2654,6.1506,6.1405,6.1719,6.1974,5.9992,5.9882,6.0539,0.0,0.0,0.0,0.0,0.0,0.0,0.0,0.0,0.0,0.0,0.0,3.2536,3.3244,3.3891,3.4597,3.5306,3.5337,3.5306,3.5306,3.5922,3.5984,3.5398,3.7184,3.7307,3.546,3.6661,3.743,3.7554,3.9459,4.0074,3.949,4.0105,4.0382,4.0351,3.9705,3.9,3.8169,3.6876,3.6292,3.6014,3.3398,0.0,0.0,0.0,0.0,0.0,0.0,0.0,0.0,0.0,0.0,0.0,0.0,0.0,0.0,0.0,0.0,0.0,0.0,0.0,0.0,0.0,0.0,0.0,0.0,0.0,0.0,0.0,0.0,0.0,0.0,0.0,0.0,0.0,0.0,0.0,0.0,0.0,0.0,4.9522,5.1966,0.0,0.0,0.0,0.0,5.6645,5.8159,5.9627,6.086,6.2055,6.3281,6.4503,6.564,6.6276,6.6266,6.71,6.7504,6.753,6.754,6.7577,6.7577,6.7577,6.7577,6.7577,6.7577,6.7577,6.743,6.5852,6.5076,6.4835,6.4835,6.4755,6.4502,6.3795,6.3053,6.2372,0.0,0.0,0.0,0.0,0.0,0.0,0.0,0.0,3.0381,3.1301,3.2351,3.349,3.4629,3.5368,3.623,3.7338,3.743,3.743,3.743,3.7646,3.7677,3.743,3.8138,3.8569,3.8723,3.9216,4.0108,4.1437,4.214,4.2355,4.2109,4.1955,4.1863,4.1863,4.1617,4.137,4.1001,3.8754,3.78,3.7615,3.5768,3.466,0.0,0.0,0.0,0.0,0.0,0.0,0.0,0.0,0.0,0.0,0.0,0.0,0.0,0.0,0.0,0.0,0.0,0.0,0.0,0.0,0.0,0.0,0.0,0.0,0.0,0.0,0.0,0.0,0.0,0.0,0.0,0.0,0.0,0.0,0.0,0.0,0.0,5.1899,5.406,0.0,5.5725,5.8273,5.9787,5.9568,6.1458,6.3091,6.4065,6.4617,6.5322,6.6335,6.6738,6.7003,6.7149,6.7405,6.7606,6.7687,6.7687,6.7687,6.7687,6.7687,6.7687,6.7687,6.7687,6.7981,6.8421,6.7871,6.7293,6.6716,6.6176,6.626,6.6489,6.5233,6.4893,6.5003,0.0,0.0,0.0,0.0,0.0,0.0,0.0,0.0,3.1059,3.1951,3.3059,3.4198,3.5398,3.6292,3.7277,3.8415,3.8939,3.9093,3.8877,3.951,3.9699,3.9216,3.9431,4.017,4.1524,4.1124,4.1678,4.3285,4.3501,4.3593,4.3593,4.3371,4.3279,4.3248,4.3033,4.294,4.2786,4.0755,3.9616,3.9062,3.7707,3.663,3.5737,0.0,0.0,0.0,0.0,0.0,0.0,0.0,0.0,0.0,0.0,0.0,0.0,0.0,0.0,0.0,0.0,0.0,0.0,0.0,0.0,0.0,0.0,0.0,0.0,0.0,0.0,0.0,0.0,0.0,0.0,0.0,0.0,0.0,0.0,5.15,5.2819,5.4169,5.6435,5.8049,5.8533,6.1127,6.276,6.276,6.4509,6.5778,6.6268,6.6719,6.7204,6.7696,6.8008,6.8247,6.8394,6.8394,6.8413,6.8495,6.8495,6.8495,6.8495,6.8495,6.8495,6.8495,6.8201,6.8421,6.8898,6.8605,6.8348,6.8091,6.7797,6.8017,6.8385,6.732,6.71,6.7237,0.0,0.0,0.0,0.0,0.0,0.0,0.0,3.0966,3.1859,3.3213,3.4014,3.4782,3.546,3.6722,3.78,3.8508,3.9736,4.0228,3.9616,4.1437,4.1975,4.0632,4.1247,4.2232,4.3562,4.2325,4.2017,4.2694,4.3377,4.3685,4.3716,4.4363,4.4641,4.461,4.3932,4.3624,4.3593,4.294,4.1863,4.0474,3.9154,3.86,3.8415,0.0,0.0,0.0,0.0,0.0,0.0,0.0,0.0,0.0,0.0,0.0,0.0,0.0,0.0,0.0,0.0,0.0,0.0,0.0,0.0,0.0,0.0,0.0,0.0,0.0,0.0,0.0,0.0,0.0,0.0,0.0,0.0,0.0,5.1355,5.3583,5.564,5.6658,5.931,6.1489,6.2471,6.4662,6.597,6.597,6.6948,6.7451,6.7247,6.833,6.8853,6.875,6.9623,7.011,7.0146,7.0146,7.0146,7.0183,7.0183,7.0183,7.0183,7.0183,7.0183,7.011,6.9339,6.9045,6.9009,6.8164,6.8311,6.9119,6.9816,7.0073,7.011,7.011,6.9596,6.8934,0.0,0.0,0.0,0.0,0.0,0.0,0.0,3.0966,3.1859,3.3213,3.4014,3.5152,3.6753,3.7707,3.8692,3.9828,4.029,4.0628,4.1001,4.1546,4.1921,4.2017,4.1771,4.2232,4.3562,4.3747,4.4079,4.4787,4.5434,4.5772,4.5741,4.5464,4.5311,4.528,4.4641,4.4332,4.4332,4.411,4.3525,4.2633,4.1278,4.0447,3.9859,0.0,0.0,0.0,0.0,0.0,0.0,0.0,0.0,0.0,0.0,0.0,0.0,0.0,0.0,0.0,0.0,0.0,0.0,0.0,0.0,0.0,0.0,0.0,0.0,0.0,0.0,0.0,0.0,0.0,0.0,0.0,5.5068,5.6588,5.5851,5.6423,5.7853,6.0367,6.1888,6.3094,6.4084,6.5304,6.597,6.597,6.746,6.8356,6.8292,6.9228,6.9752,6.9724,6.9972,7.0367,7.0954,7.0991,7.1284,7.1835,7.1835,7.1835,7.1835,7.1835,7.1835,7.1835,7.1615,7.1835,7.2312,7.1505,7.1651,7.2165,7.0036,6.9596,7.011,7.011,7.0163,7.0312,0.0,0.0,0.0,0.0,0.0,0.0,0.0,3.1213,3.229,3.3675,3.4227,3.5275,3.7277,3.8108,3.8939,3.9982,4.0874,4.1586,4.1986,4.254,4.3179,4.3842,4.3457,4.3771,4.4818,4.5218,4.5618,4.6018,4.6419,4.6603,4.6573,4.6203,4.5865,4.5557,4.5187,4.4849,4.461,4.461,4.4394,4.3963,4.3156,4.2263,4.134,4.0662,3.9462,3.8169,3.7984,3.7492,3.6815,3.6138,0.0,0.0,0.0,0.0,0.0,0.0,0.0,0.0,0.0,0.0,0.0,0.0,0.0,0.0,0.0,0.0,0.0,0.0,0.0,0.0,0.0,0.0,0.0,0.0,5.6936,5.9158,5.942,5.9771,6.0801,6.2958,6.403,6.4976,6.5861,6.6391,6.6857,6.7186,6.8184,6.8907,6.9273,7.0127,7.077,7.1101,7.1431,7.1982,7.2826,7.2826,7.3046,7.3523,7.3523,7.3523,7.3523,7.3523,7.3523,7.3487,7.3156,7.3266,7.367,7.3193,7.3266,7.3487,0.0,0.0,0.0,0.0,7.2627,7.2968,0.0,0.0,0.0,0.0,0.0,0.0,0.0,3.1551,3.2906,3.432,3.4505,3.5306,3.74,3.8138,3.8816,3.9521,4.1463,4.2663,4.2817,4.3925,4.4936,4.5656,4.578,4.608,4.6696,4.6788,4.6788,4.6696,4.6788,4.688,4.6942,4.685,4.6542,4.6049,4.5895,4.5434,4.4787,4.4726,4.4702,4.461,4.461,4.3833,4.2663,4.2048,4.137,4.0566,3.94,3.8539,3.7861,3.7277,0.0,0.0,0.0,0.0,0.0,0.0,0.0,0.0,0.0,0.0,0.0,0.0,0.0,0.0,0.0,0.0,0.0,0.0,0.0,0.0,0.0,0.0,0.0,0.0,5.8299,6.0719,6.2367,6.3402,6.4166,6.4712,6.5761,6.6728,6.7424,6.7707,6.8128,6.8862,6.9082,6.9486,7.0183,7.0991,0.0,0.0,0.0,7.4147,7.5028,7.5065,7.5102,7.5175,7.5175,7.5175,7.5175,7.5285,7.5322,7.5285,7.4661,7.4368,7.4368,7.4294,7.4184,7.4001,7.312,7.3193,7.3978,7.5308,7.5809,7.5965,0.0,0.0,0.0,0.0,0.0,0.0,0.0,3.1551,3.2906,3.432,3.4505,3.5491,3.8046,3.8446,3.9,4.0197,4.174,4.3063,4.4141,4.4486,4.5141,4.6338,4.6929,4.7281,4.7404,4.7958,4.7958,4.7404,4.7958,4.8512,4.9066,4.8481,4.845,4.885,4.7711,4.685,4.6172,4.5618,4.5064,4.461,4.461,4.4148,4.3408,4.3285,4.2786,4.2171,4.1925,4.137,4.0786,4.0662,3.9493,3.8205,3.8748,3.8904,0.0,0.0,0.0,0.0,0.0,0.0,0.0,0.0,0.0,0.0,0.0,0.0,0.0,0.0,0.0,0.0,0.0,0.0,0.0,5.9086,6.168,6.3892,6.5113,6.6526,6.7056,6.6071,6.6738,6.7378,6.766,6.8274,6.8752,6.8898,7.011,7.0889,7.1064,7.1835,7.2642,7.345,7.3597,7.4404,7.5836,7.5873,7.6203,7.6833,7.6833,0.0,7.6833,7.7561,7.7892,7.7928,7.8405,7.8589,7.8552,7.7928,7.7231,7.643,7.5028,7.4551,7.4779,7.5916,7.6343,7.6488,0.0,0.0,0.0,0.0,0.0,0.0,0.0,3.1736,3.2752,3.3798,3.4566,3.5645,3.7307,3.8709,3.99,4.0964,4.3239,4.4923,4.5609,4.5943,4.6542,4.7558,4.7619,4.7927,4.8635,4.8635,4.845,4.8112,4.845,4.8789,4.9158,4.9158,4.8974,4.8635,4.8266,4.7558,4.6542,4.5865,4.5403,4.5064,4.4764,4.4425,4.4117,4.4117,4.3901,4.3556,4.3217,4.2879,4.2613,4.2634,4.1931,4.1225,4.1917,4.2138,4.2319,0.0,0.0,0.0,0.0,0.0,0.0,0.0,0.0,0.0,0.0,0.0,0.0,0.0,0.0,5.5277,5.5615,0.0,5.9851,6.1107,6.343,6.5573,6.7,6.7988,6.8264,6.7579,6.7918,6.8376,6.8862,6.8898,6.9412,7.0624,7.1101,7.1806,7.3017,7.312,7.3634,7.4845,7.4882,7.5469,7.6717,7.6717,7.69,7.7273,7.7273,7.753,7.7965,7.8405,7.8809,7.9213,7.9617,7.98,7.9764,7.936,7.9176,7.9061,7.8108,7.7517,7.7299,7.8501,7.9123,7.9449,0.0,0.0,0.0,0.0,0.0,0.0,0.0,3.1951,3.269,3.349,3.4685,3.5796,3.663,3.9094,4.1182,4.2488,4.4618,4.6207,4.686,4.7223,4.7711,4.8389,4.8296,4.8604,4.9466,4.9189,4.8881,4.8604,4.8604,4.8696,4.882,4.9404,4.9158,4.8235,4.8635,4.805,4.6757,4.608,4.5618,4.5372,4.4941,4.4787,4.4825,4.5101,4.5053,4.4774,4.4341,4.4235,4.4237,4.4281,4.4204,4.4245,4.4983,4.5074,4.518,4.6498,4.6864,0.0,0.0,0.0,0.0,0.0,0.0,0.0,0.0,5.2739,5.3619,5.5141,5.6528,5.7442,5.7442,5.9875,6.2101,6.273,6.5033,6.7214,6.8536,6.9133,6.9336,6.9217,6.9146,6.9449,7.0257,6.9889,7.0477,7.2569,7.2275,7.2863,7.4808,7.4294,7.4588,7.6056,7.6093,7.6497,7.7273,7.7273,7.7273,7.7273,7.7273,7.7781,7.8589,7.8772,7.925,8.0021,8.0204,8.0241,8.0273,8.0399,8.0798,8.1376,8.1265,8.0898,8.0539,8.1282,8.1849,8.226,0.0,0.0,0.0,0.0,0.0,0.0,0.0,0.0,3.2875,3.4197,3.4966,3.5927,3.7247,3.9785,4.2685,4.5948,4.4283,4.4371,4.7385,4.7037,4.7004,4.7681,4.9404,4.9835,4.8758,4.9866,4.9866,4.8604,4.8604,4.8943,4.9558,4.9651,4.9928,5.0328,4.9805,4.8789,4.7434,4.6757,4.5803,4.4764,4.5249,4.5464,4.5642,4.6969,4.6697,4.5651,4.6181,4.6398,4.6424,4.6463,4.6045,4.5663,4.6355,4.618,4.5837,4.6615,4.6824,4.6819,4.6989,4.8477,5.027,5.1589,5.2469,5.3551,0.0,5.6258,5.6731,5.822,5.9167,5.9742,5.9742,6.2227,6.4418,6.4751,6.7775,7.0039,6.9924,7.1068,7.1699,7.1081,7.0403,7.0293,7.1101,7.1725,7.2496,7.3487,7.4147,7.4625,7.4918,7.4808,7.5175,7.6056,7.6093,7.6497,7.7273,7.7273,7.7273,7.7273,7.7273,7.7781,7.8626,7.9323,8.0094,8.0901,8.1636,8.1929,8.1994,8.2449,8.269,8.2824,8.3301,8.3778,8.3928,8.2574,8.2149,8.226,0.0,0.0,0.0,0.0,0.0,0.0,0.0,0.0,0.0,0.0,3.4552,3.5542,3.5737,3.9219,4.2494,4.4787,4.4985,4.5583,4.7012,4.7161,4.7496,4.8173,4.8635,4.882,4.8604,4.8789,4.882,4.8604,4.8604,4.8758,4.9066,4.9066,4.9004,4.8912,4.9004,4.8512,4.7558,4.688,4.648,4.6296,4.5803,4.5834,4.6352,4.783,4.7797,4.7013,4.7754,4.8035,0.0,4.8091,4.7899,4.7704,4.7988,4.8176,4.8438,4.9128,4.9661,5.0202,5.1082,5.1995,5.2976,5.4025,5.4871,5.5784,5.7137,5.778,5.8524,6.0047,6.0588,6.1079,6.1907,6.3937,6.596,6.7415,6.9121,7.0646,7.1882,7.1867,7.1786,7.1953,7.2129,7.2312,7.2679,7.301,7.3707,7.4992,7.4992,7.5322,7.6246,7.5873,7.5983,7.679,7.6827,7.6943,7.7273,7.7273,7.7707,7.8536,7.8223,7.8915,8.0459,8.0504,8.1124,8.2166,8.253,8.2853,8.3177,8.3024,8.3198,8.3563,8.3806,8.4242,8.4597,8.3915,8.3829,8.4161,0.0,0.0,0.0,0.0,0.0,0.0,0.0,0.0,0.0,0.0,3.462,3.5851,3.6119,3.8748,4.1373,4.3556,4.4487,4.5353,4.6103,4.6695,4.7281,4.7742,4.8019,4.8142,4.805,4.8142,4.8235,4.8327,4.8512,4.8604,4.8604,4.8604,4.8358,4.7896,4.8389,4.8235,4.7558,4.7096,4.7065,4.725,4.6449,4.6445,4.7068,4.8548,4.8822,4.85,4.9287,4.9464,4.9347,4.9759,4.9759,4.9658,4.9841,5.0135,5.0541,5.1285,5.2198,5.3281,5.4769,5.5344,5.5683,5.6427,5.7171,5.7915,5.866,5.9235,6.0013,6.1332,6.1796,6.2309,6.3558,6.5198,6.7003,6.9203,7.0126,7.1194,7.2981,7.2482,7.2202,7.2753,7.3523,7.4111,7.4331,7.4368,7.4955,7.635,7.5909,7.6063,7.7237,7.6754,7.6717,7.7273,7.7273,7.7365,7.751,7.751,7.8034,7.9047,7.8771,7.9541,8.11,8.1104,8.1711,8.2891,8.263,8.277,8.3145,8.2879,8.3164,8.3803,8.3952,8.4368,8.4914,8.4914,8.5169,8.5511,0.0,0.0,0.0,0.0,0.0,0.0,0.0,0.0,0.0,0.0,0.0,0.0,0.0,3.8716,3.9312,4.3427,4.1895,4.1845,4.4591,4.5335,4.5649,4.568,4.8204,4.8696,4.6696,4.8604,4.8974,4.7619,4.8296,4.8604,4.8604,4.8604,4.8604,4.8573,4.8604,4.8235,4.7619,4.7588,4.7219,4.6665,4.7311,4.7565,4.7846,4.9304,4.9877,5.0018,5.078,5.0627,5.0306,5.1726,5.1726,5.1252,5.1995,5.1725,5.1319,5.2063,5.3348,5.4837,5.6325,5.7273,5.7983,5.8727,5.9471,6.0216,6.1028,6.1231,6.1467,6.2212,6.2969,6.3666,6.4537,6.5966,6.7625,6.9429,7.1126,7.2285,7.2504,7.3156,7.3634,7.367,7.4368,7.5175,7.5946,7.6019,7.6387,7.72,7.7237,7.7237,7.7273,7.7273,7.7273,7.7273,7.7273,7.754,7.81,7.81,7.81,7.8165,7.8651,7.9048,7.9428,8.0694,8.178,8.2556,8.1705,8.133,8.1444,8.1972,8.2695,8.3483,8.405,8.4746,8.5491,8.5491,8.5491,8.5511,0.0,0.0,0.0,0.0,0.0,0.0,0.0,0.0,0.0,0.0,0.0,0.0,0.0,0.0,0.0,0.0,4.0848,4.163,4.2594,4.3679,4.4486,4.4949,4.6234,4.685,4.6603,4.7281,4.7619,4.7619,4.7373,4.7281,4.725,4.6819,4.6603,4.6603,4.6603,4.648,4.6265,4.6265,4.6388,4.6573,4.6357,4.6827,4.7884,4.9383,4.9984,5.0253,0.0,5.2202,5.1623,5.2131,5.2131,5.1961,5.2232,5.2503,5.3078,5.4769,5.5987,5.7002,5.7983,5.8457,5.893,6.0216,6.0723,6.1095,6.1839,6.2009,6.2232,6.2973,6.3346,6.3894,6.5122,6.6381,6.7976,7.0132,7.1128,7.2034,7.3156,7.3083,7.3083,7.3634,7.4404,7.5028,7.5285,7.6276,7.698,7.7273,7.7273,7.7273,7.7273,7.679,7.6497,7.6497,7.633,7.6347,7.6503,7.7398,7.8304,7.9171,8.0467,8.1218,8.1495,8.2321,8.2865,8.3129,8.2827,8.2597,8.2428,8.2254,8.2575,8.3115,8.2948,8.3302,8.3791,8.343,8.3552,8.3983,0.0,0.0,0.0,0.0,0.0,0.0,0.0,0.0,0.0,0.0,0.0,0.0,0.0,0.0,0.0,0.0,0.0,4.0355,4.0816,4.2109,4.3156,4.3833,4.4756,4.5434,4.5865,4.6111,4.6573,4.725,4.6819,4.6726,4.6942,4.6265,4.5957,4.5957,4.5957,4.5957,4.5957,4.5957,4.6995,4.8462,4.6952,4.77,4.9705,4.9635,4.978,0.0,5.2067,5.2536,5.2367,5.2942,5.3112,5.3179,5.345,5.4228,5.5446,5.7408,5.8524,5.9268,6.0013,6.0216,6.0452,6.1434,6.167,6.1883,6.2634,6.2615,6.2659,6.3679,6.4105,6.4777,6.6251,6.7204,6.8488,7.0847,7.1019,7.1329,7.2585,7.2393,7.2386,7.3193,7.3744,7.4294,7.4845,7.613,7.69,7.69,7.69,7.69,7.69,7.6387,7.6213,7.6383,7.6335,7.6468,7.686,7.8004,7.9364,8.0912,8.1783,8.2536,8.3214,8.3231,8.3248,8.3248,8.2944,8.2541,8.2092,8.1738,8.1969,8.255,8.2174,8.2447,8.297,8.2593,8.2713,8.3142,0.0,0.0,0.0,0.0,0.0,0.0,0.0,0.0,0.0,0.0,0.0,0.0,0.0,0.0,0.0,0.0,0.0,0.0,3.9305,4.0693,4.1771,4.2479,4.3741,4.4486,4.4579,4.5157,4.5803,4.6449,4.6419,4.6726,4.7373,4.6766,4.6528,4.6559,4.6599,4.6599,4.6599,4.6599,4.8684,5.1669,4.8776,4.9784,5.2774,4.9888,4.9291,5.0067,5.0879,5.1623,5.2469,5.3957,5.4532,5.4735,5.5513,5.6799,5.8287,5.9674,6.0689,6.1501,6.2212,6.2381,6.2381,6.2381,6.242,6.262,6.3346,6.3004,6.2893,6.4358,6.5267,6.6247,6.7805,6.8228,6.9085,7.1338,7.0749,7.0274,7.0938,7.1134,7.1578,7.2422,7.2496,7.312,7.4698,7.5616,7.6093,7.608,7.6123,7.6166,7.6227,7.619,7.6383,7.6929,7.7171,7.7792,7.8803,7.9754,8.1143,8.299,8.2433,8.291,8.4212,8.3333,8.2913,8.2875,8.2149,8.1308,8.0506,8.0506,8.1003,8.1729,8.1729,8.2187,8.2875,8.2875,8.2875,8.2875,0.0,0.0,0.0,0.0,0.0,0.0,0.0,0.0,0.0,0.0,0.0,0.0,0.0,0.0,0.0,0.0,0.0,0.0,3.7984,3.8816,3.9831,4.0966,4.1894,4.2817,4.384,4.4024,4.4209,4.4363,4.3864,4.3956,4.4641,4.5022,4.5437,4.5939,4.6494,4.6745,4.6745,4.6745,4.7305,4.8063,4.674,4.7132,4.8398,4.7637,4.782,4.8646,4.9932,5.0845,5.1623,5.257,5.3653,5.4803,5.6122,5.7915,5.9607,5.9979,6.1061,6.2144,6.2347,6.2381,6.2381,6.2381,6.2813,6.3271,6.3457,6.3788,6.4323,6.524,6.5581,6.62,6.7724,6.7731,6.8093,6.985,6.9628,6.9458,7.0237,7.0375,7.0917,7.2349,7.2496,7.2899,7.3891,7.5285,7.6045,7.5801,7.6545,7.7186,7.7578,7.7014,7.6956,7.7492,7.7362,7.7432,7.7716,7.9499,8.1306,8.299,8.2243,8.2396,8.3295,8.2493,8.2111,8.2073,8.1881,8.1308,8.0506,8.0506,8.0621,8.0812,8.0812,8.0964,8.1156,8.1156,8.1156,8.1156,0.0,0.0,0.0,0.0,0.0,0.0,0.0,0.0,0.0,0.0,0.0,0.0,0.0,0.0,0.0,0.0,0.0,0.0,0.0,3.7861,3.8539,3.9551,4.0324,4.1186,4.2202,4.254,4.3162,4.4055,4.3063,4.3094,4.4055,4.449,4.4575,4.4413,4.5731,4.5975,4.541,4.5719,4.6772,0.0,0.0,4.6945,4.8587,4.7316,4.7264,4.8007,4.8849,4.983,5.098,5.2706,5.4093,5.5446,5.7577,5.9099,6.0216,6.0892,6.1704,6.2381,6.2381,6.2381,6.2381,6.2381,6.2931,6.357,6.3933,6.4288,6.4907,6.5949,6.6204,6.6706,6.8222,6.7811,6.7802,6.9748,6.9088,6.8614,6.9366,6.9504,7.0036,7.1284,7.1618,7.2226,7.3407,7.5208,7.6223,7.608,7.6736,7.7356,7.7883,7.7498,7.7517,7.8043,7.8014,7.8451,7.9426,8.0266,8.1669,8.3563,8.2722,8.2569,8.299,8.2531,8.2149,8.1805,8.1805,8.1308,8.0506,8.0506,8.0506,8.0506,8.0506,8.0506,8.0506,8.0506,8.0506,8.0506,0.0,0.0,0.0,0.0,0.0,0.0,0.0,0.0,0.0,0.0,0.0,0.0,0.0,0.0,0.0,0.0,0.0,0.0,0.0,0.0,3.7677,3.8354,3.8939,3.9521,4.0228,4.0878,4.2078,4.3895,4.2756,4.2879,4.4209,4.4436,4.3973,4.2962,4.4968,4.5173,4.4054,4.4624,4.675,4.9427,4.6769,4.7615,5.0202,0.0,4.6921,4.75,4.777,4.8849,5.0541,5.3585,5.504,5.6055,5.893,5.9945,6.0351,6.1704,6.2245,6.2381,6.2381,6.2381,6.2381,6.2381,6.3007,6.3788,6.4323,6.4669,6.5207,6.6421,6.6777,6.7334,6.8759,6.8,6.7846,6.9841,6.8739,6.7817,6.8266,6.8559,6.9073,6.9926,7.0491,7.1454,7.3066,7.5097,7.6399,7.6583,7.6917,7.7352,7.7936,7.796,7.8194,7.8753,7.9003,8.0037,8.1979,8.1409,8.2057,8.3945,8.3181,8.2837,8.2837,8.2722,8.2302,8.1614,8.1614,8.1194,8.0506,8.0506,8.0506,8.0506,8.0506,8.0506,8.0506,8.0506,8.0506,8.0525,0.0,0.0,0.0,0.0,0.0,0.0,0.0,0.0,0.0,0.0,0.0,0.0,0.0,0.0,0.0,0.0,0.0,0.0,0.0,0.0,0.0,3.7646,3.78,3.8169,3.8846,3.897,3.9493,4.0385,4.017,4.0755,4.2145,4.3315,4.4041,4.4392,4.5943,4.6465,4.6274,4.6364,4.6787,4.7278,4.6136,4.606,4.6549,4.5399,0.0,0.0,4.7259,4.8849,5.0541,5.3585,5.4668,5.5209,5.7543,5.9099,6.0148,6.0419,6.14,6.2381,6.2381,6.2381,6.2381,6.2381,6.3422,6.4288,6.3788,6.5143,6.633,6.5949,6.6372,6.7102,6.8024,6.7586,6.7186,6.77,6.7642,6.7369,6.6936,6.7467,6.8352,6.9543,7.035,7.1342,7.2674,7.4366,7.59,7.7079,7.7808,7.8542,7.9311,7.9349,7.9604,8.0125,8.0182,8.041,8.0793,8.1366,8.1843,8.2225,8.2073,8.1996,8.1996,8.127,8.085,8.0735,8.0735,8.0621,8.0506,8.0506,8.0506,8.0506,8.0506,8.0506,8.0506,8.0506,8.0506,8.0523,0.0,0.0,0.0,0.0,0.0,0.0,0.0,0.0,0.0,0.0,0.0,0.0,0.0,0.0,0.0,0.0,0.0,0.0,0.0,0.0,0.0,0.0,0.0,0.0,3.7984,3.8323,3.8846,3.949,0.0,3.9524,4.0574,4.2301,4.2912,4.2623,4.5127,4.5597,4.4532,4.4884,4.4823,4.4418,4.4079,4.3944,4.3944,0.0,0.0,0.0,4.6684,4.8037,4.9458,5.2875,5.4262,5.504,5.7645,5.9235,6.0182,6.0588,6.1501,6.2381,6.2381,6.2381,6.2381,6.2381,6.2925,6.3554,6.3971,6.489,6.5796,6.6192,6.6542,6.704,6.7873,6.7121,6.6684,6.7656,6.7249,6.6902,6.71,6.7467,6.8331,7.0016,7.0819,7.1906,7.3571,7.5111,7.6248,7.6922,7.8197,7.9263,8.0063,7.972,7.938,7.9207,7.9207,7.9436,7.9856,7.9856,8.0277,8.1117,8.0697,8.0735,8.1117,8.0697,8.0506,8.0506,8.0506,8.0506,8.0506,8.0506,8.0596,8.0733,8.0733,8.0795,8.0931,8.0931,8.0931,8.0946,0.0,0.0,0.0,0.0,0.0,0.0,0.0,0.0,0.0,0.0,0.0,0.0,0.0,0.0,0.0,0.0,0.0,0.0,0.0,0.0,0.0,0.0,0.0,0.0,3.7277,0.0,0.0,3.9059,3.8569,0.0,0.0,0.0,0.0,0.0,4.3488,4.3887,4.2437,4.2947,4.2828,0.0,0.0,4.2286,4.2388,0.0,0.0,0.0,0.0,4.7394,4.8714,5.23,5.4093,5.531,5.7949,5.9404,6.025,6.1061,6.1806,6.2381,6.2381,6.2279,6.2183,6.2339,6.2373,6.2683,6.3832,6.4347,6.4823,6.5833,6.6191,6.6496,6.7112,6.6468,6.6211,6.7437,6.6994,6.6719,6.7357,6.7684,6.8587,7.045,7.1329,7.2579,7.4654,7.5817,7.657,7.6953,7.8252,7.936,8.02,7.9474,7.871,7.8022,7.8022,7.8252,7.8767,7.8252,7.8557,7.9665,7.9398,7.9646,8.0238,8.043,8.0523,8.0596,8.0596,8.0611,8.0681,8.0681,8.0811,8.1007,8.1007,8.1112,8.131,8.131,8.131,8.1323,0.0,0.0,0.0,0.0,0.0,0.0,0.0,0.0,0.0,0.0,0.0,0.0,0.0,0.0,0.0,0.0,0.0,0.0,0.0,0.0,0.0,0.0,0.0,0.0,0.0,0.0,0.0,3.7677,3.7615,0.0,0.0,0.0,0.0,0.0,0.0,4.1972,4.2307,4.2361,0.0,0.0,0.0,0.0,0.0,0.0,0.0,0.0,0.0,4.7699,4.939,5.2469,5.4465,5.5886,5.7476,5.8964,6.025,6.1061,6.1806,6.2381,6.2381,6.1907,6.1554,6.2167,6.2301,6.2324,6.2392,6.3453,6.4274,6.3739,6.4135,6.4649,6.4722,6.5335,6.5658,6.5214,6.64,6.7195,6.6669,6.7615,6.8836,7.0181,7.1446,7.3098,7.5239,7.5521,7.6227,7.7755,7.8022,7.8481,7.9378,7.8596,7.8099,7.8022,7.8022,7.7678,7.6953,7.764,7.7678,7.7067,7.8557,7.934,7.9454,8.0162,8.0629,8.0853,8.0853,8.0983,8.1234,8.1234,8.1259,8.1272,8.1272,8.1285,8.131,8.131,8.131,8.132,0.0,0.0,0.0,0.0,0.0,0.0,0.0,0.0,0.0,0.0,0.0,0.0,0.0,0.0,0.0,0.0,0.0,0.0,0.0,0.0,0.0,0.0,0.0,0.0,0.0,0.0,3.663,3.6907,3.6907,0.0,0.0,0.0,0.0,0.0,0.0,4.1539,4.1677,4.127,0.0,0.0,0.0,0.0,0.0,0.0,0.0,0.0,0.0,0.0,4.8883,5.2334,5.4194,5.5378,5.7273,5.8592,5.9607,6.0351,6.1434,6.2178,6.1264,6.1095,6.1129,6.1008,6.0944,6.1225,6.256,6.2985,6.3255,6.3847,6.4188,6.4396,6.4396,6.4763,6.5185,6.5469,6.619,6.7012,6.7844,6.8389,6.9285,7.0841,7.1482,7.2596,7.4531,7.4736,7.5424,7.7105,7.6761,7.7105,7.8443,7.7678,7.722,7.722,7.6761,7.68,7.7487,7.7296,7.7564,7.827,7.9148,8.0054,8.1069,8.1547,8.2121,8.2712,8.2712,8.2766,8.287,8.287,8.2968,8.3053,8.2549,8.2417,8.2504,8.1959,8.1764,8.1783,0.0,0.0,0.0,0.0,0.0,0.0,0.0,0.0,0.0,0.0,0.0,0.0,0.0,0.0,0.0,0.0,0.0,0.0,0.0,0.0,0.0,0.0,0.0,0.0,0.0,0.0,3.6784,3.6784,3.6999,3.7338,0.0,0.0,3.9534,4.0198,0.0,0.0,0.0,0.0,0.0,0.0,0.0,0.0,0.0,0.0,0.0,0.0,0.0,0.0,0.0,0.0,0.0,5.4938,5.6934,5.8084,5.8863,5.981,6.0723,6.1201,6.031,6.0066,6.0116,6.0284,6.0083,6.041,6.2433,6.2504,6.2435,6.3478,6.3671,6.3671,6.3727,6.4048,6.4621,6.5588,6.6052,6.6819,6.8321,6.885,6.9677,7.1121,7.1854,7.2854,7.458,7.4857,7.5348,7.6265,7.6036,7.6379,7.7564,7.7296,7.7067,7.7067,7.6532,7.68,7.7984,7.7496,7.7816,7.9041,7.9554,8.055,8.1952,8.2393,8.3113,8.4037,8.4037,8.4084,8.415,8.4122,8.4252,8.4334,8.3725,8.3594,8.3653,8.3029,8.2671,8.246,0.0,0.0,0.0,0.0,0.0,0.0,0.0,0.0,0.0,0.0,0.0,0.0,0.0,0.0,0.0,0.0,0.0,0.0,0.0,0.0,0.0,0.0,0.0,0.0,0.0,0.0,3.7492,3.7492,3.8169,3.8508,3.8508,3.8508,3.8835,3.9408,0.0,0.0,0.0,0.0,0.0,0.0,0.0,0.0,0.0,0.0,0.0,0.0,0.0,0.0,0.0,0.0,0.0,0.0,0.0,5.7306,5.8186,5.9674,5.9607,5.918,5.9835,5.8875,5.8245,6.0352,6.0356,6.0174,6.1659,6.2014,6.2014,6.2014,6.2014,6.2069,6.2195,6.2983,6.3945,6.4945,6.5883,6.6769,6.7577,6.8786,6.9893,7.0685,7.263,7.4433,7.5859,7.6389,7.6341,7.5577,7.6227,7.6685,7.6723,7.7526,7.7984,7.7984,7.7984,7.7984,7.8022,7.8244,7.8376,7.8415,7.9559,8.051,8.1323,8.2212,8.3208,8.4301,8.4301,8.4449,8.4676,8.4707,8.4668,8.4583,8.4595,8.4531,8.4476,8.4476,8.3968,8.3304,0.0,0.0,0.0,0.0,0.0,0.0,0.0,0.0,0.0,0.0,0.0,0.0,0.0,0.0,0.0,0.0,0.0,0.0,0.0,0.0,0.0,0.0,0.0,0.0,0.0,0.0,0.0,0.0,0.0,3.9,3.9859,3.9398,3.9532,4.0135,3.967,3.991,0.0,0.0,0.0,0.0,0.0,0.0,0.0,0.0,0.0,0.0,0.0,0.0,0.0,0.0,0.0,0.0,0.0,0.0,0.0,5.7712,5.9094,6.0314,5.9495,5.9578,5.9823,5.9541,5.9987,6.0746,6.177,6.1978,6.2033,6.2114,6.2141,6.2195,6.2291,6.2668,6.3393,6.4872,6.5443,6.6329,6.8238,6.9625,7.0623,7.1182,7.2927,7.4068,7.3969,7.5621,7.657,7.6341,7.7105,7.7831,7.8443,7.8918,7.9105,7.8881,7.8475,7.882,7.9972,7.9692,7.9842,8.0383,8.091,8.1949,8.3356,8.3813,8.4871,8.6288,8.6295,8.6311,8.6421,8.6355,8.6328,8.6249,8.5662,8.5459,8.5364,8.4778,8.4286,8.3838,0.0,0.0,0.0,0.0,0.0,0.0,0.0,0.0,0.0,0.0,0.0,0.0,0.0,0.0,0.0,0.0,0.0,0.0,0.0,0.0,0.0,0.0,0.0,0.0,0.0,0.0,0.0,0.0,0.0,0.0,0.0,0.0,4.1401,4.1243,4.0878,4.0885,0.0,0.0,0.0,0.0,0.0,0.0,0.0,0.0,0.0,0.0,0.0,0.0,0.0,0.0,0.0,0.0,0.0,0.0,0.0,0.0,5.8428,6.0079,5.9107,5.9268,5.9668,5.9574,6.0188,6.1,6.1797,6.1978,6.2005,6.2114,6.2132,6.2212,6.2407,6.3012,6.3983,6.539,6.5946,6.6922,6.8873,7.0383,7.1814,7.3212,7.4268,7.4789,7.458,7.587,7.6838,7.7182,7.8088,7.8884,7.9438,7.9992,8.0236,8.0059,7.9682,8.0015,8.1041,8.0832,8.0949,8.1453,8.1717,8.2776,8.4457,8.461,8.5621,8.7185,8.7183,8.7016,0.0,8.6634,8.6564,8.6402,8.5843,8.5822,8.5998,8.5446,8.492,8.4327,0.0,0.0,0.0,0.0,0.0,0.0,0.0,0.0,0.0,0.0,0.0,0.0,0.0,0.0,0.0,0.0,0.0,0.0,0.0,0.0,0.0,0.0,0.0,0.0,0.0,0.0,0.0,0.0,4.3008,4.3624,4.3685,0.0,0.0,4.2663,4.2663,4.2661,0.0,0.0,0.0,0.0,0.0,0.0,0.0,0.0,0.0,0.0,0.0,0.0,0.0,0.0,0.0,0.0,0.0,0.0,0.0,0.0,0.0,0.0,0.0,5.8378,5.8401,6.0339,6.0829,6.11,6.1824,6.2005,0.0,6.2033,6.2141,6.2301,6.2506,6.3878,6.5354,6.6339,6.7136,6.8084,6.9335,7.102,7.323,7.6183,7.6258,7.6359,7.7138,7.6998,7.7273,7.8094,7.9182,7.983,7.983,8.0769,8.1347,8.1347,8.1359,8.1359,8.1347,8.1581,8.1717,8.1726,8.2058,8.3064,8.4701,8.4735,8.566,8.7203,8.7177,8.6679,8.588,8.5942,8.5726,8.5382,8.5377,8.5673,8.6114,8.6122,8.5645,8.4697,0.0,0.0,0.0,0.0,0.0,0.0,0.0,0.0,0.0,0.0,0.0,0.0,0.0,0.0,0.0,0.0,0.0,0.0,0.0,0.0,0.0,0.0,0.0,0.0,0.0,0.0,0.0,4.3131,4.347,4.387,4.4394,4.4548,0.0,0.0,0.0,0.0,0.0,0.0,0.0,0.0,0.0,0.0,0.0,0.0,0.0,0.0,0.0,0.0,0.0,0.0,0.0,0.0,0.0,0.0,0.0,0.0,5.642,0.0,5.8355,0.0,6.0333,6.0847,6.132,6.1815,0.0,6.2168,6.2185,6.2423,6.2475,6.2735,6.3522,6.4075,6.4798,6.6256,6.6659,6.7237,6.8507,7.0736,7.3333,7.6294,7.656,7.6667,7.7111,7.8244,7.9169,7.9594,8.0408,8.0911,8.0911,8.1348,8.162,8.162,8.1817,8.1817,8.163,8.1859,8.1994,8.202,8.2686,8.3588,8.4653,8.527,8.6132,8.7106,8.7066,8.6901,8.6712,8.6519,8.6027,8.5386,8.5178,8.4775,8.4325,8.4599,8.4435,8.3907,0.0,0.0,0.0,0.0,0.0,0.0,0.0,0.0,0.0,0.0,0.0,0.0,0.0,0.0,0.0,0.0,0.0,0.0,0.0,0.0,0.0,0.0,0.0,0.0,0.0,0.0,0.0,0.0,0.0,4.5772,0.0,0.0,0.0,0.0,0.0,0.0,0.0,0.0,0.0,0.0,0.0,0.0,0.0,0.0,0.0,0.0,0.0,0.0,0.0,5.1217,5.2413,5.3363,0.0,0.0,0.0,0.0,5.616,0.0,5.7896,5.8988,6.0045,6.0762,6.1179,6.1598,6.2086,6.2185,6.2238,6.2449,6.2844,6.3324,6.3877,6.5201,6.6383,6.6959,6.7815,6.8921,7.0526,7.2503,7.4557,7.6624,7.7248,7.7585,7.7855,7.9078,8.0111,8.0614,8.1147,8.1486,8.1486,8.1744,8.189,8.189,8.2065,8.2065,8.1906,8.2046,8.2084,8.2066,8.2935,8.3782,8.457,8.5459,8.6293,8.7042,8.6923,8.6615,8.6203,8.5962,8.5548,8.501,8.4874,8.4549,8.4173,8.4384,8.4187,8.3564,0.0,0.0,0.0,0.0,0.0,0.0,0.0,0.0,0.0,0.0,0.0,0.0,0.0,0.0,0.0,0.0,0.0,0.0,0.0,0.0,0.0,0.0,0.0,0.0,0.0,0.0,0.0,0.0,0.0,0.0,0.0,0.0,0.0,0.0,0.0,0.0,0.0,0.0,0.0,0.0,0.0,0.0,0.0,0.0,0.0,0.0,0.0,0.0,0.0,5.1488,5.2411,5.3111,5.3942,0.0,0.0,0.0,0.0,0.0,5.7592,5.8228,5.9099,6.0458,6.081,6.1054,6.2003,6.2212,6.2301,6.2605,6.3283,6.3962,6.4324,6.6621,6.8346,6.8023,6.9519,7.1447,7.3536,7.4757,7.5932,7.7396,7.8094,7.8643,7.901,7.9858,8.0644,8.1375,8.1631,8.1761,8.1761,8.2007,8.2117,8.2117,8.2157,8.2157,8.2112,8.2094,8.2113,8.2212,8.3122,8.3943,8.4736,8.5601,8.6356,8.6916,8.6747,8.6206,8.5436,8.5217,8.4895,8.4471,8.4417,8.4302,8.4178,8.4259,8.3866,8.2986,0.0,0.0,0.0,0.0,0.0,0.0,0.0,0.0,0.0,0.0,0.0,0.0,0.0,0.0,0.0,0.0,0.0,0.0,0.0,0.0,0.0,0.0,0.0,0.0,0.0,0.0,0.0,0.0,0.0,0.0,4.8635,4.9712,4.9947,0.0,0.0,0.0,0.0,0.0,0.0,0.0,4.5263,0.0,0.0,0.0,0.0,0.0,0.0,0.0,0.0,5.0135,5.0875,5.1691,5.3042,0.0,0.0,0.0,0.0,0.0,5.8123,5.8937,5.9812,6.0593,6.081,6.1081,6.2146,6.2381,6.2642,6.3658,6.3929,6.4635,6.6583,6.721,6.7815,6.895,7.034,7.2202,7.4894,7.5143,7.6234,7.9277,7.9122,7.9143,8.012,8.1031,8.168,8.2044,8.2106,8.2117,8.2117,8.2177,8.2187,8.2187,8.214,8.2127,8.2083,8.2086,8.2458,8.3109,8.3955,8.479,8.5603,8.6214,8.6555,8.6665,8.6455,8.6279,8.6143,8.5857,8.5049,8.3884,8.3692,8.2845,8.1845,8.2117,8.1608,8.0283,0.0,0.0,0.0,0.0,0.0,0.0,0.0,0.0,0.0,0.0,0.0,0.0,0.0,0.0,0.0,0.0,0.0,0.0,0.0,0.0,0.0,0.0,0.0,0.0,0.0,0.0,0.0,0.0,0.0,5.0297,5.0266,5.0205,4.9647,4.8667,0.0,0.0,0.0,0.0,0.0,0.0,0.0,0.0,0.0,0.0,0.0,0.0,0.0,0.0,0.0,0.0,5.0564,5.1277,5.2382,0.0,0.0,0.0,0.0,0.0,5.8849,5.9377,5.9942,6.1014,6.1323,6.1851,6.3524,6.3901,6.4136,6.4966,6.5663,6.6433,6.7337,6.8317,6.9493,7.1,7.1832,7.2962,7.4987,7.5526,7.6516,7.8707,7.8997,7.9454,8.0617,8.1487,8.2056,8.2187,8.2192,8.2192,8.2192,8.217,8.2154,8.2154,8.2109,8.2292,8.2696,8.2696,8.2876,8.3268,8.4436,8.5166,8.5544,8.6145,8.6426,8.6412,8.6177,8.5911,8.5624,8.5358,8.4698,8.3829,8.3737,8.3085,8.2137,8.1392,7.9721,7.7433,0.0,0.0,0.0,0.0,0.0,0.0,0.0,0.0,0.0,0.0,0.0,0.0,0.0,0.0,0.0,0.0,0.0,0.0,0.0,0.0,0.0,0.0,0.0,0.0,0.0,0.0,4.8019,4.8881,5.0759,5.1775,5.1929,5.0882,4.9802,0.0,0.0,0.0,0.0,0.0,0.0,0.0,0.0,0.0,0.0,0.0,0.0,0.0,0.0,0.0,0.0,0.0,0.0,0.0,0.0,0.0,0.0,5.6286,5.7709,5.9144,5.9941,6.0356,6.0856,6.2242,6.229,6.2553,6.4705,6.5256,6.5522,6.6284,6.7273,6.806,6.8349,6.9993,7.1591,7.2559,7.3214,7.4026,7.5294,7.6077,7.6963,7.8248,7.8923,7.9745,8.084,8.1702,8.221,8.221,8.221,8.2218,8.2198,8.2134,8.2108,8.2109,8.2269,8.2621,8.3189,8.3516,8.3696,8.3718,8.4833,8.543,8.554,8.6013,8.613,8.6011,8.5737,8.53,8.4823,8.4589,8.4193,8.3672,8.3396,8.2816,8.1856,8.0113,7.7789,7.5404,0.0,0.0,0.0,0.0,0.0,0.0,0.0,0.0,0.0,0.0,0.0,0.0,0.0,0.0,0.0,0.0,0.0,0.0,0.0,0.0,0.0,0.0,0.0,0.0,0.0,4.6234,4.8266,4.962,5.1005,5.2021,5.2637,5.2544,5.2194,5.1606,0.0,0.0,0.0,0.0,0.0,0.0,0.0,0.0,0.0,0.0,0.0,0.0,0.0,0.0,0.0,0.0,0.0,0.0,0.0,0.0,5.4747,5.6603,5.8792,6.081,6.1616,6.2558,6.3596,6.493,6.3683,6.2702,6.4731,6.5464,6.6063,6.746,6.7992,6.8771,7.0743,7.2415,7.3263,7.2608,7.4101,7.5683,7.6808,7.6993,7.7667,7.9392,7.9629,8.002,8.0924,8.1783,8.229,8.229,8.229,8.2274,8.2186,8.2187,8.2144,8.2107,8.2762,8.3162,8.3189,8.4495,8.5161,8.5134,8.5265,8.5617,8.6206,8.6033,8.5644,8.5182,8.4882,8.4486,8.3951,8.3963,8.3618,8.2994,8.1971,8.0621,7.9032,7.6795,7.5798,7.5188,0.0,0.0,0.0,0.0,0.0,0.0,0.0,0.0,0.0,0.0,0.0,0.0,0.0,0.0,0.0,0.0,0.0,0.0,0.0,0.0,0.0,0.0,0.0,4.331,4.4825,4.7496,4.9374,5.0328,5.1652,5.2236,5.2082,5.2082,0.0,0.0,0.0,0.0,0.0,0.0,0.0,0.0,0.0,0.0,0.0,0.0,0.0,0.0,0.0,0.0,0.0,0.0,4.926,4.9781,5.1032,5.2973,5.5185,5.694,5.9051,6.11,6.2404,6.3308,6.4276,6.5865,6.5692,6.5569,6.6924,6.7326,6.7906,6.9504,6.9804,7.0424,7.244,7.3151,7.3752,7.4874,7.5411,7.601,7.6954,7.7589,7.8338,7.9558,8.0185,8.0849,8.1708,8.2051,8.2258,8.2258,8.2187,8.2142,8.2129,8.2098,8.2288,8.2757,8.2901,8.3446,8.4495,8.492,8.5323,8.5676,8.5676,8.5632,8.555,8.5299,8.4861,8.4338,8.423,8.3847,8.334,8.3218,8.253,8.1396,8.0333,7.8655,7.6785,7.5936,7.427,7.2173,0.0,0.0,0.0,0.0,0.0,0.0,0.0,0.0,0.0,0.0,0.0,0.0,0.0,0.0,0.0,0.0,0.0,0.0,0.0,0.0,0.0,0.0,0.0,4.3864,4.5865,4.8389,5.0112,5.1005,5.2359,5.2698,5.2021,0.0,0.0,0.0,0.0,0.0,0.0,0.0,0.0,0.0,0.0,0.0,0.0,0.0,0.0,0.0,0.0,0.0,0.0,0.0,4.935,5.0126,5.129,5.3462,5.5884,5.7406,5.9401,6.148,6.3338,6.4533,6.5615,6.7332,6.7898,6.8294,6.9209,6.9075,6.9208,7.0621,7.1513,7.2276,7.3231,7.4062,7.493,7.6039,7.6231,7.6525,7.7394,7.8022,7.8816,7.9936,8.0602,8.131,8.214,8.2187,8.2182,8.2182,8.212,8.2088,8.2062,8.1927,8.2224,8.3065,8.3076,8.3786,8.5178,8.5265,8.5423,8.5664,8.5571,8.5339,8.4953,8.4589,8.4142,8.3618,8.3525,8.3008,8.2255,8.2026,8.1013,7.9458,7.8347,7.6775,7.5003,7.4304,7.2594,7.0343,0.0,0.0,0.0,0.0,0.0,0.0,0.0,0.0,0.0,0.0,0.0,0.0,0.0,0.0,0.0,0.0,0.0,0.0,0.0,0.0,0.0,0.0,0.0,4.4548,4.6542,4.8604,5.0359,5.1713,5.3067,5.3375,5.2667,5.2021,0.0,0.0,0.0,0.0,0.0,0.0,0.0,0.0,0.0,0.0,0.0,0.0,0.0,0.0,0.0,0.0,0.0,0.0,4.9343,5.0361,5.2192,5.4473,5.6644,5.8011,5.998,6.2192,6.4647,6.6412,6.8001,6.9687,7.0188,7.0512,7.126,7.0375,6.9657,7.0619,7.2808,7.4217,7.3043,7.544,7.7108,7.568,7.6361,7.7414,7.8275,7.8392,7.9037,8.0703,8.0898,8.1207,8.2026,8.2095,8.2095,8.2095,8.2095,8.2062,8.1993,8.1758,8.198,8.2789,8.3396,8.4132,8.498,8.5577,8.5607,8.51,8.4794,8.4673,8.4688,8.4142,8.3563,8.2965,8.2749,8.1897,8.055,8.0329,7.9103,7.7169,7.6005,7.494,7.3701,7.1397,7.0599,7.0118,0.0,0.0,0.0,0.0,0.0,0.0,0.0,0.0,0.0,0.0,0.0,0.0,0.0,0.0,0.0,0.0,0.0,0.0,0.0,0.0,0.0,0.0,0.0,0.0,0.0,0.0,5.0574,5.2421,5.2821,5.2421,0.0,0.0,0.0,5.0169,0.0,0.0,0.0,0.0,0.0,0.0,0.0,0.0,0.0,0.0,0.0,0.0,0.0,0.0,0.0,0.0,0.0,0.0,5.3093,5.4768,5.6566,5.8714,6.0253,6.1744,6.427,6.5827,6.7385,7.0084,7.0924,7.1471,7.3024,7.1901,7.0794,7.1724,7.3164,7.4296,7.452,7.5521,7.6526,7.7131,7.7146,7.7388,7.8197,7.8864,7.9648,8.0682,8.138,8.1844,8.2098,8.2045,8.1939,8.1746,8.1718,8.1601,8.1445,8.1889,8.2548,8.3434,8.3996,8.4558,8.5054,8.5065,8.4772,8.4241,8.3768,8.3498,8.347,8.3189,8.2437,8.1294,8.1086,8.0442,7.9341,7.7655,7.6596,7.5782,7.3957,7.2587,7.1506,7.0568,6.8891,6.6702,0.0,0.0,0.0,0.0,0.0,0.0,0.0,0.0,0.0,0.0,0.0,0.0,0.0,0.0,0.0,0.0,0.0,0.0,0.0,0.0,0.0,0.0,0.0,0.0,0.0,4.8142,4.9866,0.0,0.0,0.0,0.0,0.0,0.0,5.1662,0.0,5.2867,0.0,0.0,0.0,0.0,0.0,0.0,0.0,0.0,0.0,0.0,0.0,0.0,0.0,0.0,0.0,0.0,5.3415,5.4842,5.6466,5.8908,6.0334,6.1821,6.4962,6.6715,6.8353,7.1329,7.2183,7.2678,7.4166,7.3053,7.1898,7.2531,7.3967,7.5285,7.5857,7.6882,7.7906,7.8581,7.8647,7.8898,7.9726,8.0269,8.0875,8.1668,8.1932,8.2021,8.1858,8.1851,8.1687,8.1452,8.1422,8.1465,8.1677,8.2038,8.284,8.4034,8.4092,8.438,8.4948,8.4566,8.3914,8.2925,8.251,8.2012,8.1422,8.1729,8.1154,7.9918,7.9341,7.8506,7.7459,7.5667,7.4649,7.399,7.2143,7.0853,6.9853,6.8537,6.67,6.4597,0.0,0.0,0.0,0.0,0.0,0.0,0.0,0.0,0.0,0.0,0.0,0.0,0.0,0.0,0.0,0.0,0.0,0.0,0.0,0.0,0.0,0.0,0.0,0.0,0.0,0.0,0.0,0.0,0.0,0.0,0.0,0.0,5.3451,5.4215,0.0,5.4103,0.0,0.0,0.0,0.0,0.0,0.0,0.0,0.0,0.0,0.0,0.0,0.0,0.0,0.0,0.0,0.0,5.3303,5.4725,5.6322,5.8497,6.0172,6.2121,6.5977,6.8158,6.9988,7.2824,7.3778,7.4182,7.489,7.4033,7.3099,7.3262,7.5086,7.6706,7.695,7.8887,8.0257,7.9768,8.0382,8.1209,8.2067,8.2198,8.2478,8.3215,8.2578,8.1928,8.1612,8.1538,8.1375,8.12,8.1249,8.1596,8.2299,8.2243,8.2936,8.4432,8.379,8.3762,8.4386,8.3914,8.283,8.1172,8.1172,8.0334,7.8903,7.9956,7.9768,7.8623,7.752,7.6279,7.507,7.404,7.3018,7.1896,7.0417,6.9333,6.8401,6.5802,6.4295,6.3097,0.0,0.0,0.0,0.0,0.0,0.0,0.0,0.0,0.0,0.0,0.0,0.0,0.0,0.0,0.0,0.0,0.0,0.0,0.0,0.0,0.0,0.0,0.0,0.0,0.0,0.0,0.0,0.0,0.0,0.0,0.0,0.0,0.0,5.361,0.0,5.4392,0.0,0.0,0.0,0.0,0.0,0.0,0.0,0.0,0.0,0.0,0.0,0.0,0.0,0.0,0.0,0.0,5.3434,5.4399,5.5571,5.7436,5.9403,6.149,6.375,6.6031,6.851,7.1489,7.4276,7.6169,7.567,7.5301,7.5028,7.4857,7.5976,7.7009,7.7073,7.8551,7.9757,7.9644,8.0304,8.1116,8.1948,8.258,8.318,8.3822,8.3169,8.2538,8.2237,8.1631,8.1147,8.0907,8.1545,8.1908,8.1931,8.2698,8.3307,8.365,8.3747,8.3253,8.2111,8.1992,8.1141,7.9543,7.9543,7.8872,7.7693,7.8659,7.8049,7.6119,7.5138,7.404,7.2881,7.1529,7.0529,6.9754,6.8259,6.6605,6.5024,6.4152,6.2054,5.9531,0.0,0.0,0.0,0.0,0.0,0.0,0.0,0.0,0.0,0.0,0.0,0.0,0.0,0.0,0.0,0.0,0.0,0.0,0.0,0.0,0.0,0.0,0.0,0.0,0.0,0.0,0.0,0.0,0.0,0.0,0.0,0.0,0.0,5.4544,0.0,5.4856,0.0,0.0,0.0,0.0,0.0,0.0,0.0,0.0,0.0,0.0,0.0,0.0,0.0,0.0,0.0,0.0,0.0,0.0,5.52,5.7174,5.9248,6.1448,6.3913,6.6227,6.874,7.2169,7.4701,7.6376,7.6337,7.6309,7.6398,7.6627,7.7214,7.7922,7.8708,7.9954,8.0976,8.1317,8.2049,8.2869,8.3702,8.4046,8.43,8.4645,8.345,8.2532,8.2286,8.1501,8.1084,8.1277,8.1422,8.1822,8.2538,8.2839,8.2975,8.2894,8.2771,8.2054,8.0653,8.037,7.9586,7.8203,7.7596,7.6506,7.4926,7.5968,7.5419,7.3655,7.314,7.2228,7.0981,6.9885,6.8546,6.7049,6.5772,6.4093,6.2228,6.1263,5.9448,5.7342,0.0,0.0,0.0,0.0,0.0,0.0,0.0,0.0,0.0,0.0,0.0,0.0,0.0,0.0,0.0,0.0,0.0,0.0,0.0,0.0,0.0,0.0,0.0,0.0,0.0,0.0,0.0,0.0,0.0,0.0,0.0,0.0,0.0,5.5344,0.0,0.0,0.0,0.0,0.0,0.0,0.0,0.0,0.0,0.0,0.0,0.0,0.0,0.0,0.0,0.0,0.0,0.0,0.0,0.0,5.5107,5.7099,5.9113,6.1392,6.4378,6.6981,6.9711,7.3405,7.5039,7.5914,7.681,7.7004,7.7219,7.8059,7.8392,7.8975,8.0506,8.1522,8.2408,8.3139,8.3828,8.455,8.5385,8.5377,8.5204,8.4985,8.3547,8.244,8.2067,8.1291,8.1035,8.1594,8.1333,8.1786,8.3148,8.2709,8.2295,8.2092,8.137,8.0477,7.9372,7.8726,7.7837,7.6723,7.5492,7.3891,7.1939,7.2842,7.2599,7.1497,7.1442,7.0441,6.8811,6.8254,6.6516,6.4106,6.3182,6.1585,5.9669,5.8226,5.6885,5.534,0.0,0.0,0.0,0.0,0.0,0.0,0.0,0.0,0.0,0.0,0.0,0.0,0.0,0.0,0.0,0.0,0.0,0.0,0.0,0.0,0.0,0.0,0.0,0.0,0.0,0.0,0.0,0.0,0.0,0.0,0.0,0.0,0.0,5.3822,0.0,0.0,0.0,0.0,0.0,0.0,0.0,0.0,0.0,0.0,0.0,0.0,0.0,0.0,5.359,5.3745,5.3579,0.0,0.0,0.0,5.5398,5.648,5.8264,6.0357,6.2271,6.6178,7.0457,7.3385,7.4918,7.5947,7.6804,7.7004,7.7249,7.8118,7.89,7.9686,8.0533,8.1446,8.2307,8.3064,8.3252,8.3524,8.4233,8.489,8.4868,8.3779,8.3429,8.2873,8.1937,8.1263,8.0916,8.1024,8.1853,8.2409,8.2455,8.1874,8.1461,8.127,8.0003,7.8791,7.7623,7.6562,7.5526,7.4422,7.3004,7.1627,7.0399,7.0287,7.0287,7.0312,7.0061,6.8308,6.5618,6.5223,6.3506,6.1069,6.0329,5.8795,5.6952,5.6497,5.4634,5.2347,0.0,0.0,0.0,0.0,0.0,0.0,0.0,0.0,0.0,0.0,0.0,0.0,0.0,0.0,0.0,0.0,0.0,0.0,0.0,0.0,0.0,0.0,0.0,0.0,0.0,0.0,0.0,0.0,0.0,0.0,0.0,5.129,5.1814,0.0,0.0,0.0,0.0,0.0,5.3072,0.0,0.0,0.0,0.0,0.0,0.0,0.0,0.0,5.5103,5.5049,5.4601,5.4509,5.4503,5.4037,0.0,0.0,0.0,5.8142,6.027,6.4129,6.678,6.9323,7.275,7.4333,7.5248,7.6074,7.6657,7.7226,7.8022,7.8861,7.9743,8.0567,8.141,8.2234,8.3003,8.301,8.3358,8.4595,8.4466,8.4181,8.411,8.2874,8.1859,8.1392,8.0719,8.0516,8.0967,8.1047,8.1249,8.1594,8.065,7.9741,7.8974,7.7747,7.6585,7.5459,7.4305,7.3094,7.1799,7.0354,6.8958,6.7667,6.6577,6.6577,6.7427,6.6944,6.5463,6.3175,6.2142,6.0568,5.876,5.7888,5.6539,5.4994,5.3978,5.2817,5.153,0.0,0.0,0.0,0.0,0.0,0.0,0.0,0.0,0.0,0.0,0.0,0.0,0.0,0.0,0.0,0.0,0.0,0.0,0.0,0.0,0.0,0.0,0.0,0.0,0.0,0.0,0.0,0.0,0.0,0.0,5.0558,5.0558,5.0593,0.0,5.2029,5.2907,0.0,5.3207,5.3697,5.473,0.0,0.0,0.0,0.0,0.0,0.0,0.0,5.6515,5.64,5.5822,5.5621,5.5555,5.4974,5.4859,0.0,0.0,0.0,6.0572,6.544,6.6931,6.81,7.2189,7.3684,7.4492,7.5765,7.6522,7.7141,7.7653,7.8468,7.9325,8.0182,8.1233,8.2201,8.2912,8.2893,8.3191,8.4327,8.3756,8.3229,8.333,8.1786,8.0643,8.0454,8.0129,8.0077,8.0461,8.0181,8.0146,8.0478,7.9273,7.8042,7.6823,7.5761,7.4649,7.3599,7.2367,7.0783,6.8965,6.7874,6.6547,6.5081,6.3736,6.3354,6.383,6.3751,6.2701,6.0923,5.9488,5.7993,5.6505,5.5206,5.4138,5.306,5.1464,5.0651,5.0118,0.0,0.0,0.0,0.0,0.0,0.0,0.0,0.0,0.0,0.0,0.0,0.0,0.0,0.0,0.0,0.0,0.0,0.0,0.0,0.0,0.0,0.0,0.0,0.0,0.0,0.0,0.0,0.0,0.0,0.0,4.9092,4.9092,4.9123,4.9255,5.2131,5.3374,5.3394,5.4775,5.5386,5.5594,5.7306,5.8151,0.0,5.9436,5.9958,6.0038,6.0056,5.9122,5.7901,5.7863,5.7054,5.6057,5.6019,5.5717,5.553,0.0,0.0,0.0,6.4154,6.5696,6.7525,7.2067,7.3246,7.3914,7.6358,7.6908,7.689,7.6872,7.7516,7.8336,7.9191,8.0745,8.2087,8.2731,8.2801,8.2664,8.2324,8.249,8.1951,8.0195,7.9948,7.9666,7.8891,7.953,7.9682,7.8869,7.9719,7.9844,7.8862,7.7907,7.6779,7.5547,7.4587,7.3515,7.242,7.0925,6.8791,6.605,6.5706,6.4729,6.3346,6.3009,6.1642,5.9589,6.0965,6.0435,5.8523,5.7544,5.5986,5.4022,5.2139,5.1324,5.1044,4.92,4.7778,4.6852,0.0,0.0,0.0,0.0,0.0,0.0,0.0,0.0,0.0,0.0,0.0,0.0,0.0,4.4622,4.5043,4.5993,0.0,0.0,0.0,0.0,0.0,0.0,0.0,0.0,0.0,0.0,0.0,0.0,0.0,4.7995,4.9695,4.9695,5.015,5.1028,5.2155,5.2894,5.3383,5.4356,5.5607,5.6962,5.805,5.898,5.9764,6.0748,6.1409,6.1761,6.1519,6.1245,6.0776,5.9718,5.9115,5.8664,5.7582,5.7156,5.72,5.8105,5.9568,6.1379,6.362,6.492,6.6444,6.9908,7.1997,7.3589,7.4991,7.611,7.6833,7.6731,7.739,7.8058,7.8233,7.9647,8.106,8.1844,8.1696,8.1862,8.2803,8.1575,8.0737,8.1135,7.9552,7.8323,7.8026,7.8263,7.8127,7.7376,7.7894,7.7894,7.7023,7.5844,7.4978,7.4537,7.2567,7.0902,6.9552,6.8056,6.6698,6.5517,6.3346,6.1891,6.1206,5.9931,5.8665,5.7416,5.6364,5.5995,5.6102,5.5122,5.3716,5.207,5.1138,5.0198,4.9126,4.7716,4.7138,4.691,0.0,0.0,0.0,0.0,0.0,0.0,0.0,0.0,0.0,0.0,0.0,0.0,0.0,0.0,4.5071,4.5343,4.5787,0.0,0.0,0.0,0.0,0.0,0.0,0.0,0.0,0.0,0.0,0.0,0.0,0.0,0.0,4.9675,5.0279,5.1415,5.2126,5.3026,5.4005,5.4486,5.6017,5.8146,5.9011,6.0075,6.1318,6.2569,6.3258,6.3509,6.3364,6.3257,6.2988,6.1646,6.1321,6.1155,5.9458,5.8538,5.8289,5.9237,6.0094,6.1089,6.297,6.412,6.5562,6.8598,7.1052,7.3076,7.4503,7.584,7.6768,7.6721,7.7153,7.7573,7.7683,7.8572,7.9622,8.068,8.1069,8.1457,8.2013,8.071,7.992,8.0443,7.8422,7.6899,7.6836,7.6983,7.6775,7.5974,7.6447,7.6334,7.5389,7.4119,7.3149,7.2546,7.0512,6.8679,6.7122,6.6171,6.4983,6.357,6.1421,5.9974,5.9122,5.772,5.6693,5.5892,5.3414,5.29,5.3797,5.2387,5.0998,4.9843,4.9292,4.8461,4.7381,4.6236,4.6232,4.6622,0.0,0.0,0.0,0.0,0.0,0.0,0.0,0.0,0.0,4.4579,0.0,0.0,0.0,0.0,0.0,4.4847,4.5993,4.6809,4.6843,0.0,0.0,0.0,0.0,0.0,0.0,0.0,0.0,0.0,0.0,0.0,0.0,0.0,4.9262,5.0153,5.2093,5.3831,5.53,5.5336,5.6762,5.9124,6.0229,6.1576,6.3163,6.5063,6.5651,6.5552,6.5737,6.5255,6.4433,6.3739,6.3536,6.329,6.1557,5.9939,5.8764,5.9611,5.9986,6.0499,0.0,0.0,0.0,6.8318,7.0464,7.2417,7.4967,7.6181,7.6761,7.6713,7.6678,7.6904,7.7517,7.7524,7.7838,7.9252,8.0893,8.14,7.9778,7.9849,7.9486,7.7789,7.6389,7.5441,7.5299,7.5723,7.5672,7.4809,7.5455,7.5287,7.4006,7.2892,7.1452,6.9662,6.8505,6.7122,6.5358,6.5295,6.3505,6.0096,6.0027,5.9079,5.7354,5.6719,5.5918,5.4865,5.2399,5.1488,5.1679,4.929,4.7972,4.7434,4.6408,4.5971,4.582,4.4722,4.4904,4.5543,0.0,0.0,0.0,0.0,0.0,0.0,0.0,0.0,0.0,0.0,0.0,0.0,4.6608,4.651,4.6545,4.686,4.6828,4.7012,4.7473,4.7051,4.6574,4.6041,4.7022,4.7124,0.0,0.0,0.0,0.0,0.0,0.0,0.0,0.0,0.0,0.0,5.2014,5.3436,5.54,5.5982,5.7504,5.9664,6.1558,6.3187,6.4703,6.6742,6.7634,6.7872,6.7979,6.7835,6.7484,6.6706,6.5923,6.4893,6.2634,6.1725,6.1373,6.0985,6.1047,6.1286,6.1766,0.0,0.0,0.0,0.0,0.0,7.3264,7.482,7.5983,7.64,7.6475,7.6466,7.6363,7.6813,7.7138,7.7017,7.8406,7.9692,8.028,7.8665,7.745,7.7437,7.5653,7.4369,7.4297,7.4321,7.4237,7.4016,7.3206,7.2574,7.2217,7.063,6.9227,6.8118,6.6818,6.561,6.463,6.2585,6.0934,5.9654,5.8373,5.7426,5.6946,5.6188,5.4817,5.2986,5.0844,4.9043,4.768,4.779,4.729,4.6452,4.6463,4.5744,4.4783,4.514,4.5366,4.541,0.0,0.0,0.0,0.0,0.0,0.0,0.0,0.0,0.0,0.0,0.0,0.0,4.7004,4.7029,4.7276,4.7713,4.712,4.7335,4.8696,4.8124,4.7665,4.7564,4.8376,4.8274,4.7124,0.0,0.0,0.0,0.0,0.0,0.0,0.0,0.0,0.0,0.0,5.3785,5.5791,5.6758,5.8365,6.0508,6.3002,6.4638,6.5854,6.8132,6.9099,6.9236,6.9375,6.9609,6.9723,6.8601,6.7342,6.6076,6.4925,6.3963,6.305,6.2194,6.2015,6.2031,6.1677,6.2516,6.38,6.5039,0.0,0.0,7.1831,7.3337,7.4577,7.5558,7.5755,7.5774,7.5817,7.614,7.6331,7.5979,7.6451,7.7208,7.8254,7.6946,7.5911,7.5941,7.4466,7.3327,7.2934,7.306,7.2922,7.2282,7.1742,7.1022,7.0147,6.8638,6.7269,6.6201,6.5358,6.4088,6.2292,6.0661,5.9236,5.8134,5.704,5.6365,5.5974,5.4598,5.3245,5.1868,4.8991,4.7061,4.5969,4.5833,4.5477,4.5113,4.5672,4.5413,4.4667,4.5196,4.5476,4.5347,0.0,0.0,0.0,0.0,0.0,0.0,0.0,0.0,0.0,0.0,4.8019,4.805,4.805,4.7989,4.7973,4.8009,4.7504,4.8047,5.0081,4.9691,4.9591,5.0171,5.0135,4.9729,4.9018,4.8984,4.9046,0.0,0.0,0.0,0.0,5.1454,5.2125,5.2286,0.0,0.0,5.6327,5.764,5.9422,6.1651,6.4395,6.5916,6.6814,6.9384,7.0299,7.0171,7.0414,7.1002,7.1443,6.996,6.8433,6.7211,6.7777,6.6334,6.4297,6.3346,6.3015,6.2694,6.1866,6.2165,6.3107,6.4727,6.6393,0.0,7.0457,7.1655,7.2684,7.4231,7.4526,7.4714,7.5426,7.5386,7.5301,7.5599,7.4932,7.4535,7.4996,7.49,7.4492,7.3631,7.2869,7.2117,7.1333,7.1542,7.1345,7.0173,7.0485,6.989,6.7853,6.6637,6.5492,6.423,6.393,6.2358,5.9488,5.9209,5.8134,5.6146,5.5901,5.5386,5.4645,5.2423,5.1286,5.0862,4.7044,4.5519,4.5495,4.3789,4.3303,4.3808,4.4616,4.4915,4.49,4.4982,4.5105,4.4864,0.0,0.0,0.0,0.0,0.0,0.0,0.0,0.0,0.0,4.9989,5.0574,5.0913,5.0913,5.042,4.9889,4.9378,4.9882,5.0413,5.0871,5.139,5.1459,5.0982,5.0405,4.9729,4.9018,4.9107,4.9376,4.9809,5.0124,5.0716,5.1692,5.197,5.2549,5.341,5.3567,5.4764,5.6722,5.8648,6.0944,6.3514,6.5438,6.6954,6.8383,7.1093,7.22,7.2387,7.2966,7.3281,7.3229,7.2073,7.1156,7.0257,6.9055,6.7883,6.6658,6.5277,6.4232,6.3375,6.2669,6.2569,6.2917,6.379,6.5291,0.0,6.8674,6.9601,7.0516,7.201,7.2202,7.2482,7.3782,7.3699,7.3737,7.4685,7.3739,7.3158,7.395,7.3135,7.2122,7.1179,7.0361,6.9778,6.9599,6.8702,6.8446,6.9316,6.7996,6.6709,6.5647,6.3999,6.3212,6.3504,6.1508,5.9947,5.9043,5.7564,5.6485,5.5705,5.3975,5.3124,5.2897,5.0848,4.8894,4.7236,4.6075,4.4842,4.3568,4.349,4.35,4.3651,4.4167,4.4328,4.4375,4.4793,4.3974,4.23,0.0,0.0,0.0,0.0,0.0,0.0,0.0,0.0,5.0328,5.0636,5.1282,5.1559,5.1251,5.119,5.1425,5.1944,5.2091,5.2682,5.3864,5.3612,5.2976,5.1924,5.1176,5.0323,4.9263,4.9585,4.9867,5.0146,5.085,5.1494,5.2112,5.266,5.3918,5.5697,5.4702,5.6031,5.9092,5.9925,6.1761,6.4397,6.6558,6.8456,7.0156,7.2026,7.3034,7.3443,7.3618,7.3659,7.3522,7.3457,7.2819,7.1886,7.089,6.9741,6.8482,6.7274,6.5838,6.4513,6.3873,6.3309,6.31,6.3868,6.4613,0.0,0.0,6.7707,6.8311,6.9652,7.0118,7.0705,7.2116,7.2072,7.1999,7.2337,7.2022,7.1436,7.0473,7.0485,7.0364,6.9906,6.9083,6.8349,6.7856,6.7657,6.7719,6.8112,6.6102,6.4688,6.4264,6.2923,6.172,6.075,5.9261,5.8078,5.7277,5.5312,5.4124,5.375,5.1631,5.053,5.022,4.81,4.6584,4.5494,4.4693,4.382,4.3007,4.3334,4.3547,4.3578,4.4329,4.458,4.4423,4.3442,4.2407,4.1113,0.0,0.0,0.0,0.0,0.0,0.0,0.0,0.0,5.119,5.1436,5.2149,5.2405,5.1847,5.241,5.3438,5.4841,5.4797,5.5502,5.7359,5.6338,5.5039,5.3613,5.2422,5.1253,5.0095,5.0241,5.046,5.0643,5.1741,5.2286,5.2436,5.3353,5.5023,5.7177,5.6068,5.7634,6.1046,6.1366,6.2972,6.5548,6.7842,6.9916,7.1817,7.3088,7.3906,7.4281,7.3947,7.3692,7.3637,7.4475,7.3999,7.3026,7.2839,7.1665,7.0152,6.9203,6.7589,6.5956,6.5242,6.4217,6.3502,6.4321,6.4238,6.432,0.0,0.0,0.0,6.7228,6.7873,6.8719,7.0242,7.019,6.9858,6.9566,6.986,6.9264,6.6813,6.7447,6.8223,6.8434,6.7898,6.7084,6.5936,6.6615,6.6767,6.5898,6.4159,6.3123,6.3192,6.1784,6.0011,5.8032,5.7268,5.6234,5.4992,5.3299,5.2037,5.1247,4.9104,4.7862,4.7406,4.5332,4.4412,4.4367,4.309,4.2609,4.2641,4.2817,4.2849,4.3034,4.3997,4.4174,4.3604,4.1401,4.0158,3.9092,4.6448,4.7214,0.0,0.0,0.0,0.0,0.0,0.0,5.2914,5.4068,5.5149,5.5739,5.5645,5.6515,5.7185,5.7363,5.912,6.0121,5.9914,5.9757,5.8811,5.6919,5.4187,5.2557,5.2171,5.1074,5.0938,5.1922,5.252,5.3072,5.3528,5.4016,5.4576,5.5222,5.7459,5.8901,5.9909,6.3006,6.5904,6.8458,6.9297,7.0855,7.2896,7.5196,7.6038,7.5837,7.518,7.4789,7.4676,7.5204,7.4911,7.4318,7.4462,7.349,7.2027,7.0819,6.9228,6.7686,6.6651,6.5197,6.4144,6.4871,6.4215,6.3582,6.4351,0.0,6.3988,6.489,0.0,6.5618,6.7926,0.0,0.0,6.699,6.7056,6.6567,6.4987,6.4401,6.4464,6.5304,6.5553,6.512,6.3538,6.3494,6.2982,6.147,6.144,6.1697,6.2079,5.8946,5.7193,5.7407,5.5551,5.4034,5.2897,5.2266,5.1016,4.9025,4.6926,4.5738,4.5169,4.3424,4.2675,4.2509,4.1525,4.129,4.1533,4.0698,4.0583,4.1037,4.1939,4.1526,4.0209,3.901,3.6512,3.36,4.6961,4.8003,0.0,0.0,0.0,0.0,0.0,0.0,5.4068,5.4099,5.4837,5.5726,5.6734,5.6916,5.8045,6.0704,6.1518,6.1976,6.2241,6.1889,6.0399,5.7638,5.5837,5.4209,5.2828,5.2475,5.2378,5.2565,5.3093,5.3588,5.4052,5.443,5.5522,5.7232,5.8056,5.9941,6.2639,6.4291,6.7064,7.052,7.1637,7.3469,7.5582,7.5383,7.535,7.5318,7.4886,7.4699,7.4611,7.454,7.5056,7.5535,7.4162,7.3916,7.3809,7.2149,7.0742,6.9564,6.8944,6.7708,6.6528,6.6254,6.5605,6.5051,6.5008,6.4819,6.4474,6.3982,0.0,0.0,0.0,0.0,0.0,0.0,6.5163,6.5183,6.37,6.3592,6.3735,6.4036,6.3671,6.3149,6.2449,6.1389,6.1015,6.1723,6.0398,5.9704,5.9995,5.7357,5.5761,5.548,5.3157,5.1994,5.2113,4.9518,4.7783,4.6846,4.4435,4.3239,4.2991,4.1528,4.0923,4.1066,4.0331,4.021,4.0537,3.9469,3.9092,3.915,3.8111,3.8203,3.8628,3.6021,3.4144,3.2762,4.812,0.0,5.0151,5.0729,0.0,0.0,0.0,5.5686,5.603,5.5207,5.5997,5.7058,5.8376,5.8519,6.0167,6.4294,6.4572,6.4817,6.5509,6.4714,6.2824,5.9835,5.8144,5.6509,5.4783,5.4315,5.3857,5.3465,5.3814,5.4138,5.4446,5.4814,5.6167,5.8365,5.8723,6.0962,6.4518,6.5645,6.8315,7.1836,7.3041,7.4808,7.6635,7.5439,7.5,7.5005,7.4673,7.4703,7.4807,7.4372,7.5148,7.5962,7.3901,7.3723,7.3935,7.2236,7.0883,7.0016,7.0001,6.9045,6.8009,6.7797,6.7186,6.6388,6.5615,6.5386,6.4849,6.3149,6.3255,0.0,0.0,0.0,6.251,6.1515,0.0,6.2498,6.0765,6.1165,6.1895,6.2593,6.1545,6.0628,6.0463,5.9392,5.9132,6.0121,5.8576,5.7651,5.7745,5.5829,5.4552,5.4255,5.1609,5.0375,5.0862,4.7246,4.5169,4.4653,4.2402,4.1331,4.1273,4.0001,3.9632,3.9931,3.8978,3.8724,3.9074,3.7464,3.6899,3.6622,3.4397,3.4446,3.5421,3.2994,3.1849,3.1276,5.0817,5.0459,5.0652,5.2818,5.3188,5.3927,5.6001,5.8183,5.9361,5.8785,6.0266,6.1468,6.1709,6.3002,6.5068,6.8078,6.9327,7.0019,7.0189,6.8956,6.7262,6.5148,6.1656,5.9621,5.9204,5.662,5.5107,5.4832,5.4769,5.4776,5.4791,5.5168,5.5935,5.7065,5.9721,6.1987,6.4031,6.7367,7.013,7.2302,7.2809,7.3664,7.4695,7.5733,7.5951,7.5585,7.4948,7.518,7.5776,7.5388,7.5314,7.5154,7.4197,7.3028,7.1732,7.0393,6.902,6.8146,6.8795,6.8066,6.7547,6.9279,6.8509,6.6988,6.5617,6.5062,6.4175,6.1986,6.157,6.1605,6.1639,6.1081,5.9927,5.7843,5.7797,0.0,0.0,5.5745,5.7487,6.0265,5.8971,5.7464,5.6473,5.739,5.6959,5.4358,5.5167,5.5678,5.5297,5.3832,5.3449,5.4348,5.1472,4.9361,4.8259,4.6041,4.4096,4.2395,4.1056,4.0395,4.0324,3.9271,3.9059,3.9277,3.7163,3.6618,3.6761,3.4341,3.3309,3.3093,3.1316,3.0071,2.94,3.0259,2.9284,2.7541,0.0,5.2473,5.265,5.3897,5.4435,5.5462,5.7639,5.9581,6.0779,6.0808,6.1854,6.3176,6.4725,6.4999,6.6512,6.9993,7.03,7.0574,7.1158,7.0449,6.9087,6.6977,6.4535,6.2365,6.0548,5.8783,5.7155,5.5685,5.5662,5.5479,5.5181,5.5425,5.6022,5.6988,5.932,6.2248,6.5618,6.777,7.1082,7.4887,7.5036,7.5615,7.6338,7.5872,7.5404,7.5085,7.538,7.5318,7.5027,7.4595,7.497,7.5184,7.2837,7.2837,7.3273,7.109,6.9954,6.9353,6.9318,6.8245,6.7225,6.7516,6.7459,6.713,6.6664,6.6107,6.5227,6.3714,6.2295,6.0731,5.8867,5.8302,5.7522,5.5645,5.5826,5.5966,0.0,5.5209,5.5315,5.5304,5.5435,5.5716,5.6154,5.5139,5.436,5.4263,5.3804,5.3513,5.3436,5.2734,5.2017,5.1449,4.9282,4.7469,4.596,4.388,4.2302,4.1391,4.0395,3.9713,3.9305,3.8349,3.8129,3.8319,3.6214,3.5546,3.5678,3.2852,3.1231,3.0432,2.8674,2.7334,2.6299,2.7168,2.6736,2.5698,5.4157,5.4207,5.4306,5.4831,5.6137,5.7807,5.9862,6.1946,6.333,6.3375,6.4497,6.5782,6.6967,6.7216,6.8504,7.1497,7.1919,7.2154,7.2396,7.2243,7.1352,6.9682,6.8036,6.6219,6.4203,6.2017,5.9915,5.7963,5.6889,5.623,5.5921,5.6102,5.6686,5.7645,5.9599,6.2794,6.6763,6.8277,7.1358,7.5272,7.5565,7.5973,7.6391,7.582,7.5805,7.608,7.606,7.5859,7.5503,7.5135,7.5359,7.5293,7.2644,7.2318,7.2557,7.0344,6.9254,6.8595,6.8378,6.7487,6.6612,6.6677,6.6641,6.6457,6.5968,6.5301,6.4327,6.2574,6.1109,5.9399,5.6873,5.673,5.6419,5.4607,5.4792,5.5008,0.0,5.3988,5.3194,5.2238,5.3179,5.4007,5.4152,5.304,5.2313,5.2355,5.1933,5.1743,5.1729,5.1075,5.0464,4.9881,4.7483,4.5731,4.468,4.2243,4.0978,4.0815,3.9423,3.8735,3.8737,3.765,3.6877,3.6224,3.4459,3.3313,3.2461,3.0007,2.8572,2.7853,2.6584,2.5316,2.4398,2.518,2.5147,2.4621,5.5364,5.5646,5.5721,5.598,5.8321,6.0732,6.2489,6.5194,6.6863,6.655,6.8218,6.9273,6.8726,6.9804,7.1197,7.2768,7.4196,7.4732,7.4087,7.4379,7.4173,7.3246,7.1993,7.0811,6.9806,6.6039,6.3205,6.1417,5.8533,5.7054,5.7002,5.7181,5.785,5.8937,6.0666,6.3587,6.7405,6.8878,7.1056,7.3548,7.4372,7.4718,7.4889,7.5632,7.7042,7.8403,7.6966,7.6678,7.6984,7.6882,7.6383,7.5415,7.349,7.1566,6.9796,6.8294,6.6977,6.608,6.6174,6.5788,6.5675,6.663,6.6064,6.4996,6.3684,6.2788,6.154,5.8885,5.8202,5.7556,5.5699,5.6234,5.6405,5.459,5.4381,5.4072,5.2902,5.1699,5.0916,5.096,5.1987,5.2178,5.0708,5.1261,5.083,4.8756,4.9626,5.0226,5.0104,4.8951,4.8651,4.9553,4.6093,4.4169,4.4087,4.1155,3.9993,4.0631,3.8129,3.7403,3.835,3.7019,3.5197,3.3094,3.1921,3.0064,2.7684,2.6175,2.541,2.5356,2.4895,2.4125,2.3317,2.4039,2.4187,2.3994,5.5606,5.6552,5.8036,6.0472,6.1053,6.1775,6.3504,6.6319,6.8522,6.9333,7.0859,7.1975,7.2175,7.2505,7.3146,7.434,7.477,7.526,7.5885,7.56,7.5249,7.4957,7.3344,7.2018,7.1045,6.8004,6.5291,6.293,6.0988,5.9362,5.8092,5.8298,5.8865,5.9747,6.0978,6.365,6.7317,6.865,7.0877,7.3549,7.4056,7.5034,7.6144,7.5912,7.6911,7.8284,7.7204,7.6877,7.6846,7.6278,7.5735,7.499,7.2993,7.2008,7.1238,6.9173,6.7692,6.6628,6.5915,6.4661,6.3626,6.4275,6.3854,6.3317,6.3375,6.1867,6.0199,5.9493,5.7054,5.4759,5.3717,5.3748,5.3597,5.2476,5.1807,5.0985,4.9665,4.8736,4.8022,4.7507,4.7224,4.7888,5.0201,5.0136,4.9446,4.8296,4.8778,4.8138,4.6127,4.6955,4.6641,4.4786,4.3734,4.2519,4.0921,3.9416,3.8563,3.8325,3.7318,3.6379,3.5438,3.4336,3.2994,3.1529,2.9652,2.8452,2.7684,2.6175,2.4927,2.4073,2.3776,2.2903,2.1785,2.1996,2.204,2.1898,5.7533,5.8632,6.0238,6.2434,6.3602,6.4635,6.5927,6.7585,6.9137,7.0459,7.1925,7.2906,7.3157,7.411,7.5092,7.6049,7.6283,7.6468,7.6767,7.6493,7.6115,7.5708,7.5381,7.4777,7.3805,7.1404,6.8922,6.6381,6.3978,6.1951,6.0326,6.0495,6.1044,6.1898,6.3242,6.5722,6.8983,7.0454,7.2113,7.3766,7.3823,7.4632,0.0,7.5756,7.659,7.7667,7.6927,7.6658,7.6584,7.6277,7.5564,7.4534,7.2856,7.1635,7.0546,6.8901,6.7519,6.6231,6.4991,6.3697,6.2577,6.2134,6.0998,6.0121,6.0648,5.8953,5.7171,5.7154,5.5252,5.3323,5.2356,5.2602,5.2707,5.1996,5.1058,5.0118,4.9377,4.8452,4.7529,4.6677,4.5871,4.5957,4.7316,4.7041,4.6787,4.6934,4.6679,4.5967,4.4607,4.4837,4.4217,4.2324,4.194,4.0899,3.9093,3.8322,3.7815,3.7491,3.6211,3.4944,3.3861,3.2655,3.0956,2.8876,2.7602,2.6431,2.5378,2.4525,2.3635,2.2924,2.261,2.2005,2.1168,2.1168,2.1168,2.1168,6.0405,6.1325,6.2263,6.3273,6.5794,6.8001,6.902,6.9285,6.9836,7.1078,7.25,7.3398,7.3398,7.534,7.6935,7.7732,7.8092,7.7998,7.7384,7.7277,7.6914,7.6166,7.7422,7.7762,7.6886,7.5113,7.3008,7.0649,6.7265,6.4848,6.3379,6.3385,6.3866,6.4757,6.6324,6.8565,7.1274,7.2866,7.364,7.3848,7.3543,7.3816,7.4545,7.5309,7.6014,7.6549,7.6279,7.6252,7.6321,7.6325,7.5397,7.4005,7.2718,7.0867,6.8989,6.8171,6.6901,6.541,6.3921,6.2903,6.1849,6.0413,5.8244,5.6623,5.6994,5.5339,5.3698,5.3593,5.3023,5.2311,5.1247,5.1834,5.2418,5.2124,5.0734,4.9629,4.9524,4.8317,4.7183,4.6363,4.5539,0.0,4.3335,4.3492,4.3995,4.4903,4.4108,4.3595,4.3619,4.2365,4.1452,4.0925,4.012,3.9097,3.7686,3.714,3.6674,3.6315,3.4215,3.2985,3.2362,3.1022,2.8744,2.5937,2.5744,2.4494,2.2387,2.2359,2.2217,2.1971,2.1584,2.1329,2.1168,2.1168,2.1168,2.1168,6.295,6.3422,6.4166,6.5764,6.7409,6.9146,7.1207,7.2422,7.3131,7.3408,7.5207,7.6523,7.6523,7.7612,7.8502,7.8797,7.9045,7.9208,7.9209,7.8471,7.7928,7.7773,7.7892,7.7866,7.7687,7.6322,7.4919,7.3462,7.044,6.8294,6.7066,6.6356,6.6453,6.7219,6.821,6.9719,7.1596,7.2627,7.2916,7.2649,7.2885,7.326,7.3725,7.485,7.5128,7.4923,7.5442,7.6005,7.6359,7.5186,7.4118,7.308,7.1736,7.0579,6.9323,6.794,6.6538,6.5195,6.4127,6.2256,6.0456,5.9717,5.7686,5.5761,5.5393,5.3891,5.2391,5.1709,5.0777,4.9887,4.9368,4.9364,4.9737,5.0813,4.7714,4.4997,4.4228,4.2301,4.1208,4.1888,4.0443,3.9851,4.1113,4.303,4.3698,4.2471,4.2116,4.0957,3.8842,3.9176,3.886,3.7567,3.7471,3.6486,3.4537,3.4021,3.2544,3.0221,3.0366,2.9573,2.801,2.7098,2.5825,2.433,2.3453,2.2769,2.2378,2.2208,2.1924,2.1556,2.131,2.1196,2.1168,2.1168,2.1168,2.1168,6.4483,6.5055,6.5933,6.7471,6.9245,7.1207,7.3417,7.496,7.5574,7.4778,7.5701,7.6755,7.7615,7.8963,8.002,8.0543,8.0378,8.0236,8.0272,7.9407,7.8825,7.8657,7.8798,7.8856,7.8769,7.7925,7.6906,7.5741,7.3383,7.1651,7.0506,6.9614,6.9532,7.0166,7.0842,7.1882,7.3191,7.2839,7.2517,7.2263,7.2372,7.2359,7.2463,7.3776,7.4416,7.4493,7.4339,7.4518,7.4698,7.3626,7.295,7.2306,7.0493,6.8971,6.7807,6.7052,6.5763,6.4279,6.282,6.1311,5.9765,5.8281,5.5994,5.4175,5.4104,5.2492,5.0767,4.9956,4.8947,4.8016,4.718,4.6869,4.6837,4.7038,4.5092,4.3124,4.2,4.0768,4.0,4.0112,3.9293,3.8715,3.8817,3.9908,4.0559,4.0408,3.9842,3.8662,3.6859,3.7851,3.7726,3.6005,3.6806,3.5764,3.288,3.2763,3.1413,2.8688,2.8361,2.757,2.6273,2.5302,2.4228,2.317,2.2583,2.2387,2.2368,2.2056,2.1754,2.1452,2.0955,2.0973,2.1168,2.0881,2.0973,2.1168,6.6186,6.69,6.7856,6.917,7.1301,7.3379,7.5073,7.6794,7.742,7.6178,7.639,7.7122,7.8442,8.0029,8.1254,8.1919,8.1527,8.1171,8.1027,8.0176,7.9645,7.9504,7.9644,7.9678,7.9648,7.9152,7.8474,7.7524,7.5954,7.4221,7.2444,7.2469,7.2599,7.2881,7.3307,7.3686,7.3882,7.2538,7.1908,7.177,7.1662,7.1605,7.1656,7.2989,7.3625,7.3745,7.294,7.2595,7.2386,7.1316,7.1105,7.098,6.8908,6.72,6.5853,6.5542,6.4311,6.264,6.0961,5.9697,5.8385,5.6364,5.4017,5.2281,5.2569,5.0923,4.911,4.8399,4.7302,4.6354,4.5525,4.4696,4.407,4.387,4.2519,4.1324,4.0783,4.0028,3.93,3.886,3.8706,3.8143,3.6973,3.6888,3.7197,3.7908,3.7398,3.6631,3.5713,3.6778,3.6401,3.4442,3.5643,3.4436,3.0717,3.0973,2.9792,2.7229,2.6387,2.5595,2.4939,2.4034,2.317,2.2387,2.2387,2.234,2.2236,2.1924,2.1641,2.1198,2.0658,2.0603,2.0797,2.0501,2.0696,2.1075,6.9141,6.9591,7.0224,7.1541,7.3589,7.5153,7.5513,7.7333,7.865,7.8477,7.9354,8.0028,8.0183,8.1182,8.1871,8.1814,8.1913,8.1951,8.1826,8.0861,8.0437,8.0705,7.9914,7.957,7.9778,7.9437,7.9084,7.8638,7.776,7.5157,7.1068,7.4123,7.5295,7.4754,7.4996,7.3776,7.1551,7.088,7.0482,7.0376,7.0385,7.1128,7.2397,7.3171,7.2638,7.1408,7.1253,7.0679,6.9703,6.7513,6.7581,6.8312,6.6919,6.5688,6.4555,6.2988,6.1548,6.015,5.8956,5.6768,5.4672,5.3937,5.2292,5.0671,5.0256,4.902,4.7761,4.7038,4.5623,4.4804,4.5433,4.3008,4.1637,4.3878,3.9997,3.7404,3.9527,3.7733,3.6321,3.6701,3.6336,3.6055,3.5982,3.6274,3.57,3.4113,3.4603,3.4736,3.4186,3.4498,3.3624,3.1483,3.198,3.0305,2.633,2.637,2.5092,2.241,2.2977,2.2919,2.2481,2.2488,2.2485,2.2387,2.2387,2.2179,2.1849,2.1811,2.1263,2.0528,2.0417,2.013,1.986,2.0223,2.0408,2.0501,7.1336,7.1799,7.261,7.446,7.562,7.6728,7.8074,7.9231,7.9929,7.9929,8.0312,8.0736,8.1191,8.1732,8.1992,8.1883,8.1925,8.1922,8.1734,8.1085,8.0899,8.1423,8.0545,8.033,8.0923,7.9601,7.8951,7.9169,7.7733,7.6301,7.4839,7.5589,7.5636,7.5021,7.3305,7.2477,7.2254,7.0396,6.9699,6.9779,7.0059,6.9776,6.9391,7.0268,6.9955,6.8997,6.878,6.8454,6.7807,6.5053,6.5714,6.7122,6.455,6.3182,6.2092,6.0226,5.8993,5.7857,5.6226,5.4987,5.3836,5.2505,5.0711,4.9118,4.8841,4.7011,4.5004,4.3897,4.1884,4.0455,4.0814,3.997,3.9303,3.9783,3.8169,3.696,3.7241,3.6089,3.5358,3.5551,3.5216,3.5067,3.5322,3.5864,3.57,3.4454,3.4116,3.3689,3.286,3.2999,3.2545,3.1179,3.1399,2.9534,2.5545,2.5341,2.402,2.1792,2.2077,2.225,2.2274,2.2349,2.2387,2.2387,2.2387,2.216,2.1792,2.1496,2.0962,2.0315,1.9759,1.9573,1.9674,1.9581,1.9851,2.0408,7.3628,7.41,7.4894,7.6902,7.7573,7.8291,7.9678,8.0332,8.0673,8.0702,8.0684,8.0891,8.1444,8.1589,8.1719,8.1805,8.1905,8.1765,8.1333,8.0891,8.074,8.0984,7.9698,7.9279,7.9938,7.802,7.7439,7.8233,7.7134,7.6344,7.5918,7.4878,7.4535,7.4702,7.2053,7.1198,7.1668,6.9589,6.8708,6.8766,6.9031,6.8296,6.7125,6.8059,6.8058,6.7458,6.6826,6.6157,6.5111,6.2319,6.2513,6.3418,6.1259,6.0031,5.9052,5.7109,5.6202,5.5434,5.3723,5.2804,5.1939,5.0455,4.8381,4.6786,4.6524,4.4477,4.2288,4.0885,3.9169,3.7827,3.7488,3.7623,3.7671,3.7281,3.7036,3.6703,3.6547,3.5812,3.5415,3.5621,3.543,3.528,3.5359,3.5927,3.579,3.4542,3.377,3.313,3.2646,3.2308,3.1601,3.0528,2.978,2.7848,2.4483,2.3952,2.3107,2.1792,2.1792,2.2,2.2387,2.2387,2.2387,2.2387,2.2387,2.2063,2.1496,2.1201,2.0611,1.9931,1.9226,1.9091,1.9364,1.9066,1.943,2.0033,7.6203,7.6566,7.7017,7.8528,7.9501,7.9892,7.946,8.0035,8.0585,8.0762,8.0684,8.0656,8.0788,8.0718,8.0876,8.1534,8.1901,8.1658,8.0673,8.0182,7.9663,7.9133,7.6717,7.5505,7.5788,7.4135,7.403,7.558,7.6053,7.4931,7.2237,7.1297,7.1942,7.385,7.211,7.0355,6.8711,6.8075,6.7451,6.6845,6.6845,6.6762,6.6681,6.7423,6.7451,6.6931,6.5883,6.388,6.1351,5.8968,5.7093,5.6005,5.6798,5.6476,5.5433,5.3696,5.3175,5.2897,5.1747,4.9864,4.8028,4.7065,4.521,4.3429,4.248,4.1267,3.9974,3.8666,3.8323,3.798,3.7086,3.6649,3.6764,3.8031,3.6415,3.5874,3.8366,3.7152,3.6352,3.7019,3.7099,3.6917,3.6461,3.6682,3.5913,3.3628,3.2949,3.3098,3.4059,3.2327,3.0478,2.8667,2.6299,2.404,2.2181,2.1574,2.147,2.1792,2.1792,2.2,2.2387,2.2387,2.2387,2.2387,2.2387,2.186,2.101,2.101,2.0313,1.9175,1.8998,1.8781,1.8775,1.8878,1.904,1.9286,7.8083,7.8671,7.9134,7.9608,8.0135,8.0422,8.0197,8.0976,8.1571,8.1494,8.189,8.2048,8.1656,8.1407,8.1191,8.0935,8.1016,8.0591,7.9372,7.9766,7.9729,7.8988,7.8259,7.7911,7.8015,7.5442,7.433,7.4828,7.3257,7.1533,6.9658,6.9906,6.9893,6.9687,6.7974,6.7134,6.6852,6.5106,6.4784,6.5378,6.5332,6.5002,6.4661,6.5177,6.4499,6.3117,6.2084,6.0598,5.88,5.6153,5.4107,5.233,5.0611,5.187,5.3517,5.1262,4.9775,4.8553,4.7326,4.5535,4.4047,4.3699,4.25,4.1286,4.0932,3.9363,3.7688,3.6687,3.6443,3.6356,3.608,3.5099,3.4519,3.4844,3.3191,3.2176,3.3153,3.2141,3.1514,3.1899,3.3002,3.3071,3.1481,3.3171,3.3159,3.0518,3.0927,3.1289,3.1395,2.9917,2.8338,2.65,2.5136,2.3562,2.1886,2.1414,2.1376,2.1792,2.1792,2.2,2.2387,2.2387,2.2387,2.2387,2.1995,2.1569,2.0915,2.0246,1.9655,1.9003,1.7143,1.736,1.8512,1.7134,1.7803,1.9395,7.9457,7.9811,8.0256,8.0728,8.0974,8.1212,8.1523,8.2053,8.2286,8.197,8.2232,8.2386,8.2088,8.1885,8.1484,8.0811,8.0525,7.9806,7.8379,7.8597,7.8301,7.7225,7.6644,7.6337,7.6334,7.3874,7.2881,7.3473,7.1987,7.0724,6.9833,6.9155,6.8275,6.7199,6.5413,6.4702,6.4718,6.3505,6.3204,6.3423,6.3736,6.342,6.2756,6.2415,6.1699,6.0603,5.8601,5.6975,5.5531,5.3241,5.0857,4.8553,4.6664,4.7401,4.8724,4.7204,4.5919,4.4946,4.4067,4.2748,4.1416,4.1063,4.0005,3.899,3.8787,3.7648,3.6496,3.6027,3.5124,3.4445,3.4494,3.2954,3.1648,3.1761,3.0664,2.9978,3.0174,2.9736,2.9454,2.9721,3.0742,3.0796,2.9191,3.0621,3.0792,2.872,2.9186,2.9163,2.8199,2.7627,2.6681,2.5323,2.3905,2.2693,2.1669,2.1414,2.1452,2.1792,2.1943,2.2151,2.2387,2.2191,2.2093,2.2093,2.1514,2.1031,2.0543,1.9878,1.8937,1.7762,1.6067,1.6373,1.7434,1.5158,1.5932,1.8125,8.046,8.0299,8.066,8.17,8.1844,8.2147,8.3128,8.3088,8.277,8.2298,8.2112,8.2073,8.2222,8.2044,8.1635,8.0923,8.0352,7.9269,7.7472,7.6862,7.5904,7.433,7.2648,7.1772,7.1696,7.0149,6.997,7.1245,7.1491,7.1527,7.1355,6.8527,6.6807,6.6058,6.413,6.2954,6.2424,6.2841,6.2308,6.1181,6.1807,6.169,6.0808,5.9256,5.8974,5.8981,5.5473,5.3129,5.151,5.0087,4.7406,4.468,4.4516,4.3244,4.1899,4.2065,4.2065,4.1982,4.1899,4.1016,3.9787,3.8938,3.7619,3.6486,3.5962,3.5686,3.5676,3.5989,3.4038,3.2285,3.2492,3.037,2.8619,2.8766,2.8724,2.8706,2.9037,2.8981,2.908,2.9545,2.9772,2.9482,2.8773,2.8855,2.8487,2.7555,2.7519,2.6666,2.4807,2.5314,2.5346,2.4691,2.2581,2.1452,2.1471,2.1471,2.1584,2.182,2.2208,2.2289,2.2289,2.1799,2.1505,2.1505,2.1022,2.0418,1.9759,1.9556,1.8087,1.572,1.5281,1.54,1.5618,1.3096,1.3579,1.5551,8.2211,8.2288,8.2195,8.1063,8.1523,8.2014,8.203,8.2738,8.3365,8.3679,8.3944,8.3642,8.2491,8.1802,8.0888,7.9592,7.9148,7.7867,7.5334,7.6015,7.5759,7.3985,7.315,7.2382,7.1569,6.9264,6.7585,6.6647,6.6706,6.5972,6.4549,6.4049,6.335,6.2375,6.1188,6.083,6.1072,6.0219,5.9643,5.9317,5.8499,5.7824,5.7072,5.5386,5.4713,5.4485,5.2117,5.002,4.8223,4.6605,4.4477,4.2084,4.0307,3.931,3.909,4.1165,4.0746,3.9649,3.9278,3.8015,3.6736,3.6752,3.5211,3.3617,3.3162,3.1797,3.07,3.0767,3.0254,2.986,2.9938,2.8421,2.7223,2.708,2.5507,2.4341,2.4488,2.3832,2.3455,2.3776,2.5221,2.5483,2.3734,2.4956,2.5265,2.3855,2.3531,2.3249,2.2779,2.2769,2.2622,2.2299,2.1628,2.131,2.1471,2.1471,2.166,2.2028,2.1884,2.1799,2.1799,2.121,2.1022,2.0924,2.0432,2.0026,1.9653,1.7599,1.6321,1.544,1.2159,1.2035,1.335,1.1107,1.1699,1.3615,8.2521,8.2151,8.1853,8.1287,8.1914,8.2598,8.2902,8.3746,8.4279,8.4068,8.385,8.3236,8.2065,8.1146,8.0001,7.851,7.8202,7.7119,7.4756,7.4808,7.4118,7.2322,7.1537,7.0863,7.0291,6.8584,6.6727,6.4754,6.3728,6.2792,6.2027,6.1278,6.0798,6.0512,5.9418,5.8684,5.8209,5.7373,5.6508,5.572,5.511,5.4598,5.3936,5.2301,5.1086,5.0099,4.7753,4.5882,4.4341,4.3199,4.1453,3.9582,3.8306,3.7052,3.6307,3.7809,3.7552,3.674,3.6589,3.5868,3.501,3.4426,3.2603,3.1004,3.0954,3.0041,2.9242,2.9462,2.8462,2.7569,2.7688,2.6023,2.4641,2.4609,2.349,2.2652,2.2652,2.2192,2.1763,2.1792,2.273,2.2913,2.1612,2.2522,2.2809,2.1906,2.1735,2.1669,2.1669,2.1461,2.1169,2.0955,2.0937,2.089,2.0812,2.0996,2.1243,2.1448,2.1361,2.121,2.1219,2.0727,2.0432,2.0432,1.9939,1.9085,1.7999,1.6525,1.4743,1.2759,1.0482,1.0314,1.1159,0.9063,0.956,1.1459,8.2416,8.1506,8.1129,8.1804,8.252,8.328,8.4179,8.4857,8.485,8.3708,8.2793,8.1939,8.1084,8.022,7.8982,7.7199,7.698,7.6203,7.4555,7.3387,7.1953,7.0103,6.8991,6.8273,6.7992,6.7177,6.5847,6.3976,6.2051,6.1303,6.1585,5.9829,5.9198,5.939,5.7943,5.6427,5.507,5.4649,5.3421,5.18,5.1868,5.1615,5.0947,4.9063,4.7453,4.5953,4.3359,4.1533,4.0318,3.984,3.8537,3.6986,3.69,3.5613,3.4162,3.4074,3.3839,3.3738,3.4052,3.4008,3.3497,3.2014,3.0056,2.8644,2.8867,2.8634,2.8506,2.8833,2.7007,2.5408,2.5604,2.3672,2.2208,2.2406,2.2387,2.2359,2.2387,2.2189,2.1981,2.1811,2.1631,2.1452,2.1282,2.1263,2.1263,2.1263,2.1263,2.1263,2.1263,2.0954,2.0588,2.0406,2.0579,2.0404,1.9957,2.0316,2.0667,2.0826,2.0727,2.0727,2.0629,2.0136,1.984,1.984,1.9454,1.8053,1.6049,1.5744,1.3251,0.9661,0.936,0.926,0.8962,0.7163,0.7663,0.926,8.3259,8.2885,8.2596,8.1787,8.2542,8.3156,8.3004,8.3588,8.3671,8.2579,8.1948,8.0943,7.9302,7.8781,7.748,7.4888,7.4487,7.3797,7.2474,7.1963,7.0723,6.8454,6.7317,6.6038,6.4457,6.2735,6.1968,6.2136,6.1736,6.1324,6.0827,5.9894,5.894,5.792,5.571,5.4362,5.3629,5.2308,5.122,5.0383,4.9102,4.8304,4.7506,4.4183,4.2988,4.2742,4.0208,3.8426,3.721,3.6793,3.5544,3.425,3.3818,3.3777,3.3873,3.3442,3.2342,3.1391,3.1881,3.1171,3.0145,2.9474,2.7949,2.65,2.6183,2.4743,2.3501,2.3531,2.3228,2.2926,2.2965,2.2652,2.2416,2.2633,2.2368,2.2198,2.2368,2.2075,2.183,2.1792,2.1763,2.1726,2.1697,2.1697,2.1697,2.1697,2.1697,2.1697,2.1697,2.1241,2.0756,2.0253,2.0279,2.0281,2.0456,2.0667,2.0799,2.0826,2.0333,2.0136,2.0136,1.9651,1.9454,1.9355,1.9355,1.8053,1.595,1.4153,1.1958,0.956,0.7663,0.6962,0.6962,0.6662,0.6662,0.6962,8.3353,8.2777,8.2137,8.1255,8.1777,8.2242,8.1937,8.2103,8.2134,8.1717,8.0659,7.917,7.7159,7.639,7.5082,7.2625,7.225,7.1191,6.9072,6.9224,6.846,6.6403,6.5159,6.3843,6.2585,6.0659,5.9783,6.006,5.8946,5.781,5.6773,5.6426,5.5446,5.4072,5.3035,5.1892,5.0795,4.9881,4.8772,4.7538,4.5685,4.4613,4.3885,4.1226,3.9474,3.8392,3.7195,3.5774,3.4506,3.4636,3.4142,3.3568,3.3753,3.3799,3.3495,3.2211,3.1399,3.0757,2.9963,2.8523,2.7306,2.703,2.5582,2.4115,2.3843,2.3072,2.2387,2.2387,2.2387,2.2387,2.2387,2.2387,2.2425,2.2519,2.2378,2.2283,2.2378,2.2141,2.1952,2.1952,2.1858,2.1792,2.1792,2.1792,2.1792,2.1792,2.1792,2.1696,2.1401,2.0927,2.05,1.9913,1.972,1.9628,1.9821,1.9905,1.9947,1.9947,1.975,1.9651,1.9651,1.9355,1.9256,1.9256,1.8053,1.6354,1.4253,1.2058,0.9961,0.7861,0.6861,0.6461,0.6461,0.6461,0.6461,0.6461,8.2928,8.2081,8.1231,8.0692,8.0886,8.1073,8.0854,8.077,8.063,8.0262,7.8899,7.7109,7.4967,7.3865,7.2546,7.0605,6.9892,6.8508,6.5945,6.597,6.5468,6.412,6.267,6.1609,6.1096,5.9258,5.8159,5.7831,5.6122,5.452,5.301,5.2816,5.2043,5.0731,5.0406,4.9439,4.8116,4.704,4.5793,4.4468,4.2264,4.11,4.0615,3.8804,3.7053,3.5327,3.4844,3.3919,3.2905,3.3248,3.3393,3.3413,3.3434,3.3345,3.274,3.0849,3.0029,2.9462,2.7974,2.6149,2.4633,2.4685,2.3297,2.1995,2.1995,2.1995,2.1995,2.1995,2.1995,2.2093,2.2191,2.2191,2.2229,2.2322,2.2257,2.2229,2.2125,2.193,2.1869,2.1966,2.1739,2.1646,2.1742,2.1742,2.1742,2.155,2.1646,2.154,2.0955,2.0624,2.0119,1.9623,1.924,1.9118,1.9256,1.9256,1.9256,1.9256,1.9256,1.9256,1.9256,1.9256,1.9256,1.9256,1.7551,1.5353,1.2763,1.1159,0.8862,0.6461,0.6461,0.6461,0.6461,0.6461,0.6472,0.6482,8.1844,8.1143,8.0639,8.0308,8.0151,8.0005,7.9644,7.9873,7.9432,7.755,7.6365,7.4922,7.2989,7.1672,7.0364,6.8828,6.7249,6.5687,6.4067,6.2542,6.1639,6.145,5.9968,5.9179,5.9332,5.7946,5.6565,5.5212,5.4571,5.3498,5.1923,5.108,5.0367,4.9727,4.8275,4.7345,4.6572,4.3396,4.1984,4.1683,3.944,3.8458,3.8294,3.6609,3.5972,3.5743,3.3806,3.3168,3.3277,3.297,3.3028,3.2901,3.1277,3.1102,3.1218,2.9369,2.738,2.5737,2.5928,2.3974,2.1943,2.2137,2.1551,2.0924,2.0924,2.0924,2.0924,2.0924,2.0924,2.1121,2.1603,2.171,2.1829,2.2104,2.1948,2.1641,2.151,2.1136,2.1094,2.1585,2.1183,2.1076,2.1566,2.1566,2.137,2.088,2.137,2.137,2.088,2.0307,1.9824,1.9339,1.9339,1.9248,1.9256,1.9256,1.9256,1.9256,1.9256,1.9256,1.9256,1.9256,1.9256,1.9256,1.9157,1.6758,1.2863,1.2757,1.0262,0.6461,0.6461,0.6461,0.6461,0.6461,0.6496,0.6545,8.1002,8.0577,8.0123,7.9298,7.8648,7.8248,7.8336,7.738,7.6345,7.5377,7.4308,7.2854,7.0605,6.8936,6.744,6.604,6.4338,6.2782,6.1562,6.0615,6.005,5.9878,5.862,5.7447,5.6535,5.5767,5.4623,5.3025,5.2352,5.0932,4.9049,4.8718,4.7029,4.4245,4.3905,4.2883,4.1276,4.0017,3.9668,3.9759,3.8026,3.7249,3.7022,3.5494,3.4679,3.4162,3.3398,3.3088,3.291,3.1853,3.1595,3.1345,2.9526,2.9088,2.8886,2.6571,2.4414,2.2694,2.2817,2.2147,2.129,2.1245,2.0977,2.0826,2.0826,2.0826,2.0826,2.0826,2.0826,2.0826,2.1121,2.1112,2.1165,2.1317,2.1219,2.1067,2.1019,2.0913,2.0924,2.1121,2.0924,2.0924,2.1121,2.1112,2.1022,2.0826,2.1022,2.0826,2.0333,1.9849,1.9454,1.9355,1.9256,1.9256,1.9256,1.9256,1.9256,1.9256,1.9256,1.9256,1.9256,1.9256,1.9256,1.9157,1.646,1.4458,1.2668,1.0029,0.7934,0.6521,0.6556,0.657,0.657,0.657,0.6583,0.6602,8.0405,7.9743,7.9033,7.8176,7.7142,7.6498,7.6659,7.5133,7.3902,7.3628,7.2329,7.0591,6.831,6.6632,6.5137,6.3725,6.2136,6.0877,6.0144,5.8684,5.7852,5.7765,5.7,5.5753,5.4001,5.3534,5.2557,5.0962,4.9336,4.7607,4.577,4.4956,4.2882,4.0104,4.0534,3.996,3.85,3.7955,3.7978,3.8169,3.6415,3.5706,3.5571,3.4518,3.3928,3.3463,3.2799,3.2455,3.2141,3.0412,2.9785,2.9431,2.7472,2.6496,2.5649,2.4047,2.2333,2.0989,2.0929,2.0768,2.0591,2.0651,2.0475,2.0333,2.0333,2.0333,2.0333,2.0333,2.0333,2.0333,2.053,2.053,2.053,2.053,2.053,2.053,2.0333,2.0333,2.0333,2.053,2.0432,2.0432,2.053,2.053,2.053,2.0333,2.0432,2.0333,1.9849,1.9454,1.9256,1.9256,1.9256,1.9256,1.9256,1.9256,1.9256,1.9256,1.9256,1.9256,1.9256,1.9256,1.9289,1.9139,1.5518,1.3535,1.2675,0.9004,0.7088,0.6583,0.6621,0.6635,0.6635,0.6635,0.6649,0.6665,8.0125,7.8566,7.7245,7.7105,7.5877,7.4821,7.4617,7.3498,7.2519,7.2204,7.028,6.8147,6.612,6.4932,6.3754,6.2288,6.0872,6.0104,6.0043,5.6406,5.4473,5.4819,5.4819,5.3927,5.1961,5.1449,5.0383,4.8741,4.5603,4.3479,4.2217,3.9477,3.8212,3.823,3.8719,3.9024,3.9243,3.7384,3.6797,3.6868,3.4608,3.3729,3.3638,3.3638,3.3842,3.3842,3.1849,3.1276,3.1136,2.8619,2.7756,2.7311,2.496,2.3074,2.1739,2.1924,2.1432,2.0841,2.0646,2.0057,1.9616,2.0208,1.9883,1.9256,1.9256,1.9256,1.9256,1.9256,1.9256,1.9454,1.9939,2.0038,2.0038,2.0038,2.0038,1.9849,1.9355,1.9256,1.9454,1.9939,1.9553,1.9454,1.9939,2.0038,1.9849,1.9355,1.975,1.975,1.9355,1.9256,1.9256,1.9256,1.9256,1.9256,1.9256,1.9256,1.9256,1.9256,1.9264,1.9264,1.9264,1.9264,1.9354,1.9308,1.7085,1.493,1.3005,1.075,0.849,0.6638,0.6638,0.6638,0.6638,0.6638,0.6676,0.6728,7.8084,7.7105,7.6126,7.5505,7.3943,7.2914,7.3163,7.1577,6.9795,6.8201,6.7298,6.6016,6.3927,6.226,6.1408,6.1453,5.8656,5.6107,5.4425,5.3302,5.2037,5.0653,5.1731,5.1501,4.9741,4.9607,4.7892,4.466,4.3413,4.18,3.9876,3.9087,3.794,3.6635,3.7052,3.6561,3.5366,3.4757,3.4593,3.4713,3.4238,3.3222,3.182,3.1731,3.0818,2.9557,2.8594,2.826,2.8033,2.5829,2.5055,2.4643,2.2385,2.118,2.0591,2.0641,2.0522,2.0336,2.0045,1.9853,1.9747,1.9593,1.9495,1.9256,1.9256,1.9256,1.9256,1.9256,1.9256,1.9355,1.9454,1.9553,1.9553,1.9553,1.9553,1.9454,1.9355,1.9256,1.9355,1.9454,1.9355,1.9355,1.9454,1.9553,1.9454,1.9355,1.9454,1.9454,1.9355,1.9256,1.9256,1.9256,1.9256,1.9256,1.9256,1.9256,1.9256,1.9264,1.9378,1.9435,1.9443,1.9573,1.8839,1.7248,1.4998,1.2871,1.0651,0.8549,0.722,0.6703,0.6747,0.6763,0.6763,0.6763,0.6774,0.679,7.6662,7.532,7.4214,7.3935,7.2245,7.1094,7.1647,6.9657,6.7666,6.659,6.5408,6.396,6.221,6.0413,5.9189,5.8894,5.592,5.3152,5.1039,5.0119,4.879,4.6888,4.6884,4.6863,4.6807,4.5694,4.4033,4.1834,4.0344,3.9055,3.7981,3.7058,3.608,3.5056,3.5331,3.4833,3.3919,3.3919,3.3519,3.2895,3.2878,3.1625,2.9741,2.9405,2.8512,2.7361,2.6205,2.5722,2.5432,2.3131,2.2261,2.1845,2.067,2.0171,1.9987,2.0125,2.0117,2.0044,1.993,1.9792,1.963,1.941,1.9362,1.9345,1.9272,1.9256,1.9256,1.9256,1.9256,1.9256,1.9256,1.9256,1.9256,1.9256,1.9256,1.9256,1.9256,1.9256,1.9256,1.9256,1.9256,1.9256,1.9256,1.9256,1.9256,1.9256,1.9256,1.9256,1.9256,1.9256,1.9289,1.9354,1.9362,1.9394,1.9467,1.9467,1.9435,1.9362,1.954,1.9622,1.9622,1.9735,1.8587,1.6379,1.4214,1.1964,0.9832,0.7585,0.6763,0.6766,0.6804,0.6818,0.6818,0.6818,0.6818,0.6818,7.5638,7.3557,7.2072,7.2325,7.0593,6.9316,6.9976,6.7534,6.5789,6.6307,6.4151,6.2043,6.0757,5.8954,5.7164,5.5385,5.2902,5.0707,4.9013,4.6863,4.4926,4.3487,4.1267,4.1034,4.3112,4.0833,3.9731,3.9957,3.6993,3.5816,3.6283,3.4231,3.3466,3.3773,3.3682,3.3765,3.3871,3.3871,3.2803,3.1136,3.0622,2.9276,2.7361,2.688,2.6579,2.6108,2.4182,2.3521,2.3131,2.0718,1.9651,1.9321,1.9678,1.9792,1.9857,2.0214,2.0198,2.0068,2.0068,1.9808,1.9532,1.9516,1.9516,1.9467,1.9297,1.9256,1.9256,1.9256,1.9256,1.9256,1.9256,1.9256,1.9256,1.9256,1.9256,1.9256,1.9256,1.9256,1.9256,1.9256,1.9256,1.9256,1.9256,1.9256,1.9256,1.9256,1.9272,1.9281,1.9281,1.9297,1.9378,1.9532,1.954,1.9622,1.9784,1.9808,1.9719,1.954,1.9727,1.9817,1.9817,1.9621,1.8371,1.632,1.403,1.1797,0.9772,0.7662,0.6818,0.6818,0.6818,0.6818,0.6818,0.6818,0.6818,0.6818,7.4344,7.3184,7.2055,7.1046,6.867,6.7069,6.7564,6.5203,6.3181,6.2455,6.1803,6.0239,5.7103,5.6309,5.5261,5.3255,4.9874,4.7002,4.5088,4.3181,4.1751,4.11,3.9175,3.8306,3.8666,3.9296,3.8852,3.7417,3.6742,3.5634,3.4322,3.3794,3.3802,3.411,3.3741,3.2771,3.149,3.1125,2.981,2.8033,2.7829,2.6591,2.4667,2.4182,2.2926,2.1388,2.062,2.0325,2.0226,1.9651,1.9355,1.9321,1.9678,1.9792,1.9857,2.0214,2.0198,2.0068,2.0068,1.9906,1.9695,1.9549,1.9516,1.9467,1.9297,1.9256,1.9256,1.9256,1.9256,1.9256,1.9256,1.9256,1.9256,1.9256,1.9256,1.9256,1.9256,1.9256,1.9256,1.9256,1.9256,1.9256,1.9256,1.9256,1.9256,1.9256,1.9378,1.9459,1.9459,1.9597,1.9695,1.9727,1.9727,1.9752,1.9792,1.9938,1.9914,1.9735,1.9914,2.0003,2.0011,1.8262,1.6341,1.4167,1.1849,0.9651,0.7453,0.703,0.6818,0.6818,0.6818,0.6818,0.6818,0.6818,0.6818,0.6818,7.2988,7.149,7.0177,6.8952,6.695,6.5502,6.5374,6.3393,6.1664,6.092,5.9408,5.7604,5.5483,5.3678,5.1432,4.8531,4.6462,4.4375,4.2205,4.0361,3.9175,3.875,3.6872,3.5772,3.5681,3.5514,3.5415,3.556,3.5292,3.4773,3.3963,3.2924,3.2524,3.2523,3.1289,3.0114,2.899,2.8703,2.7457,2.5529,2.5238,2.389,2.1967,2.1486,2.0611,1.9651,1.9355,1.9256,1.9256,1.9256,1.9256,1.9305,1.9573,1.9654,1.9711,1.9987,2.0003,1.9938,1.9938,1.98,1.963,1.9532,1.9451,1.937,1.9281,1.9256,1.9256,1.9256,1.9256,1.9256,1.9256,1.9256,1.9256,1.9256,1.9256,1.9256,1.9256,1.9329,1.9378,1.9378,1.9459,1.9508,1.9508,1.9508,1.9508,1.9508,1.9597,1.9646,1.9646,1.9735,1.9833,1.9922,1.8875,1.8401,1.8373,1.7418,1.6899,1.6817,1.8048,1.7987,1.694,1.5863,1.4101,1.1887,1.0725,0.8929,0.6818,0.6818,0.6818,0.6818,0.6818,0.6818,0.6818,0.6818,0.6818,0.6818,7.1646,6.9767,6.8183,6.6849,6.5458,6.422,6.3545,6.1696,6.0231,5.9777,5.7014,5.4843,5.4076,5.0685,4.7086,4.388,4.2991,4.1788,3.9836,3.8049,3.6909,3.6389,3.4821,3.3978,3.3948,3.1895,3.1757,3.3802,3.3057,3.2952,3.3157,3.145,3.0509,3.0229,2.8416,2.7168,2.6301,2.6301,2.5055,2.3033,2.2643,2.1388,1.9849,1.9454,1.9256,1.9256,1.9256,1.9256,1.9256,1.9256,1.9256,1.9289,1.9459,1.9532,1.9597,1.9784,1.9833,1.9833,1.9833,1.9678,1.9524,1.9549,1.9427,1.9313,1.9345,1.9305,1.9256,1.9256,1.9256,1.9165,1.8793,1.9099,1.9115,1.8336,1.8841,1.9246,1.8849,1.9267,1.9557,1.9557,1.9695,1.9792,1.9792,1.9792,1.9683,1.9276,1.93,1.9112,1.8696,1.8727,1.8811,1.8957,1.7176,1.6191,1.6308,1.4522,1.3364,1.3048,1.4838,1.5048,1.3575,1.3153,1.1993,1.0196,0.9772,0.8508,0.6818,0.6818,0.6818,0.6818,0.6818,0.6818,0.6818,0.6818,0.6818,0.6818,7.0392,6.9427,6.848,6.6027,6.4162,6.2949,6.245,5.9653,5.7273,5.6451,5.463,5.2557,5.0365,4.6765,4.4126,4.3099,4.0192,3.8083,3.7397,3.59,3.4763,3.4319,3.4292,3.4243,3.4172,3.2139,3.1222,3.1595,2.9713,2.9004,2.9264,2.8977,2.8607,2.8128,2.7468,2.5829,2.3598,2.3228,2.1781,1.9939,1.984,1.9651,1.9355,1.9355,1.9256,1.9256,1.9256,1.9256,1.9256,1.9256,1.9256,1.9289,1.9459,1.9622,1.9792,1.9979,2.0028,2.0028,2.0028,1.9776,1.9549,1.9711,1.9613,1.9524,1.9678,1.9484,1.9256,1.9256,1.9256,1.8702,1.6827,1.8159,1.8212,1.447,1.7154,1.9002,1.7052,1.8503,1.9752,1.9752,1.9776,1.9792,1.9792,1.9792,1.8963,1.7014,1.703,1.6273,1.4301,1.4307,1.4482,1.4499,1.4184,1.3979,1.4101,1.3785,1.2626,1.0619,1.0932,1.1988,1.3575,1.157,1.0513,1.009,0.8087,0.7137,0.6818,0.6818,0.6818,0.6818,0.6818,0.6818,0.6818,0.6818,0.6818,0.6818,6.8477,6.7094,6.5943,6.3982,6.2653,6.1193,5.9282,5.7399,5.5724,5.4114,5.2218,5.0154,4.7783,4.4129,4.1286,4.0005,3.8443,3.6758,3.5285,3.4754,3.4322,3.3781,3.2979,3.2547,3.2501,2.9539,2.7807,2.7497,2.8093,2.8344,2.8464,2.701,2.613,2.5539,2.3803,2.2261,2.1005,2.0718,2.0196,1.9394,1.9297,1.9313,1.9386,1.9297,1.9256,1.9256,1.9256,1.9256,1.9256,1.9256,1.9256,1.9272,1.9345,1.9492,1.9654,1.9735,1.9833,1.9914,1.9914,1.9792,1.9687,1.9768,1.9727,1.9687,1.9768,1.9743,1.967,1.9573,1.8459,1.7235,1.6374,1.609,1.5291,1.3302,1.4644,1.6082,1.6394,1.7398,1.81,1.8196,1.8211,1.7686,1.6437,1.6333,1.5918,1.4873,1.4928,1.454,1.3493,1.3548,1.3575,1.3575,1.2309,1.1676,1.1676,1.0411,0.925,0.8296,0.8296,0.8826,0.978,0.872,0.8296,0.8299,0.724,0.6818,0.6818,0.6818,0.6818,0.6818,0.6818,0.6818,0.6818,0.6818,0.6818,0.6818]}]]